[[{"header":{"parameterUnit":"m.s-1","parameterCategory":1,"la1":31.0,"la2":29.5877,"lo1":-88.7671,"lo2":-86.6584,"dy":0.0162,"dx":0.0185,"nx":115,"ny":88,"refTime":"2026-04-30T12:00:00:Z","depth":0,"parameterNumber":2,"parameterNumberName":"U-component_of_WINDS"},"data":[0.0,0.0,0.0,0.0,0.0,0.0,0.0,0.0,0.0,0.0,0.0,0.0,0.0,0.0,0.0,0.0,0.0,0.0,0.0,0.0,0.0,0.0,0.0,0.0,0.0,0.0,0.0,0.0,0.0,0.0,0.0,0.0,0.0,0.0,0.0,0.0,0.0,0.0,0.0,0.0,0.0,0.0,0.0,0.0,0.0,0.0,0.0,0.0,0.0,0.0,0.0,0.0,0.0,0.0,0.0,0.0,0.0,0.0,0.0,0.0,0.0,0.0,0.0,0.0,0.0,0.0,0.0,0.0,0.0,0.0,0.0,0.0,0.0,0.0,0.0,0.0,0.0,0.0,0.0,0.0,0.0,0.0,0.0,0.0,0.0,0.0,0.0,0.0,0.0,0.0,0.0,0.0,0.0,0.0,0.0,0.0,0.0,0.0,0.0,0.0,0.0,0.0,0.0,0.0,0.0,0.0,0.0,0.0,0.0,0.0,0.0,0.0,0.0,0.0,0.0,0.0,0.0,0.0,0.0,0.0,0.0,0.0,0.0,0.0,0.0,0.0,0.0,0.0,0.0,0.0,0.0,0.0,0.0,0.0,0.0,0.0,0.0,0.0,0.0,0.0,0.0,0.0,0.0,0.0,0.0,0.0,0.0,0.0,0.0,0.0,0.0,0.0,0.0,0.0,0.0,0.0,0.0,0.0,0.0,0.0,0.0,0.0,0.0,0.0,0.0,0.0,0.0,0.0,0.0,0.0,0.0,0.0,0.0,0.0,0.0,0.0,0.0,0.0,0.0,0.0,0.0,0.0,0.0,0.0,0.0,0.0,0.0,0.0,0.0,0.0,0.0,0.0,0.0,0.0,0.0,0.0,0.0,0.0,0.0,0.0,0.0,0.0,0.0,0.0,0.0,0.0,0.0,0.0,0.0,0.0,0.0,0.0,0.0,0.0,0.0,0.0,0.0,0.0,0.0,0.0,0.0,0.0,0.0,0.0,0.0,0.0,0.0,0.0,0.0,0.0,0.0,0.0,0.0,0.0,0.0,0.0,0.0,0.0,0.0,0.0,0.0,0.0,0.0,0.0,0.0,0.0,0.0,0.0,0.0,0.0,0.0,0.0,0.0,0.0,0.0,0.0,0.0,0.0,0.0,0.0,0.0,0.0,0.0,0.0,0.0,0.0,0.0,0.0,0.0,0.0,0.0,0.0,0.0,0.0,0.0,0.0,0.0,0.0,0.0,0.0,0.0,0.0,0.0,0.0,0.0,0.0,0.0,0.0,0.0,0.0,0.0,0.0,0.0,0.0,0.0,0.0,0.0,0.0,0.0,0.0,0.0,0.0,0.0,0.0,0.0,0.0,0.0,0.0,0.0,0.0,0.0,0.0,0.0,0.0,0.0,0.0,0.0,0.0,0.0,0.0,0.0,0.0,0.0,0.0,0.0,0.0,0.0,0.0,0.0,0.0,0.0,0.0,0.0,0.0,0.0,0.0,0.0,0.0,0.0,0.0,0.0,0.0,0.0,0.0,0.0,0.0,0.0,0.0,0.0,0.0,0.0,0.0,0.0,0.0,0.0,0.0,0.0,0.0,0.0,0.0,0.0,0.0,0.0,0.0,0.0,0.0,0.0,0.0,0.0,0.0,0.0,0.0,0.0,0.0,0.0,0.0,0.0,0.0,0.0,0.0,0.0,0.0,0.0,0.0,0.0,0.0,0.0,0.0,0.0,0.0,0.0,0.0,0.0,0.0,0.0,0.0,0.0,0.0,0.0,0.0,0.0,0.0,0.0,0.0,0.0,0.0,0.0,0.0,0.0,0.0,0.0,0.0,0.0,0.0,0.0,0.0,0.0,0.0,0.0,0.0,0.0,0.0,0.0,0.0,0.0,0.0,0.0,0.0,0.0,0.0,0.0,0.0,0.0,0.0,0.0,0.0,0.0,0.0,0.0,0.0,0.0,0.0,0.0,0.0,0.0,0.0,0.0,0.0,0.0,0.0,0.0,0.0,0.0,0.0,0.0,0.0,0.0,0.0,0.0,0.0,0.0,0.0,0.0,0.0,0.0,0.0,0.0,0.0,0.0,0.0,0.0,0.0,0.0,0.0,0.0,0.0,0.0,0.0,0.0,0.0,0.0,0.0,0.0,0.0,0.0,0.0,0.0,0.0,0.0,0.0,0.0,0.0,0.0,0.0,0.0,0.0,0.0,0.0,0.0,0.0,0.0,0.0,0.0,0.0,0.0,0.0,0.0,0.0,0.0,0.0,0.0,0.0,0.0,0.0,0.0,0.0,0.0,0.0,0.0,0.0,0.0,0.0,0.0,0.0,0.0,0.0,0.0,0.0,0.0,0.0,0.0,0.0,0.0,0.0,0.0,0.0,0.0,0.0,0.0,0.0,0.0,0.0,0.0,0.0,0.0,0.0,0.0,0.0,0.0,0.0,0.0,0.0,0.0,0.0,0.0,0.0,0.0,0.0,0.0,0.0,0.0,0.0,0.0,0.0,0.0,0.0,0.0,0.0,0.0,0.0,0.0,0.0,0.0,0.0,0.0,0.0,0.0,0.0,0.0,0.0,0.0,0.0,0.0,0.0,0.0,0.0,0.0,0.0,0.0,0.0,0.0,0.0,0.0,0.0,0.0,0.0,0.0,0.0,0.0,0.0,0.0,0.0,0.0,0.0,0.0,0.0,0.0,0.0,0.0,0.0,0.0,0.0,0.0,0.0,0.0,0.0,0.0,0.0,0.0,0.0,0.0,0.0,0.0,0.0,0.0,0.0,0.0,0.0,0.0,0.0,0.0,0.0,0.0,0.0,0.0,0.0,0.0,0.0,0.0,0.0,0.0,0.0,0.0,0.0,0.0,0.0,0.0,0.0,0.0,0.0,0.0,0.0,0.0,0.0,0.0,0.0,0.0,0.0,0.0,0.0,0.0,0.0,0.0,0.0,0.0,0.0,0.0,0.0,0.0,0.0,0.0,0.0,0.0,0.0,0.0,0.0,0.0,0.0,0.0,0.0,0.0,0.0,0.0,0.0,0.0,0.0,0.0,0.0,0.0,0.0,0.0,0.0,0.0,0.0,0.0,0.0,0.0,0.0,0.0,0.0,0.0,0.0,0.0,0.0,0.0,0.0,0.0,0.0,0.0,0.0,0.0,0.0,0.0,0.0,0.0,0.0,0.0,0.0,0.0,0.0,0.0,0.0,0.0,0.0,0.0,0.0,0.0,0.0,0.0,0.0,0.0,0.0,0.0,0.0,0.0,0.0,0.0,0.0,0.0,0.0,0.0,0.0,0.0,0.0,0.0,0.0,0.0,0.0,0.0,0.0,0.0,0.0,0.0,0.0,0.0,0.0,0.0,0.0,0.0,0.0,0.0,0.0,0.0,0.0,0.0,0.0,0.0,0.0,0.0,0.0,0.0,0.0,0.0,0.0,0.0,0.0,0.0,0.0,0.0,0.0,0.0,0.0,0.0,0.0,0.0,0.0,0.0,0.0,0.0,0.0,0.0,0.0,0.0,0.0,0.0,0.0,0.0,0.0,0.0,0.0,0.0,0.0,0.0,0.0,0.0,0.0,0.0,0.0,0.0,0.0,0.0,0.0,0.0,0.0,0.0,0.0,0.0,0.0,0.0,0.0,0.0,0.0,0.0,0.0,0.0,0.0,0.0,0.0,0.0,0.0,0.0,0.0,0.0,0.0,0.0,0.0,0.0,0.0,0.0,0.0,0.0,0.0,0.0,0.0,0.0,0.0,0.0,0.0,0.0,0.0,0.0,0.0,0.0,0.0,0.0,0.0,0.0,0.0,0.0,0.0,0.0,0.0,0.0,0.0,0.0,0.0,0.0,0.0,0.0,0.0,0.0,0.0,0.0,0.0,0.0,0.0,0.0,0.0,0.0,0.0,0.0,0.0,0.0,0.0,0.0,0.0,0.0,0.0,0.0,0.0,0.0,0.0,0.0,0.0,0.0,0.0,0.0,0.0,0.0,0.0,0.0,0.0,0.0,0.0,0.0,0.0,0.0,0.0,0.0,0.0,0.0,0.0,0.0,0.0,0.0,0.0,0.0,0.0,0.0,0.0,0.0,0.0,0.0,0.0,0.0,0.0,0.0,0.0,0.0,0.0,0.0,0.0,0.0,0.0,0.0,0.0,0.0,0.0,0.0,0.0,0.0,0.0,0.0,0.0,0.0,0.0,0.0,0.0,0.0,0.0,0.0,0.0,0.0,0.0,0.0,0.0,0.0,0.0,0.0,0.0,0.0,0.0,0.0,0.0,0.0,0.0,2.9076,0.0,0.0,0.0,0.0,0.0,0.0,0.0,0.0,0.0,0.0,0.0,0.0,0.0,0.0,0.0,0.0,0.0,0.0,0.0,0.0,0.0,0.0,0.0,0.0,0.0,0.0,0.0,0.0,0.0,0.0,0.0,0.0,0.0,0.0,0.0,0.0,0.0,0.0,0.0,0.0,0.0,0.0,0.0,0.0,0.0,0.0,0.0,0.0,0.0,0.0,0.0,0.0,0.0,0.0,0.0,0.0,0.0,0.0,0.0,0.0,0.0,0.0,0.0,0.0,0.0,0.0,0.0,0.0,0.0,0.0,0.0,0.0,0.0,0.0,0.0,0.0,0.0,0.0,0.0,0.0,0.0,0.0,0.0,0.0,0.0,0.0,0.0,0.0,0.0,0.0,0.0,0.0,0.0,0.0,0.0,0.0,0.0,0.0,0.0,0.0,0.0,0.0,0.0,0.0,0.0,0.0,0.0,0.0,0.0,0.0,3.4336,3.3998,3.3271,3.185,2.9666,0.0,0.0,0.0,0.0,0.0,0.0,0.0,0.0,0.0,0.0,0.0,0.0,0.0,0.0,0.0,0.0,0.0,0.0,0.0,0.0,0.0,0.0,0.0,0.0,0.0,0.0,0.0,0.0,0.0,0.0,0.0,0.0,0.0,0.0,0.0,0.0,0.0,0.0,0.0,0.0,0.0,0.0,0.0,0.0,0.0,0.0,0.0,0.0,0.0,0.0,0.0,0.0,0.0,0.0,0.0,0.0,0.0,0.0,0.0,0.0,0.0,0.0,0.0,0.0,0.0,0.0,0.0,0.0,0.0,0.0,0.0,0.0,0.0,0.0,0.0,0.0,0.0,0.0,0.0,0.0,0.0,0.0,0.0,0.0,0.0,0.0,0.0,0.0,0.0,0.0,0.0,0.0,0.0,0.0,0.0,0.0,0.0,0.0,0.0,0.0,0.0,0.0,0.0,0.0,0.0,0.0,0.0,0.0,0.0,0.0,0.0,0.0,3.3609,3.2171,2.9563,0.0,0.0,0.0,0.0,0.0,0.0,0.0,0.0,0.0,0.0,0.0,0.0,0.0,0.0,0.0,0.0,0.0,0.0,0.0,0.0,0.0,0.0,0.0,0.0,0.0,0.0,0.0,0.0,0.0,0.0,0.0,0.0,0.0,0.0,0.0,0.0,0.0,0.0,0.0,0.0,0.0,0.0,0.0,0.0,0.0,0.0,0.0,0.0,0.0,0.0,0.0,0.0,0.0,0.0,0.0,0.0,0.0,0.0,0.0,0.0,0.0,0.0,0.0,0.0,0.0,0.0,0.0,0.0,0.0,0.0,0.0,0.0,0.0,0.0,0.0,0.0,0.0,0.0,0.0,0.0,0.0,0.0,0.0,0.0,0.0,0.0,0.0,0.0,0.0,0.0,0.0,0.0,0.0,0.0,0.0,0.0,0.0,0.0,0.0,0.0,0.0,0.0,0.0,0.0,0.0,0.0,0.0,0.0,0.0,0.0,3.3846,3.2564,3.3085,0.0,2.792,0.0,0.0,0.0,0.0,0.0,0.0,0.0,0.0,0.0,0.0,0.0,0.0,0.0,0.0,0.0,0.0,0.0,0.0,0.0,0.0,0.0,0.0,0.0,0.0,0.0,0.0,0.0,0.0,0.0,0.0,0.0,0.0,0.0,0.0,0.0,0.0,0.0,0.0,0.0,0.0,0.0,0.0,0.0,0.0,0.0,0.0,0.0,0.0,0.0,0.0,0.0,0.0,0.0,0.0,0.0,0.0,0.0,0.0,0.0,0.0,0.0,0.0,0.0,0.0,0.0,0.0,0.0,0.0,0.0,0.0,0.0,0.0,0.0,0.0,0.0,0.0,0.0,0.0,0.0,0.0,0.0,0.0,0.0,0.0,0.0,0.0,0.0,0.0,0.0,0.0,0.0,0.0,0.0,0.0,0.0,0.0,0.0,0.0,0.0,0.0,0.0,0.0,0.0,0.0,0.0,0.0,0.0,0.0,0.0,0.0,3.3761,3.3613,3.2205,3.0166,0.0,0.0,0.0,0.0,0.0,0.0,0.0,0.0,0.0,0.0,0.0,0.0,0.0,0.0,0.0,0.0,0.0,0.0,0.0,0.0,0.0,0.0,0.0,0.0,0.0,0.0,0.0,0.0,0.0,0.0,0.0,0.0,0.0,0.0,0.0,0.0,0.0,0.0,0.0,0.0,0.0,0.0,0.0,0.0,0.0,0.0,0.0,0.0,0.0,0.0,0.0,0.0,0.0,0.0,0.0,0.0,0.0,0.0,0.0,0.0,0.0,0.0,0.0,0.0,0.0,0.0,0.0,0.0,0.0,0.0,0.0,0.0,0.0,0.0,0.0,0.0,0.0,0.0,0.0,0.0,0.0,0.0,0.0,0.0,0.0,0.0,0.0,0.0,0.0,0.0,0.0,0.0,0.0,0.0,0.0,0.0,0.0,0.0,0.0,0.0,0.0,0.0,0.0,0.0,0.0,0.0,0.0,0.0,0.0,0.0,3.3643,3.3355,3.3766,3.163,2.9465,2.746,0.0,0.0,0.0,0.0,0.0,0.0,0.0,0.0,0.0,0.0,0.0,0.0,0.0,0.0,0.0,0.0,0.0,0.0,0.0,0.0,0.0,0.0,0.0,0.0,0.0,0.0,0.0,0.0,0.0,0.0,0.0,0.0,0.0,0.0,0.0,0.0,0.0,0.0,0.0,0.0,0.0,0.0,0.0,0.0,0.0,0.0,0.0,0.0,0.0,0.0,0.0,0.0,0.0,0.0,0.0,0.0,0.0,0.0,0.0,0.0,0.0,0.0,0.0,0.0,0.0,0.0,0.0,0.0,0.0,0.0,0.0,0.0,0.0,0.0,0.0,0.0,0.0,0.0,0.0,0.0,0.0,0.0,0.0,0.0,0.0,0.0,0.0,0.0,0.0,0.0,0.0,0.0,0.0,0.0,0.0,0.0,0.0,0.0,0.0,0.0,0.0,0.0,0.0,0.0,0.0,0.0,0.0,0.0,3.253,3.2412,3.2361,3.2395,3.1579,2.9966,0.0,0.0,0.0,0.0,0.0,0.0,0.0,0.0,0.0,0.0,0.0,0.0,0.0,0.0,0.0,0.0,0.0,0.0,0.0,0.0,0.0,0.0,0.0,0.0,0.0,0.0,0.0,0.0,0.0,0.0,0.0,0.0,0.0,0.0,0.0,0.0,0.0,0.0,0.0,0.0,0.0,0.0,0.0,0.0,0.0,0.0,0.0,0.0,0.0,0.0,0.0,0.0,0.0,0.0,0.0,0.0,0.0,0.0,0.0,0.0,0.0,0.0,0.0,0.0,0.0,0.0,0.0,0.0,0.0,0.0,0.0,0.0,0.0,0.0,0.0,0.0,0.0,0.0,0.0,0.0,0.0,0.0,0.0,0.0,0.0,0.0,0.0,0.0,0.0,0.0,0.0,0.0,0.0,0.0,0.0,0.0,0.0,0.0,0.0,0.0,0.0,0.0,0.0,0.0,0.0,0.0,0.0,0.0,0.0,3.3017,3.2547,3.2073,3.1579,3.0431,2.8851,0.0,0.0,0.0,0.0,0.0,0.0,0.0,0.0,0.0,0.0,0.0,0.0,0.0,0.0,0.0,0.0,0.0,0.0,0.0,0.0,0.0,0.0,0.0,0.0,0.0,0.0,0.0,0.0,0.0,0.0,0.0,0.0,0.0,0.0,0.0,0.0,0.0,0.0,0.0,0.0,0.0,0.0,0.0,0.0,0.0,0.0,0.0,0.0,0.0,0.0,0.0,0.0,0.0,0.0,0.0,0.0,0.0,0.0,0.0,0.0,0.0,0.0,0.0,0.0,0.0,0.0,0.0,0.0,0.0,0.0,0.0,0.0,0.0,0.0,0.0,0.0,0.0,0.0,0.0,0.0,0.0,0.0,0.0,0.0,0.0,0.0,0.0,0.0,0.0,0.0,0.0,0.0,0.0,0.0,0.0,0.0,0.0,0.0,0.0,0.0,0.0,0.0,0.0,0.0,0.0,0.0,0.0,0.0,0.0,3.273,0.0,3.1718,3.1173,2.984,2.8345,0.0,0.0,0.0,0.0,0.0,0.0,0.0,0.0,0.0,0.0,0.0,0.0,0.0,0.0,0.0,0.0,0.0,0.0,0.0,0.0,0.0,0.0,0.0,0.0,0.0,0.0,0.0,0.0,0.0,0.0,0.0,0.0,0.0,0.0,0.0,0.0,0.0,0.0,0.0,0.0,0.0,0.0,0.0,0.0,0.0,0.0,0.0,0.0,0.0,0.0,0.0,0.0,0.0,0.0,0.0,0.0,0.0,0.0,0.0,0.0,0.0,0.0,0.0,0.0,0.0,0.0,0.0,0.0,0.0,0.0,0.0,0.0,0.0,0.0,0.0,0.0,0.0,0.0,0.0,0.0,0.0,0.0,0.0,0.0,0.0,0.0,0.0,0.0,0.0,0.0,0.0,0.0,0.0,0.0,0.0,0.0,0.0,0.0,0.0,0.0,0.0,0.0,0.0,0.0,0.0,0.0,0.0,0.0,3.2679,3.1292,3.1224,3.1224,3.1173,2.9932,2.8669,0.0,0.0,0.0,0.0,0.0,0.0,0.0,0.0,0.0,0.0,0.0,0.0,0.0,0.0,0.0,0.0,0.0,0.0,0.0,0.0,0.0,0.0,0.0,0.0,0.0,0.0,0.0,0.0,0.0,0.0,0.0,0.0,0.0,0.0,0.0,0.0,0.0,0.0,0.0,0.0,0.0,0.0,0.0,0.0,0.0,0.0,0.0,0.0,0.0,0.0,0.0,0.0,0.0,0.0,0.0,0.0,0.0,0.0,0.0,0.0,0.0,0.0,0.0,0.0,0.0,0.0,0.0,0.0,0.0,0.0,0.0,0.0,0.0,0.0,0.0,0.0,0.0,0.0,0.0,0.0,0.0,0.0,0.0,0.0,0.0,0.0,0.0,0.0,0.0,0.0,0.0,0.0,0.0,0.0,0.0,0.0,0.0,0.0,0.0,0.0,0.0,0.0,0.0,0.0,0.0,0.0,0.0,0.0,0.0,3.1207,3.119,3.119,3.1157,2.9462,2.7964,0.0,0.0,0.0,0.0,0.0,0.0,0.0,0.0,0.0,0.0,0.0,0.0,0.0,0.0,0.0,0.0,0.0,0.0,0.0,0.0,0.0,0.0,0.0,0.0,0.0,0.0,0.0,0.0,0.0,0.0,0.0,0.0,0.0,0.0,0.0,0.0,0.0,0.0,0.0,0.0,0.0,0.0,0.0,0.0,0.0,0.0,0.0,0.0,0.0,0.0,0.0,0.0,0.0,0.0,0.0,0.0,0.0,0.0,0.0,0.0,0.0,0.0,0.0,0.0,0.0,0.0,0.0,0.0,0.0,0.0,0.0,0.0,0.0,0.0,0.0,0.0,0.0,0.0,0.0,0.0,0.0,0.0,0.0,0.0,0.0,0.0,0.0,0.0,0.0,0.0,0.0,0.0,0.0,0.0,0.0,0.0,0.0,0.0,0.0,0.0,0.0,0.0,0.0,0.0,0.0,0.0,0.0,0.0,0.0,3.119,3.119,3.1095,3.0858,2.8936,2.7454,2.6443,0.0,0.0,0.0,0.0,0.0,0.0,0.0,0.0,0.0,0.0,0.0,0.0,0.0,0.0,0.0,0.0,0.0,0.0,0.0,0.0,0.0,0.0,0.0,0.0,0.0,0.0,0.0,0.0,0.0,0.0,0.0,0.0,0.0,0.0,0.0,0.0,0.0,0.0,0.0,0.0,0.0,0.0,0.0,0.0,0.0,0.0,0.0,0.0,0.0,0.0,0.0,0.0,0.0,0.0,0.0,0.0,0.0,0.0,0.0,0.0,0.0,0.0,0.0,0.0,0.0,0.0,0.0,0.0,0.0,0.0,0.0,0.0,0.0,0.0,0.0,0.0,0.0,0.0,0.0,0.0,0.0,0.0,0.0,0.0,0.0,0.0,0.0,0.0,0.0,0.0,0.0,0.0,0.0,0.0,0.0,0.0,0.0,0.0,0.0,0.0,0.0,0.0,0.0,0.0,0.0,0.0,0.0,0.0,3.1241,3.1188,3.0861,3.0297,2.8415,2.7148,0.0,0.0,0.0,0.0,0.0,0.0,0.0,0.0,0.0,0.0,0.0,0.0,0.0,0.0,0.0,0.0,0.0,0.0,0.0,0.0,0.0,0.0,0.0,0.0,0.0,0.0,0.0,0.0,0.0,0.0,0.0,0.0,0.0,0.0,0.0,0.0,0.0,0.0,0.0,0.0,0.0,0.0,0.0,0.0,0.0,0.0,0.0,0.0,0.0,0.0,0.0,0.0,0.0,0.0,0.0,0.0,0.0,0.0,0.0,0.0,0.0,0.0,0.0,0.0,0.0,0.0,0.0,0.0,0.0,0.0,0.0,0.0,0.0,0.0,0.0,0.0,0.0,0.0,0.0,0.0,0.0,0.0,0.0,0.0,0.0,0.0,0.0,0.0,0.0,0.0,0.0,0.0,0.0,0.0,0.0,0.0,0.0,0.0,0.0,0.0,0.0,0.0,0.0,0.0,0.0,0.0,0.0,0.0,0.0,3.1935,3.1028,3.0456,3.026,2.8415,2.7349,0.0,0.0,0.0,0.0,0.0,0.0,0.0,0.0,0.0,0.0,0.0,0.0,0.0,0.0,0.0,0.0,0.0,0.0,0.0,0.0,0.0,0.0,0.0,0.0,0.0,0.0,0.0,0.0,0.0,0.0,0.0,0.0,0.0,0.0,0.0,0.0,0.0,0.0,0.0,0.0,0.0,0.0,0.0,0.0,0.0,0.0,0.0,0.0,0.0,0.0,0.0,0.0,0.0,0.0,0.0,0.0,0.0,0.0,0.0,0.0,0.0,0.0,0.0,0.0,0.0,0.0,0.0,0.0,0.0,0.0,0.0,0.0,0.0,0.0,0.0,0.0,0.0,0.0,0.0,0.0,0.0,0.0,0.0,0.0,0.0,0.0,0.0,0.0,0.0,0.0,0.0,0.0,0.0,0.0,0.0,0.0,0.0,0.0,0.0,0.0,0.0,0.0,0.0,0.0,0.0,0.0,0.0,0.0,3.1277,3.1441,3.0696,3.0059,2.954,2.8172,2.7353,0.0,0.0,0.0,0.0,0.0,0.0,0.0,0.0,0.0,0.0,0.0,0.0,0.0,0.0,0.0,0.0,0.0,0.0,0.0,0.0,0.0,0.0,0.0,0.0,0.0,0.0,0.0,0.0,0.0,0.0,0.0,0.0,0.0,0.0,0.0,0.0,0.0,0.0,0.0,0.0,0.0,0.0,0.0,0.0,0.0,0.0,0.0,0.0,0.0,0.0,0.0,0.0,0.0,0.0,0.0,0.0,0.0,0.0,0.0,0.0,0.0,0.0,0.0,0.0,0.0,0.0,0.0,0.0,0.0,0.0,0.0,0.0,0.0,0.0,0.0,0.0,0.0,0.0,0.0,0.0,0.0,0.0,0.0,0.0,0.0,0.0,0.0,0.0,0.0,0.0,0.0,0.0,0.0,0.0,0.0,0.0,0.0,0.0,0.0,0.0,0.0,0.0,0.0,0.0,0.0,0.0,0.0,0.0,3.1066,3.0561,3.046,2.9829,2.8636,2.7884,2.7249,0.0,0.0,0.0,0.0,0.0,0.0,0.0,0.0,0.0,0.0,0.0,0.0,0.0,0.0,0.0,0.0,0.0,0.0,0.0,0.0,0.0,0.0,0.0,0.0,0.0,0.0,0.0,0.0,0.0,0.0,0.0,0.0,0.0,0.0,0.0,0.0,0.0,0.0,0.0,0.0,0.0,0.0,0.0,0.0,0.0,0.0,0.0,0.0,0.0,0.0,0.0,0.0,0.0,0.0,0.0,0.0,0.0,0.0,0.0,0.0,0.0,0.0,0.0,0.0,0.0,0.0,0.0,0.0,0.0,0.0,0.0,0.0,0.0,0.0,0.0,0.0,0.0,0.0,0.0,0.0,0.0,0.0,0.0,0.0,0.0,0.0,0.0,0.0,0.0,0.0,0.0,0.0,0.0,0.0,0.0,0.0,0.0,0.0,0.0,0.0,0.0,0.0,0.0,0.0,0.0,0.0,0.0,0.0,3.2039,3.1945,3.1498,3.0617,2.9317,2.8132,2.7479,0.0,0.0,0.0,0.0,0.0,0.0,0.0,0.0,0.0,0.0,0.0,0.0,0.0,0.0,0.0,0.0,0.0,0.0,0.0,0.0,0.0,0.0,0.0,0.0,0.0,0.0,0.0,0.0,0.0,0.0,0.0,0.0,0.0,0.0,0.0,0.0,0.0,0.0,0.0,0.0,0.0,0.0,0.0,0.0,0.0,0.0,0.0,0.0,2.5527,0.0,0.0,0.0,0.0,0.0,0.0,0.0,0.0,0.0,0.0,0.0,0.0,0.0,0.0,0.0,0.0,0.0,0.0,0.0,0.0,0.0,0.0,0.0,0.0,0.0,0.0,0.0,0.0,0.0,0.0,0.0,0.0,0.0,0.0,0.0,0.0,0.0,0.0,0.0,0.0,0.0,0.0,0.0,0.0,0.0,0.0,0.0,0.0,0.0,0.0,0.0,0.0,0.0,0.0,0.0,0.0,0.0,0.0,0.0,3.2693,3.2428,3.1819,3.102,3.0033,2.8722,2.7874,0.0,0.0,0.0,0.0,0.0,0.0,0.0,0.0,0.0,0.0,0.0,0.0,0.0,0.0,0.0,0.0,0.0,0.0,0.0,0.0,0.0,0.0,0.0,0.0,0.0,0.0,0.0,0.0,0.0,0.0,0.0,0.0,0.0,0.0,0.0,0.0,0.0,0.0,0.0,0.0,0.0,0.0,0.0,0.0,0.0,0.0,0.0,0.0,0.0,0.0,0.0,0.0,0.0,0.0,0.0,0.0,0.0,0.0,0.0,0.0,0.0,0.0,0.0,0.0,0.0,0.0,0.0,0.0,0.0,0.0,0.0,0.0,0.0,0.0,0.0,0.0,0.0,0.0,0.0,0.0,0.0,0.0,0.0,0.0,0.0,0.0,0.0,0.0,0.0,0.0,0.0,0.0,0.0,0.0,0.0,0.0,0.0,0.0,0.0,0.0,0.0,0.0,0.0,0.0,0.0,0.0,0.0,3.3254,3.3264,3.2661,3.2118,3.1489,3.0783,2.9477,2.8427,2.7794,0.0,0.0,0.0,0.0,0.0,0.0,0.0,0.0,0.0,0.0,0.0,0.0,0.0,0.0,0.0,0.0,0.0,0.0,0.0,0.0,0.0,0.0,0.0,0.0,0.0,0.0,0.0,0.0,0.0,0.0,0.0,0.0,0.0,0.0,0.0,0.0,0.0,0.0,2.7547,2.8404,0.0,0.0,0.0,0.0,0.0,0.0,0.0,0.0,2.4256,0.0,0.0,0.0,0.0,0.0,0.0,0.0,0.0,0.0,0.0,0.0,0.0,0.0,0.0,0.0,0.0,0.0,0.0,0.0,0.0,0.0,0.0,0.0,0.0,0.0,0.0,0.0,0.0,0.0,0.0,0.0,0.0,0.0,0.0,0.0,0.0,0.0,0.0,0.0,0.0,0.0,0.0,0.0,0.0,0.0,0.0,0.0,0.0,0.0,0.0,0.0,0.0,0.0,0.0,0.0,0.0,3.4121,3.4252,3.4002,3.3357,3.329,3.2669,3.1461,3.0133,2.9101,2.8457,0.0,0.0,0.0,0.0,0.0,0.0,0.0,0.0,0.0,0.0,0.0,0.0,0.0,0.0,0.0,0.0,0.0,0.0,0.0,0.0,0.0,0.0,0.0,0.0,0.0,0.0,0.0,0.0,0.0,0.0,0.0,0.0,0.0,0.0,0.0,0.0,0.0,0.0,0.0,2.7996,2.8231,0.0,0.0,0.0,0.0,0.0,0.0,0.0,0.0,2.3238,0.0,0.0,0.0,0.0,0.0,0.0,0.0,0.0,0.0,0.0,0.0,0.0,0.0,0.0,0.0,0.0,0.0,0.0,0.0,0.0,0.0,0.0,0.0,0.0,0.0,0.0,0.0,0.0,0.0,0.0,0.0,0.0,0.0,0.0,0.0,0.0,0.0,0.0,0.0,0.0,0.0,0.0,0.0,0.0,0.0,0.0,0.0,0.0,0.0,0.0,0.0,0.0,0.0,0.0,0.0,3.3914,3.4692,3.4908,3.4574,3.3949,3.331,3.2625,3.0666,2.943,0.0,0.0,0.0,0.0,0.0,0.0,0.0,0.0,0.0,0.0,0.0,0.0,0.0,0.0,0.0,0.0,0.0,0.0,0.0,0.0,0.0,0.0,0.0,0.0,0.0,0.0,0.0,0.0,0.0,0.0,0.0,0.0,0.0,0.0,0.0,0.0,0.0,0.0,0.0,0.0,2.8155,2.8211,2.7691,0.0,0.0,0.0,0.0,0.0,0.0,2.3122,2.2982,0.0,0.0,0.0,0.0,0.0,0.0,0.0,0.0,0.0,0.0,0.0,0.0,0.0,0.0,0.0,0.0,0.0,0.0,0.0,0.0,0.0,0.0,0.0,0.0,0.0,0.0,0.0,0.0,0.0,0.0,0.0,0.0,0.0,0.0,0.0,0.0,0.0,0.0,0.0,0.0,0.0,0.0,0.0,0.0,0.0,0.0,0.0,0.0,0.0,0.0,0.0,0.0,0.0,0.0,0.0,3.366,3.4923,3.5616,3.5554,3.4301,3.3608,3.3566,3.099,2.9621,0.0,0.0,0.0,0.0,0.0,0.0,0.0,0.0,0.0,0.0,0.0,0.0,0.0,0.0,0.0,0.0,0.0,0.0,0.0,0.0,0.0,0.0,0.0,0.0,0.0,0.0,0.0,0.0,0.0,0.0,0.0,0.0,0.0,0.0,0.0,0.0,0.0,0.0,0.0,0.0,0.0,2.8213,2.7632,2.6829,0.0,0.0,0.0,0.0,2.3688,2.3435,0.0,0.0,0.0,0.0,0.0,0.0,0.0,0.0,0.0,0.0,0.0,0.0,0.0,0.0,0.0,0.0,0.0,0.0,0.0,0.0,0.0,0.0,0.0,0.0,0.0,0.0,0.0,0.0,0.0,0.0,0.0,0.0,0.0,0.0,0.0,0.0,0.0,0.0,0.0,0.0,0.0,0.0,0.0,0.0,0.0,0.0,0.0,0.0,0.0,0.0,0.0,0.0,0.0,0.0,0.0,0.0,3.437,3.5182,3.5616,3.5554,3.4301,3.3608,3.3566,3.1006,2.9621,0.0,0.0,0.0,0.0,0.0,0.0,0.0,0.0,0.0,0.0,0.0,0.0,0.0,0.0,0.0,0.0,0.0,0.0,0.0,0.0,0.0,0.0,0.0,0.0,0.0,0.0,0.0,0.0,0.0,0.0,0.0,0.0,0.0,0.0,0.0,0.0,0.0,0.0,0.0,0.0,0.0,2.7917,2.6579,2.6539,2.6182,0.0,0.0,2.6118,2.4806,2.4322,0.0,0.0,0.0,0.0,0.0,0.0,0.0,0.0,0.0,0.0,0.0,0.0,0.0,0.0,0.0,0.0,0.0,0.0,0.0,0.0,0.0,0.0,0.0,0.0,0.0,0.0,0.0,0.0,0.0,0.0,0.0,0.0,0.0,0.0,0.0,0.0,0.0,0.0,0.0,0.0,0.0,0.0,0.0,0.0,0.0,0.0,0.0,0.0,0.0,0.0,0.0,0.0,0.0,0.0,0.0,3.3558,3.3897,3.5008,3.5424,3.5028,3.4087,3.3417,3.3039,3.0796,2.9442,0.0,0.0,0.0,0.0,0.0,0.0,0.0,0.0,0.0,0.0,0.0,0.0,0.0,0.0,0.0,0.0,0.0,0.0,0.0,0.0,0.0,0.0,0.0,0.0,0.0,0.0,0.0,0.0,0.0,0.0,0.0,0.0,0.0,0.0,0.0,0.0,0.0,0.0,0.0,0.0,0.0,0.0,2.692,2.6408,0.0,0.0,0.0,2.5698,2.4627,0.0,0.0,0.0,0.0,0.0,0.0,0.0,0.0,0.0,0.0,0.0,0.0,0.0,0.0,0.0,0.0,0.0,0.0,0.0,0.0,0.0,0.0,0.0,0.0,0.0,0.0,0.0,0.0,0.0,0.0,0.0,0.0,0.0,0.0,0.0,0.0,0.0,0.0,0.0,0.0,0.0,0.0,0.0,0.0,0.0,0.0,0.0,0.0,0.0,0.0,0.0,0.0,0.0,0.0,0.0,0.0,0.0,3.3423,3.4839,3.5253,3.46,3.3921,3.3303,3.2598,3.0649,0.0,0.0,0.0,0.0,0.0,0.0,0.0,0.0,0.0,0.0,0.0,0.0,0.0,0.0,0.0,0.0,0.0,0.0,0.0,0.0,0.0,0.0,0.0,0.0,0.0,0.0,0.0,2.3017,0.0,0.0,0.0,0.0,0.0,0.0,0.0,0.0,0.0,0.0,0.0,0.0,0.0,0.0,2.7353,2.7181,2.6412,2.6016,0.0,0.0,2.5412,2.4583,2.4327,2.3679,0.0,0.0,0.0,0.0,0.0,0.0,0.0,0.0,0.0,0.0,0.0,0.0,0.0,0.0,0.0,0.0,0.0,0.0,0.0,0.0,0.0,0.0,0.0,0.0,0.0,0.0,0.0,0.0,0.0,0.0,0.0,0.0,0.0,0.0,0.0,0.0,0.0,0.0,0.0,0.0,0.0,0.0,0.0,0.0,0.0,0.0,0.0,0.0,0.0,0.0,0.0,0.0,0.0,0.0,3.3389,3.3457,3.4839,3.527,3.4616,3.3937,3.3287,3.2598,3.0649,2.9292,0.0,0.0,0.0,0.0,0.0,0.0,0.0,0.0,0.0,0.0,0.0,0.0,0.0,0.0,0.0,0.0,0.0,0.0,0.0,0.0,0.0,0.0,0.0,0.0,0.0,0.0,0.0,0.0,0.0,0.0,0.0,0.0,0.0,0.0,0.0,0.0,0.0,0.0,0.0,0.0,0.0,2.7521,2.6826,2.6674,2.6505,0.0,2.6016,2.577,2.5233,2.4713,2.3767,2.1987,0.0,0.0,0.0,0.0,0.0,0.0,0.0,0.0,0.0,0.0,0.0,0.0,0.0,0.0,0.0,0.0,0.0,0.0,0.0,0.0,0.0,0.0,0.0,0.0,0.0,0.0,0.0,0.0,0.0,0.0,0.0,0.0,0.0,0.0,0.0,0.0,0.0,0.0,0.0,0.0,0.0,0.0,0.0,0.0,0.0,0.0,0.0,0.0,0.0,0.0,0.0,0.0,0.0,3.3626,3.4083,3.5098,3.5292,3.467,3.396,3.3061,3.1951,3.0418,2.9097,0.0,0.0,0.0,0.0,0.0,0.0,0.0,0.0,0.0,0.0,0.0,0.0,0.0,0.0,0.0,0.0,0.0,0.0,0.0,0.0,0.0,0.0,0.0,0.0,0.0,0.0,0.0,0.0,2.5311,2.5663,2.6507,0.0,0.0,0.0,0.0,0.0,0.0,0.0,0.0,0.0,0.0,2.7352,2.7366,2.7473,0.0,0.0,2.6655,2.6411,2.5475,2.4847,2.3842,2.1982,2.1383,0.0,0.0,0.0,0.0,0.0,0.0,0.0,0.0,0.0,0.0,0.0,0.0,0.0,0.0,0.0,0.0,0.0,0.0,0.0,0.0,0.0,0.0,0.0,0.0,0.0,0.0,0.0,0.0,0.0,0.0,0.0,0.0,0.0,0.0,0.0,0.0,0.0,0.0,0.0,0.0,0.0,0.0,0.0,0.0,0.0,0.0,0.0,0.0,0.0,0.0,0.0,0.0,3.41,3.4827,3.5553,3.5522,3.4733,3.3948,3.2921,3.1523,3.0268,2.9067,0.0,0.0,0.0,0.0,0.0,0.0,0.0,0.0,0.0,0.0,0.0,0.0,0.0,0.0,0.0,0.0,0.0,0.0,0.0,0.0,0.0,0.0,0.0,0.0,0.0,0.0,0.0,0.0,2.6031,2.6275,2.6852,0.0,0.0,0.0,0.0,0.0,0.0,0.0,0.0,0.0,0.0,2.7526,2.7858,2.803,2.7797,2.6884,2.6887,2.652,2.5317,2.4761,2.3739,2.1462,0.0,0.0,0.0,0.0,0.0,0.0,0.0,0.0,0.0,0.0,0.0,0.0,0.0,0.0,0.0,0.0,0.0,0.0,0.0,0.0,0.0,0.0,0.0,0.0,0.0,0.0,0.0,3.5583,0.0,0.0,3.5464,0.0,0.0,0.0,0.0,0.0,0.0,0.0,0.0,0.0,0.0,0.0,0.0,0.0,0.0,0.0,0.0,0.0,0.0,0.0,0.0,0.0,0.0,3.4822,3.5583,3.6273,3.6023,3.4712,3.3905,3.2872,3.1524,3.0283,2.9265,2.8532,0.0,0.0,0.0,0.0,0.0,0.0,0.0,0.0,0.0,0.0,0.0,0.0,0.0,0.0,0.0,0.0,0.0,0.0,0.0,0.0,0.0,0.0,0.0,0.0,0.0,0.0,2.5609,2.5609,2.5715,0.0,0.0,0.0,0.0,0.0,0.0,0.0,0.0,0.0,2.7899,2.8079,2.8096,2.8079,2.8112,2.7709,2.6604,2.6437,2.5978,2.4747,2.4503,2.3417,0.0,0.0,0.0,0.0,0.0,0.0,0.0,0.0,0.0,0.0,0.0,0.0,0.0,0.0,0.0,0.0,0.0,0.0,0.0,0.0,0.0,0.0,0.0,0.0,0.0,0.0,0.0,3.7601,3.7138,0.0,0.0,0.0,0.0,0.0,0.0,0.0,0.0,0.0,0.0,0.0,3.1839,3.1629,0.0,0.0,0.0,0.0,0.0,0.0,0.0,0.0,0.0,0.0,0.0,0.0,3.4918,3.5593,3.6323,3.6048,3.4741,3.3923,3.2859,3.1539,3.0672,2.9265,2.732,0.0,0.0,0.0,0.0,0.0,0.0,0.0,0.0,0.0,0.0,0.0,0.0,0.0,0.0,0.0,0.0,0.0,0.0,0.0,0.0,0.0,0.0,0.0,0.0,0.0,2.5722,0.0,0.0,0.0,0.0,0.0,0.0,0.0,0.0,0.0,0.0,2.5533,2.6262,2.7519,2.7702,2.7832,2.8173,2.8311,2.8032,0.0,0.0,0.0,0.0,0.0,0.0,0.0,0.0,0.0,0.0,0.0,0.0,0.0,0.0,1.836,1.7915,1.7033,1.6344,1.6344,0.0,0.0,0.0,0.0,0.0,0.0,0.0,0.0,0.0,0.0,0.0,0.0,0.0,0.0,3.8734,3.8311,3.8294,0.0,0.0,0.0,0.0,0.0,0.0,0.0,0.0,3.4318,3.3664,3.3858,3.3425,3.2976,0.0,3.2527,3.2003,0.0,0.0,0.0,0.0,0.0,0.0,0.0,0.0,3.4944,3.5642,3.6298,3.6135,3.5029,3.4015,3.2982,3.1884,3.0761,2.916,2.7016,2.5884,2.4874,0.0,0.0,0.0,0.0,0.0,0.0,0.0,0.0,0.0,0.0,0.0,0.0,0.0,0.0,0.0,0.0,0.0,0.0,0.0,0.0,0.0,0.0,0.0,2.5929,0.0,0.0,0.0,0.0,0.0,0.0,0.0,0.0,0.0,2.5345,2.5666,2.6497,2.7991,2.8209,2.8334,2.8658,0.0,0.0,0.0,0.0,0.0,0.0,0.0,2.2624,2.1039,1.9849,1.8897,1.8255,1.8255,1.8312,1.8159,0.0,0.0,1.7226,1.6407,1.5736,1.5402,1.4938,1.444,1.3937,1.4123,1.4267,0.0,0.0,0.0,0.0,0.0,0.0,0.0,0.0,3.9901,3.9292,0.0,3.9208,0.0,0.0,0.0,0.0,3.687,3.6727,0.0,0.0,3.5859,3.5908,3.6357,3.5207,3.4608,3.4593,3.4578,3.4219,3.3455,3.1599,0.0,0.0,0.0,0.0,0.0,0.0,3.4984,3.5703,3.6303,3.6274,3.5533,3.4213,3.3155,3.2437,3.0627,2.9022,2.769,2.6986,2.601,2.4693,2.4604,0.0,0.0,0.0,0.0,0.0,0.0,0.0,0.0,0.0,0.0,0.0,0.0,0.0,0.0,0.0,0.0,0.0,0.0,0.0,0.0,2.6149,0.0,0.0,0.0,0.0,0.0,0.0,0.0,0.0,0.0,2.7345,2.6746,2.6707,2.7387,2.9231,0.0,0.0,0.0,0.0,2.9035,2.778,2.6959,2.6231,2.5481,2.4726,2.322,2.0423,0.0,0.0,1.7102,1.7119,1.7468,1.7402,1.7792,1.7681,1.6773,1.6272,1.5677,1.4858,1.5005,1.5269,1.5248,1.5016,1.5142,4.2996,0.0,0.0,0.0,0.0,4.2794,4.3217,4.4384,4.3978,4.3149,4.2151,4.2151,0.0,0.0,0.0,0.0,0.0,0.0,3.753,3.7959,3.7204,3.6956,3.712,3.6746,3.6582,3.6552,3.6133,3.5564,3.4906,3.3858,3.2781,3.1719,0.0,0.0,0.0,0.0,3.5404,3.558,3.6256,3.603,3.4817,3.3937,3.2961,3.1809,3.0791,2.9639,2.8338,2.7675,2.6677,2.5373,2.4874,0.0,0.0,0.0,0.0,0.0,0.0,0.0,0.0,0.0,0.0,0.0,0.0,0.0,0.0,0.0,0.0,0.0,0.0,0.0,2.5597,2.4893,2.4762,0.0,0.0,0.0,0.0,0.0,0.0,0.0,0.0,0.0,2.7993,2.8442,2.894,0.0,0.0,2.9573,2.9558,2.9584,2.9105,2.7732,2.6885,0.0,2.4805,2.3621,2.2332,2.0648,1.936,1.822,1.7363,1.7549,1.7832,1.7822,1.793,1.7681,1.681,1.6477,1.6292,1.6033,1.561,1.5172,1.4951,1.523,1.5604,4.5417,4.582,4.4044,4.375,4.4403,4.3968,4.447,4.5587,4.566,4.5196,4.4305,4.4305,4.3081,4.0933,4.0301,0.0,0.0,0.0,3.8152,3.8513,3.8019,3.7958,3.8182,3.7928,3.7793,3.7778,3.715,3.6656,3.6252,3.5833,3.5115,3.4098,0.0,3.3517,3.3553,3.4606,3.5141,3.5141,3.5782,3.5746,3.4923,3.3978,3.2991,3.1929,3.1016,3.0133,2.9385,2.8753,2.7779,2.6452,2.6019,2.5411,0.0,0.0,0.0,0.0,0.0,0.0,0.0,0.0,0.0,0.0,0.0,2.6545,2.614,0.0,0.0,0.0,2.5007,2.5025,2.5292,2.47,0.0,0.0,0.0,0.0,0.0,0.0,0.0,2.769,2.8361,2.8891,2.931,2.9924,3.0253,2.9983,2.9953,2.9953,2.9953,0.0,2.9078,2.7977,2.672,2.5608,2.4747,2.3491,2.2157,2.079,1.9144,1.7964,1.7705,1.7852,1.7998,1.8008,1.8008,1.7828,1.7251,1.7182,1.6853,1.6219,1.5895,1.5713,1.5489,1.6031,1.6515,4.7207,4.7813,4.4691,4.3899,4.4695,4.4693,4.5102,4.5772,4.5988,4.5991,4.5872,4.5889,4.4643,4.2456,4.0933,0.0,3.8919,3.8837,3.8757,3.8556,3.8556,3.8856,3.9379,3.8766,3.8482,3.8452,3.7793,3.7479,3.7479,3.7419,3.709,3.648,3.4637,3.3709,3.3694,3.4339,3.4638,3.4608,3.519,3.5474,3.54,3.4158,3.3185,3.2512,3.1255,3.0567,3.0492,2.9953,2.9082,2.7839,2.7705,2.6773,2.4875,0.0,0.0,0.0,0.0,0.0,0.0,0.0,0.0,0.0,0.0,0.0,0.0,0.0,0.0,2.5263,2.4685,0.0,2.5204,2.5231,0.0,0.0,0.0,2.5187,2.5243,2.6525,2.7594,2.8154,0.0,0.0,3.0507,3.1077,3.1243,3.0572,3.0526,3.0554,3.0498,2.9842,2.9087,2.8225,2.6512,2.5252,2.4913,2.376,2.2366,2.0835,1.9199,1.8168,1.8022,1.7998,1.8008,1.8008,1.8008,1.8008,1.8008,1.794,1.7476,1.5834,1.614,1.6697,1.6704,1.7062,1.7616,4.7114,4.7676,4.6369,4.6841,4.8362,4.7802,4.8099,4.8974,4.9041,4.8426,4.7411,4.7394,4.6378,4.4608,4.3571,4.2611,4.1685,4.1055,4.0452,3.9933,3.9933,3.9738,3.9424,3.926,3.917,3.9125,3.8482,3.8153,3.8138,3.7659,3.709,3.6507,3.5998,3.5519,3.507,3.5669,3.5759,3.5265,3.5415,3.5265,3.4726,3.3918,3.3185,3.2527,3.169,3.1017,3.0537,3.0357,2.9924,2.9157,2.8637,2.7838,2.6693,2.581,0.0,0.0,0.0,0.0,0.0,0.0,0.0,0.0,0.0,2.6955,2.4893,0.0,2.5845,0.0,2.4285,2.461,2.5679,2.5399,0.0,0.0,2.6548,2.6312,2.5788,2.7109,2.7912,2.7504,2.9231,3.0492,3.0492,3.1077,3.1233,3.0499,3.088,3.104,3.044,3.0188,2.9387,2.7625,2.6805,2.5934,2.4497,2.3078,2.1846,2.0751,1.9694,1.8777,1.81,1.8008,1.8008,1.8008,1.8008,1.8008,1.8008,1.8008,1.7872,1.7442,1.751,1.7647,1.7681,1.7775,1.8111,4.72,4.7463,4.7139,4.7893,4.9245,4.8706,4.8777,4.9341,4.9883,4.9627,4.8801,4.774,4.6561,4.526,4.4034,4.3,4.2108,4.1633,4.1175,4.0846,4.0831,4.0636,4.0292,3.9993,3.9858,3.9828,3.917,3.8841,3.8826,3.8482,3.8123,3.7793,3.7793,3.7449,3.6791,3.6297,3.5878,3.5504,3.5489,3.5325,3.4936,3.4277,3.3619,3.2961,3.2288,3.163,3.0972,3.0943,3.0672,3.0013,2.9385,2.8498,2.7315,2.6414,2.552,0.0,0.0,0.0,0.0,0.0,0.0,0.0,0.0,0.0,0.0,0.0,2.5491,2.4578,2.4452,2.4796,2.573,2.553,2.5597,2.6311,2.662,2.6527,2.5833,2.7462,2.8463,2.8069,2.9726,3.0814,3.0468,3.0734,3.0644,2.9844,3.0117,3.0238,2.9782,2.9411,2.8657,2.7463,2.6713,2.5826,2.4217,2.2474,2.1175,2.0623,1.9562,1.8563,1.811,1.8008,1.8008,1.8008,1.8008,1.8008,1.8008,1.8008,1.8008,1.8008,1.8008,1.8008,1.8008,1.8303,1.8811,4.7309,4.7309,4.7309,4.7807,4.8569,4.8345,4.8392,4.8695,4.966,4.9993,4.9792,4.7488,4.5974,4.5056,4.3622,4.2478,4.1662,4.1662,4.1594,4.1519,4.1504,4.1383,4.1135,4.0584,4.0203,4.0046,3.9624,3.9371,3.9326,3.9471,3.9454,3.929,3.929,3.8945,3.8212,3.6596,3.5669,3.5504,3.5594,3.5579,3.5504,3.4831,3.4126,3.3376,3.269,3.1976,3.122,3.119,3.0909,3.0316,2.9811,2.8841,2.734,2.6708,2.598,0.0,2.5058,0.0,0.0,0.0,0.0,0.0,0.0,0.0,0.0,2.5211,2.5177,2.4992,2.4989,2.5247,2.5762,2.5749,2.5737,2.5812,2.6223,2.6285,2.5854,2.7666,2.8989,2.8989,3.0389,3.1058,3.0405,3.0238,2.9797,2.9002,2.8876,2.883,2.862,2.8182,2.7756,2.7584,2.6427,2.537,2.436,2.2568,2.1289,2.0933,1.9755,1.8417,1.8378,1.8159,1.8008,1.8008,1.8008,1.8008,1.8008,1.8008,1.8008,1.8008,1.8008,1.8008,1.8076,1.8654,1.9562,4.7309,4.7309,4.7309,4.7424,4.7591,4.7827,4.8831,5.0307,4.9984,4.9508,4.8845,4.7062,4.575,4.4876,4.4545,4.3876,4.297,4.2916,4.2671,4.2231,4.2216,4.1385,3.9967,3.9812,3.929,3.8443,3.9161,3.9305,3.8837,3.9765,3.9664,3.8616,3.8586,3.8257,3.7614,0.0,0.0,0.0,3.6028,3.6043,3.5504,3.4863,3.3845,3.2504,3.1803,0.0,2.9546,2.9473,2.9417,2.9305,2.9178,0.0,0.0,0.0,0.0,0.0,0.0,0.0,0.0,0.0,0.0,0.0,2.5858,2.5591,2.5034,2.5283,2.5504,2.5469,2.5866,2.6399,2.6892,2.66,2.6499,2.6904,2.67,2.6449,2.6404,2.7933,2.8989,2.902,2.9919,3.0464,3.0267,2.9704,2.8953,2.8117,2.7953,2.767,2.7108,2.7417,2.7451,2.6799,2.6085,2.5548,2.5322,2.4471,2.3413,2.2991,2.1752,2.0518,1.9732,1.8692,1.8018,1.8027,1.8008,1.8008,1.8018,1.8008,1.8008,1.8008,1.8018,1.8008,1.8042,1.8687,1.9562,4.7309,4.7309,4.7309,4.7309,0.0,4.7122,4.8109,4.9773,4.9285,4.8657,4.7886,4.6537,4.5509,4.479,4.4297,4.3771,4.3305,4.3305,4.2857,4.2023,4.2023,4.1213,3.9717,3.9408,3.8963,3.8434,3.9187,3.9423,3.9186,3.9993,4.0053,3.9379,3.9065,3.8721,3.8422,3.8407,3.7614,3.5998,3.6312,3.5933,3.4806,3.4435,3.3496,3.1975,3.1584,0.0,0.0,0.0,0.0,0.0,0.0,0.0,0.0,0.0,0.0,2.6187,2.5869,2.5751,2.5813,2.6075,2.6231,2.6206,2.6668,2.6596,2.5743,2.638,2.6829,2.6841,2.7105,2.7381,2.7632,2.7444,2.7417,2.7632,2.7228,2.7002,2.7321,2.8161,2.8851,2.9206,2.9933,3.0209,2.949,2.9062,2.8299,2.7302,2.7108,2.6998,2.6624,2.685,2.6905,2.6543,2.5963,2.5598,2.5515,2.474,2.4099,2.3421,2.2162,2.1063,2.0535,1.9247,1.832,1.8301,1.813,1.8066,1.8227,1.813,1.8076,1.8227,1.8286,1.8198,1.81,1.8687,1.9398,4.7309,4.7309,4.7309,4.7309,4.7264,4.6563,4.7023,4.8163,4.8078,0.0,0.0,4.581,4.5018,4.4488,4.3669,4.3305,4.3305,4.3076,4.2508,4.1601,4.1364,4.0703,3.9552,3.9002,3.864,3.8483,3.9283,3.9572,3.9524,4.0344,4.0621,4.0382,3.9858,3.9508,3.9388,3.9388,3.8465,3.6658,3.6435,3.5697,3.4214,3.3899,3.2994,3.1445,3.1361,3.1005,3.018,2.9727,2.9503,2.9476,2.8568,2.7962,2.7766,2.7248,2.6876,2.6807,2.6788,2.654,2.6088,2.6524,2.6788,2.6788,2.7682,2.7833,2.6864,2.7582,2.8109,2.8109,2.8109,2.8147,2.8235,2.8147,2.8147,2.8235,2.7758,2.762,2.802,2.8427,2.8897,2.9381,2.9927,2.9977,2.8915,2.8554,2.8015,2.6983,2.687,2.6738,2.6637,2.6609,2.6555,2.6449,2.6122,2.5808,2.5632,2.4969,2.4013,2.3825,2.2386,2.1154,2.0736,1.9702,1.8821,1.8568,1.8389,1.8398,1.8529,1.8422,1.8325,1.8646,1.8705,1.8617,1.8365,1.8795,1.9295,4.7309,4.7309,4.7309,4.7309,4.7249,4.6606,4.6122,4.586,4.6746,4.7021,4.6773,4.4613,4.3587,4.3512,4.3369,4.3305,4.325,4.229,4.1753,4.1545,4.0575,3.9492,3.8366,3.8241,3.7697,3.6988,3.8834,3.9574,3.9285,4.1105,4.1572,4.0531,4.0292,3.9978,3.9433,3.9388,3.8514,3.6787,3.6323,3.5693,3.4883,3.3508,3.2083,3.0677,3.0578,2.9905,2.8497,2.8407,2.832,2.832,2.8181,2.8071,2.8026,2.7938,2.7891,2.7871,2.7858,2.7833,2.7758,2.7833,2.7871,2.7896,2.8461,2.8549,2.7946,2.8009,2.8109,2.8122,2.8172,2.8298,2.8675,2.8423,2.836,2.8712,2.8323,2.8034,2.816,2.8753,2.928,2.9425,2.95,2.957,2.9232,2.8617,2.7974,2.7452,2.7457,2.767,2.7241,2.6788,2.6524,2.6487,2.6436,2.6373,2.6251,2.6242,2.5588,2.4896,2.3523,2.2188,2.1443,2.0147,1.9138,1.8695,1.8867,1.8936,1.8744,1.8926,1.9043,1.917,1.9189,1.9141,1.8951,1.903,1.9133,4.7623,4.7324,4.7309,4.7309,4.7279,4.698,4.6666,4.6394,4.6505,4.6158,4.5403,4.4309,4.3633,4.3305,4.3305,4.2941,4.233,4.1835,4.0887,3.9727,3.9183,3.8302,3.7243,3.7196,3.6883,3.6581,3.8796,3.9747,3.9672,4.1434,4.2096,4.1391,4.0199,3.9191,3.8553,3.7965,3.7249,3.6493,3.6462,3.5577,3.3853,3.282,3.171,3.0534,3.0226,2.9769,2.9064,2.8725,2.8549,2.8512,2.8236,2.8109,2.8073,2.7533,2.7224,2.7224,2.7236,2.7236,2.7236,2.804,2.8687,2.9001,2.9252,2.9302,2.9051,2.9026,2.9026,2.9026,2.9026,2.9114,2.9365,2.9176,2.9126,2.9365,2.8888,2.8687,2.895,2.9021,2.9265,2.9534,2.9611,2.9495,2.9175,2.8795,2.8335,2.7871,2.7984,2.7984,2.7758,2.7304,2.6813,2.6562,2.6487,2.6487,2.6487,2.6487,2.606,2.5158,2.4008,2.2911,2.1877,2.0555,1.9654,1.9365,1.9336,1.9307,1.9258,1.9277,1.9385,1.96,1.9629,1.9422,1.8721,1.7871,1.7704,4.7982,4.7519,4.7354,4.7309,4.7309,4.7309,4.7219,4.704,4.6516,4.5648,4.4616,4.4377,4.3902,4.3334,4.3036,4.2426,4.1643,4.1028,3.9858,3.8198,3.7848,3.7243,3.6452,3.6417,3.6417,3.6628,3.8527,3.9492,3.9656,4.1071,4.1739,4.138,3.9477,3.8157,3.7662,3.6688,3.6093,3.5907,3.6182,3.5269,3.3106,3.2267,3.1499,3.0826,3.0256,2.9967,2.9955,2.944,2.9088,2.9101,2.8712,2.8362,2.8089,2.7312,2.688,2.688,2.6842,2.6969,2.7272,2.8372,2.9315,2.9741,2.9779,2.9779,2.9792,2.9917,2.9917,2.9817,2.9741,2.9754,2.9754,2.9767,2.9779,2.9754,2.9402,2.9289,2.9654,2.9377,2.9277,2.9716,2.9779,2.9591,2.9252,2.9088,2.8963,2.8624,2.8285,2.8147,2.8197,2.7833,2.7304,2.6839,2.66,2.6361,2.628,2.6129,2.5581,2.46,2.3661,2.2658,2.1717,2.0691,2.0085,1.9893,1.9746,1.9687,1.9853,1.9775,1.9644,1.9649,1.9564,1.9193,1.7943,1.6987,1.6433,4.8267,4.8102,4.7578,4.7309,4.7309,4.7309,4.6995,4.6486,4.6352,4.5918,4.5185,4.4586,4.3947,4.3215,4.2293,4.1742,4.138,3.9376,3.8347,3.7997,3.701,3.6487,3.6405,3.6417,3.6417,3.6546,3.7723,3.8379,3.8424,3.9598,3.9856,3.9144,3.7909,3.7258,3.7079,3.6488,3.5748,3.4869,3.4898,3.4525,3.3687,3.2241,3.1379,3.1311,3.0809,3.0545,3.0507,3.0005,2.9716,2.9716,2.9628,2.9165,2.8218,2.7981,2.7941,2.7878,2.7929,2.8373,2.9346,2.9653,2.9754,2.9779,2.9842,2.9842,2.9867,3.0256,3.0319,2.9967,2.9817,2.9867,2.9792,2.9842,2.9892,2.993,2.9792,2.9741,2.9792,2.9741,2.9741,2.9767,2.9779,2.9767,2.9654,2.9641,2.9641,2.9478,2.8775,2.8448,2.8687,2.8386,2.7798,2.7283,2.6841,2.6134,2.55,2.5158,2.4409,2.284,2.2291,2.1811,2.1125,2.073,2.04,2.0117,2.0195,2.0282,2.0117,2.0146,2.0033,1.9286,1.9028,1.866,1.7637,1.6934,1.6775,4.9209,4.885,4.8162,4.7653,4.7339,4.7309,4.716,4.6905,4.6905,4.6516,4.5791,4.4785,4.3988,4.3332,4.2838,4.1905,4.0458,3.9181,3.8219,3.7565,3.6745,3.6417,3.6417,3.6417,3.6417,3.6499,3.7553,3.8107,3.8289,3.9316,3.9581,3.8846,3.7758,3.6878,3.6149,3.5284,3.4474,3.3768,3.3742,3.3639,3.3315,3.2402,3.1876,3.1825,3.1361,3.0909,3.0633,3.0394,3.0131,2.9829,2.9779,2.9287,2.8176,2.7493,2.7168,2.7209,2.7763,2.8742,3.0177,3.0269,3.0419,3.0708,3.0733,3.0733,3.0746,3.0947,3.0959,3.0783,3.0733,3.0746,3.0733,3.0733,3.0746,3.0696,3.047,3.0281,3.0281,2.9993,2.9779,2.9779,2.9779,2.9779,2.9779,2.9779,2.9779,2.9767,2.9315,2.9189,2.9365,2.895,2.8226,2.7457,2.6833,2.6118,2.5159,2.4445,2.3514,2.244,2.2,2.1659,2.0857,2.0605,2.0527,2.0303,2.0488,2.0546,2.039,1.9839,1.9441,1.8749,1.7609,1.6879,1.6437,1.5718,1.5091,4.9972,4.9449,4.8641,4.8012,4.7563,4.7384,4.7309,4.7309,4.7309,4.7025,4.6478,4.5244,4.4215,4.3401,4.2735,4.1407,3.9831,3.8846,3.7985,3.722,3.6656,3.6417,3.6417,3.6417,3.6417,3.6546,3.7196,3.7632,3.7723,3.8482,3.8688,3.8134,3.7284,3.6369,3.547,3.4426,3.3709,3.3332,3.3212,3.3124,3.3061,3.2667,3.2453,3.2403,3.1913,3.1436,3.1072,3.0909,3.0583,3.0068,3.0156,2.9475,2.7946,2.7543,2.7428,2.75,2.8402,2.9523,3.0756,3.0834,3.0997,3.1336,3.1386,3.1386,3.1411,3.1524,3.1612,3.1612,3.175,3.1763,3.1399,3.1386,3.1386,3.1361,3.1022,3.0821,3.0809,3.0344,3.0043,3.0018,2.9905,2.9779,2.9779,2.9779,2.9779,2.9779,2.9779,2.9611,2.938,2.8878,2.8224,2.7062,2.6271,2.5451,2.4556,2.3798,2.2837,2.2,2.1555,2.1298,2.0712,2.0644,2.0615,2.0488,2.0576,2.0352,1.9925,1.9335,1.8519,1.7859,1.6675,1.5421,1.5262,1.4372,1.3919,5.0181,4.9956,4.8835,4.8297,4.8192,4.7593,4.7324,4.7309,4.7309,4.7264,4.6929,4.5796,4.4617,4.3269,4.1153,3.9949,3.9598,3.8089,3.7331,3.7136,3.6621,3.6417,3.6417,3.6417,3.6417,3.6417,3.6597,3.6619,3.6581,3.6581,3.6534,3.6518,3.605,3.5621,3.5344,3.4494,3.3909,3.3822,3.3395,3.3149,3.3136,3.3099,3.3036,3.2943,3.2478,3.2152,3.2039,3.1612,3.111,3.0595,3.0997,3.006,2.7733,2.8698,2.9504,2.9642,3.0593,3.1204,3.1336,3.1373,3.1399,3.1449,3.1565,3.1436,3.1574,3.1938,3.2164,3.2177,3.2591,3.2491,3.1687,3.1599,3.1537,3.1512,3.1424,3.1373,3.1361,3.0896,3.062,3.0468,3.0088,2.9722,2.9739,2.9779,2.9571,2.9559,2.9663,2.9326,2.8386,2.8128,2.7385,2.6102,2.5033,2.4013,2.3047,2.2826,2.2183,2.1435,2.1083,2.0654,2.0644,2.0615,2.0527,2.0411,2.0157,1.9756,1.9283,1.8559,1.7617,1.6683,1.547,1.4496,1.4573,1.4286,1.3975,5.0569,5.0166,4.9733,4.9075,4.8282,4.8027,4.7698,4.7324,4.7309,4.6829,4.5958,4.4734,4.3504,4.2204,4.0517,3.9559,3.9113,3.7796,3.7186,3.7111,3.6669,3.6417,3.6443,3.6744,3.6684,3.6493,3.6769,3.6744,3.643,3.6417,3.6417,3.6392,3.6169,3.5906,3.5483,3.5119,3.4788,3.4399,3.3884,3.3596,3.3502,3.3257,3.3124,3.3111,3.288,3.2591,3.2215,3.2014,3.1662,3.1135,3.1298,3.0606,2.9134,2.9444,2.9773,2.99,3.0787,3.1549,3.1851,3.1926,3.2089,3.247,3.2466,3.2441,3.2491,3.2654,3.2767,3.2805,3.2918,3.2817,3.2629,3.252,3.2508,3.247,3.2139,3.1926,3.1825,3.1449,3.111,3.0991,3.0306,2.9488,2.8835,2.8364,2.7976,2.7736,2.7718,2.7557,2.725,2.7087,2.6576,2.5465,2.4766,2.4138,2.2732,2.2341,2.1909,2.1391,2.0947,2.0318,2.0074,1.9666,1.9481,1.8868,1.8829,1.8669,1.7989,1.7212,1.6355,1.5428,1.4215,1.4173,1.413,1.4088,1.4041,5.0975,5.051,5.0285,4.9748,4.891,4.8446,4.8042,4.755,4.6976,4.6211,4.5207,4.3646,4.2398,4.1416,4.0071,3.9233,3.8881,3.8114,3.7638,3.74,3.6885,3.6581,3.648,3.6795,3.6782,3.6505,3.6769,3.6744,3.6455,3.6417,3.6417,3.6417,3.6417,3.6182,3.5843,3.5596,3.5295,3.4906,3.4449,3.394,3.3373,3.2982,3.2654,3.2494,3.2469,3.2537,3.2449,3.2491,3.2227,3.1763,3.1825,3.1634,3.0937,3.0445,3.0445,3.0882,3.1551,3.2089,3.2416,3.2491,3.2667,3.3061,3.3124,3.3124,3.3124,3.3124,3.3124,3.3124,3.3124,3.3124,3.3124,3.3111,3.3124,3.3086,3.2717,3.2503,3.2453,3.1989,3.1394,3.0704,2.9648,2.8717,2.8085,2.7595,2.724,2.6733,2.6718,2.659,2.6091,2.5922,2.5557,2.451,2.4223,2.3458,2.2461,2.1807,2.1337,2.084,2.0473,1.9863,1.9142,1.8709,1.8241,1.757,1.7188,1.7058,1.6609,1.5835,1.5061,1.4292,1.413,1.413,1.4088,1.4088,1.4048,5.1167,5.1079,5.048,5.0196,4.9867,4.8775,4.8253,4.7792,4.6174,4.5278,4.461,4.2703,4.1654,4.1178,3.9778,3.8931,3.8919,3.8818,3.8417,3.7826,3.7349,3.6835,3.6443,3.6531,3.6568,3.6493,3.6443,3.6443,3.6417,3.6417,3.6417,3.6417,3.6417,3.638,3.6392,3.5715,3.5406,3.5198,3.467,3.3694,3.2354,3.2112,3.1851,3.1443,3.1415,3.1945,3.3,3.3031,3.2754,3.2365,3.2704,3.3086,3.2716,3.1874,3.1748,3.2617,3.2993,3.3061,3.3074,3.3048,3.3036,3.3124,3.3124,3.3124,3.3124,3.3124,3.3124,3.3124,3.2982,3.2939,3.2939,3.2797,3.2853,3.3081,3.2895,3.2741,3.2764,3.2426,3.1529,2.9898,2.8617,2.7809,2.7677,2.736,2.7053,2.6669,2.659,2.6128,2.5052,2.4787,2.4296,2.3454,2.3018,2.2547,2.1843,2.123,2.0683,2.0175,1.9799,1.9306,1.8321,1.7696,1.7365,1.6784,1.6467,1.6319,1.5752,1.5019,1.4699,1.4088,1.4088,1.4088,1.4088,1.4088,1.4088,5.1229,5.1199,5.1005,5.0599,5.0074,4.8781,4.7826,4.6843,4.5289,4.3986,4.2806,4.1936,4.1132,4.0325,3.9637,3.9433,3.9433,3.9396,3.873,3.7613,3.7287,3.6958,3.6568,3.6747,3.6923,3.6908,3.6581,3.6417,3.6417,3.6417,3.6417,3.6417,3.6417,3.6417,3.631,3.5351,3.4727,3.4559,3.3254,3.216,3.1652,3.1333,3.1251,3.1648,3.1667,3.2131,3.302,3.3124,3.298,3.2805,3.3023,3.3124,3.3025,3.2742,3.2711,3.3038,3.3124,3.3124,3.3124,3.3124,3.3124,3.3124,3.3124,3.3124,3.3124,3.3081,3.3025,3.2939,3.2339,3.1777,3.1689,3.1,3.1335,3.2896,3.2339,3.1777,3.1665,3.0935,2.9954,2.9088,2.8161,2.7404,2.6706,2.6323,2.5828,2.519,2.5026,2.4588,2.3898,2.3637,2.3173,2.212,2.1898,2.1445,2.0576,1.9943,1.9507,1.9101,1.8785,1.84,1.7462,1.6806,1.6438,1.6104,1.5788,1.5402,1.4846,1.4447,1.4208,1.4088,1.4088,1.4088,1.4088,1.4088,1.4088,5.1229,5.1229,5.1229,5.0679,4.9764,4.8644,4.7348,4.5897,4.429,4.2802,4.1733,4.1082,4.0465,3.9839,3.9697,3.9697,3.9697,3.9697,3.9007,3.7902,3.755,3.7186,3.6709,3.682,3.6933,3.6883,3.6568,3.6417,3.6417,3.6417,3.6417,3.6358,3.5906,3.5619,3.5523,3.4362,3.3613,3.3406,3.2426,3.1495,3.0866,3.0351,3.0208,3.0519,3.0802,3.1433,3.2307,3.284,3.3124,3.3124,3.3124,3.3124,3.3124,3.3081,3.3124,3.3124,3.3124,3.3124,3.3124,3.3124,3.3124,3.3124,3.3124,3.284,3.2568,3.2382,3.2283,3.1645,3.1,3.053,3.0406,2.9954,3.0237,3.1456,3.1,3.0541,3.0361,2.9442,2.8699,2.8123,2.7437,2.6691,2.6044,2.5671,2.5039,2.4424,2.4121,2.3586,2.2977,2.2542,2.1758,2.1078,2.0711,2.0034,1.9085,1.8588,1.8272,1.7995,1.7682,1.7176,1.6476,1.6058,1.5717,1.5344,1.4995,1.49,1.4423,1.4271,1.4088,1.4088,1.4088,1.4088,1.4088,1.4088,1.4088,5.1229,5.1167,5.112,5.032,4.9193,4.825,4.675,4.5046,4.3221,4.201,4.1237,4.0313,3.9788,3.9697,3.9697,3.9697,3.9697,3.9697,3.9433,3.8793,3.8253,3.7626,3.7111,3.6719,3.6518,3.6468,3.643,3.6417,3.6405,3.6168,3.631,3.6013,3.4872,3.4276,3.4007,3.2894,3.223,3.218,3.1944,3.0965,2.9668,2.9281,2.9067,2.8806,2.9479,3.0399,3.1777,3.2661,3.3124,3.3124,3.3124,3.3124,3.3124,3.3124,3.3124,3.3124,3.3124,3.2982,3.2982,3.2797,3.2711,3.2513,3.2426,3.2426,3.1311,3.1089,3.0765,2.9954,2.9498,2.9315,2.9315,2.8993,2.905,2.9143,2.9223,2.9269,2.9085,2.8132,2.7547,2.7274,2.6476,2.5703,2.575,2.5703,2.5382,2.4755,2.4293,2.3419,2.2153,2.1327,2.0654,2.0042,1.9451,1.8718,1.7809,1.749,1.7217,1.7073,1.6843,1.6497,1.6049,1.5693,1.5379,1.4945,1.4629,1.4429,1.4242,1.4182,1.4115,1.4088,1.4088,1.4088,1.4088,1.4088,1.4039,5.1229,5.112,5.0143,4.9518,4.8886,4.685,4.5142,4.377,4.228,4.1142,4.0287,3.989,3.9697,3.9697,3.9697,3.9697,3.9697,3.9697,3.9659,3.9333,3.8442,3.7726,3.7161,3.6681,3.637,3.637,3.6263,3.6417,3.631,3.5367,3.4921,3.4884,3.3552,3.2844,3.2644,3.1531,3.0865,3.0669,2.9807,2.9262,2.8825,2.859,2.9229,3.0537,3.043,3.1333,3.2884,3.3096,3.3124,3.3124,3.3124,3.3124,3.3106,3.3131,3.3187,3.3124,3.305,3.2655,3.1921,3.1733,3.1323,3.0463,3.0643,3.0226,2.9954,2.9863,2.9715,2.9223,2.868,2.7992,2.7898,2.7258,2.6781,2.6791,2.7379,2.7662,2.6972,2.6428,2.6197,2.6149,2.5878,2.5732,2.5577,2.5509,2.5063,2.3959,2.327,2.2664,2.1143,2.0273,1.9678,1.8719,1.8048,1.7358,1.6756,1.6433,1.6204,1.6103,1.6055,1.6122,1.5866,1.5765,1.555,1.5277,1.4983,1.4756,1.4469,1.4282,1.4202,1.4122,1.4088,1.4088,1.4088,1.4088,1.3997,4.9824,5.0239,4.8901,4.7974,4.7299,4.5661,4.4083,4.2577,4.1653,4.0674,3.9873,3.9697,3.9697,3.9697,3.9697,3.9697,3.9697,3.9697,3.9697,3.9496,3.8517,3.76,3.6923,3.6505,3.6121,3.5571,3.5571,3.5162,3.4605,3.3859,3.3552,3.3266,3.214,3.148,3.1378,3.0162,2.946,2.9303,2.8644,2.8301,2.8291,2.8115,2.8563,2.9915,3.0362,3.1867,3.3739,3.341,3.2993,3.309,3.3283,3.3339,3.3146,3.3577,3.3558,3.3169,3.2854,3.2232,3.1359,3.0765,3.0135,2.959,2.9396,2.9085,2.8773,2.8634,2.8484,2.6938,2.6348,2.576,2.5227,2.4875,2.4609,2.4285,2.5198,2.5848,2.5635,2.5771,2.5684,2.5684,2.5684,2.543,2.502,2.4873,2.4036,2.289,2.2148,2.1097,1.9822,1.932,1.8644,1.767,1.7052,1.6574,1.6339,1.6109,1.6015,1.5825,1.5825,1.5825,1.5825,1.5818,1.5658,1.5451,1.5264,1.5068,1.4676,1.4389,1.4275,1.4195,1.4135,1.4088,1.4088,1.3822,1.3779,4.7808,4.8837,4.7466,4.6174,4.5195,4.4767,4.3336,4.1604,4.1229,4.0639,3.9848,3.9697,3.9697,3.9697,3.9697,3.9697,3.9697,3.9362,3.898,3.8518,3.7803,3.6948,3.5658,3.586,3.5415,3.4678,3.4337,3.3613,3.2894,3.2392,3.2079,3.1785,3.0773,3.0162,2.9911,2.8953,2.8398,2.8451,2.8398,2.8301,2.8252,2.808,2.8366,2.9363,3.0762,3.2229,3.3441,3.3194,3.2471,3.2702,3.3284,3.3048,3.2898,3.3732,3.36,3.27,3.198,3.1463,3.0736,2.9636,2.9039,2.8773,2.8828,2.8664,2.7752,2.7297,2.6354,2.4693,2.3669,2.3217,2.265,2.2926,2.2976,2.2517,2.3067,2.4038,2.4962,2.543,2.543,2.5333,2.5274,2.4815,2.3989,2.3375,2.2959,2.1577,2.0882,2.0045,1.8988,1.82,1.751,1.6607,1.6191,1.5967,1.5872,1.5825,1.5825,1.5825,1.5825,1.5825,1.5825,1.5792,1.5678,1.5531,1.5384,1.511,1.4743,1.4529,1.4382,1.4208,1.4102,1.4088,1.4039,1.3561,1.3336,4.7248,4.7415,4.6017,4.5302,4.4767,4.3431,4.2204,4.125,4.0877,4.035,3.9798,3.9697,3.9697,3.9645,3.9581,3.9697,3.9297,3.8352,3.702,3.5231,3.6188,3.5038,3.3924,3.4252,3.4581,3.4019,3.3155,3.2543,3.2079,3.1133,3.0732,3.0525,2.9608,2.8751,2.8698,2.8601,2.8301,2.8301,2.8301,2.8301,2.8344,2.8353,2.9172,3.0845,3.2195,3.2723,3.2735,3.1829,3.0996,3.0818,3.1108,3.1407,3.1433,3.1629,3.1575,3.1078,3.0651,2.9898,2.8718,2.8211,2.7542,2.6911,2.7148,2.695,2.6714,2.5697,2.493,2.3928,2.3,2.1971,2.1499,2.1853,2.1803,2.16,2.1803,2.2215,2.2617,2.3475,2.3683,2.3226,2.3534,2.3583,2.2366,2.2156,2.1491,2.0361,1.9617,1.9044,1.8225,1.7336,1.6702,1.6092,1.5919,1.5832,1.5825,1.5825,1.5825,1.5825,1.5825,1.5825,1.5825,1.5825,1.5738,1.5638,1.5531,1.5224,1.4923,1.4643,1.4496,1.4289,1.4102,1.4088,1.3955,1.3428,1.2687,4.5568,4.5978,4.463,4.3916,4.355,4.2629,4.1693,4.1015,4.0664,4.0199,3.9785,3.9697,3.9297,3.8687,3.8635,3.836,3.7524,3.6649,3.534,3.4215,3.4469,3.3765,3.2549,3.2292,3.2443,3.2342,3.1785,3.1133,3.0369,2.9807,2.9355,2.9365,2.8591,2.8398,2.8301,2.8301,2.8301,2.8301,2.8301,2.8301,2.8344,2.9006,3.0057,3.1916,3.2731,3.2788,3.2446,3.1224,3.0471,3.0091,2.9806,2.9874,3.046,3.1029,3.1031,3.0415,2.9707,2.9106,2.8126,2.7349,2.6798,2.6143,2.6435,2.6621,2.629,2.5246,2.4014,2.316,2.1839,2.0531,1.9922,2.0487,2.0436,2.0025,2.0385,2.0436,2.0274,2.1499,2.2567,2.1954,2.2408,2.1904,2.1296,2.0837,2.0076,1.905,1.8576,1.8009,1.7777,1.7007,1.6637,1.6179,1.5959,1.5845,1.5832,1.5825,1.5825,1.5825,1.5825,1.5825,1.5825,1.5825,1.5818,1.5725,1.5638,1.5504,1.5217,1.4923,1.4491,1.4329,1.417,1.4113,1.3779,1.3075,1.2248,4.3657,4.4617,4.3403,4.264,4.2225,4.1999,4.1354,4.0561,4.0137,3.9578,3.932,3.9193,3.8031,3.7358,3.7198,3.6325,3.5263,3.4892,3.4249,3.2877,3.2892,3.2251,3.1384,3.0566,3.0162,3.0016,3.0016,2.9418,2.8804,2.8291,2.8548,2.8398,2.8344,2.8301,2.8301,2.8301,2.8301,2.8301,2.8301,2.8301,2.8398,2.925,3.0359,3.1509,3.1843,3.19,3.157,3.0634,2.9901,2.9911,2.89,2.8906,2.9698,3.0705,3.1311,3.0166,2.9197,2.8481,2.7865,2.7142,2.6584,2.6504,2.6875,2.6865,2.6387,2.4966,2.3471,2.1919,2.0479,1.8909,1.7891,1.8655,1.8708,1.8251,1.876,1.8655,1.8349,1.9716,2.0582,2.088,2.0939,2.0684,1.9922,1.9265,1.8499,1.7903,1.7497,1.7174,1.6976,1.6898,1.6663,1.6366,1.6159,1.5905,1.5858,1.5784,1.5778,1.5581,1.5635,1.5635,1.5581,1.5289,1.5242,1.573,1.5738,1.5458,1.5014,1.448,1.4199,1.4252,1.3864,1.3428,1.3034,1.2656,1.1686,4.3141,4.3245,4.2637,4.2288,4.2074,4.1191,4.0608,4.024,3.8676,3.7957,3.7713,3.6607,3.612,3.5672,3.5672,3.4847,3.3795,3.3649,3.2824,3.1096,3.1018,3.0706,2.9479,2.9154,2.8794,2.8654,2.8751,2.8601,2.8398,2.8301,2.8301,2.8301,2.8301,2.8301,2.8301,2.8301,2.8301,2.8301,2.8301,2.8301,2.8388,2.8847,2.9555,3.0721,3.0876,3.0721,3.0359,2.9398,2.8644,2.8591,2.8441,2.8406,2.848,2.8833,2.8695,2.8581,2.8235,2.7881,2.742,2.7107,2.6914,2.7002,2.715,2.6707,2.5649,2.4096,2.2474,2.0871,1.9293,1.7891,1.7687,1.7996,1.7891,1.774,1.7786,1.7943,1.7838,1.8199,1.8589,1.8634,1.9102,1.962,1.8909,1.8297,1.7825,1.7569,1.7429,1.7141,1.6918,1.6929,1.6965,1.6653,1.6393,1.6119,1.5885,1.5804,1.5737,1.5296,1.5242,1.5248,1.5051,1.4555,1.4555,1.4704,1.4918,1.4769,1.4331,1.3845,1.3203,1.268,1.2518,1.2499,1.1971,1.1429,1.0702,4.2811,4.259,4.2313,4.1819,4.1146,3.9902,3.9206,3.8725,3.7143,3.6368,3.6151,3.5563,3.4847,3.4359,3.4181,3.3233,3.2163,3.176,3.0876,2.953,2.9473,2.929,2.8354,2.8301,2.8291,2.8291,2.8291,2.8301,2.8301,2.8301,2.8301,2.8301,2.8301,2.8301,2.8301,2.8301,2.8301,2.8301,2.8301,2.8301,2.8398,2.8857,2.9713,3.0068,3.0224,2.9964,2.9207,2.8794,2.8291,2.8174,2.7555,2.7276,2.6997,2.659,2.6643,2.7545,2.7678,2.7545,2.7393,2.7353,2.7023,2.6295,2.657,2.6071,2.4622,2.2964,2.1248,1.9593,1.8638,1.7589,1.7589,1.7589,1.7589,1.7589,1.7582,1.7529,1.7529,1.7529,1.7094,1.6711,1.7601,1.8126,1.8146,1.7575,1.7199,1.7147,1.7199,1.6929,1.6552,1.6572,1.6536,1.634,1.5886,1.5295,1.5067,1.5124,1.486,1.4519,1.4513,1.4519,1.4082,1.3349,1.3156,1.3253,1.3454,1.3324,1.3208,1.2505,1.1812,1.1237,1.1405,1.1381,1.0799,1.0178,0.9579,4.2497,4.1982,4.1584,4.0915,3.989,3.8359,3.7468,3.6815,3.5508,3.4847,3.4847,3.4414,3.3642,3.2886,3.2396,3.171,3.0244,2.9964,2.9417,2.9202,2.8682,2.8354,2.8301,2.8301,2.8301,2.8301,2.8301,2.8301,2.8301,2.8301,2.8301,2.8301,2.8301,2.8301,2.8301,2.8301,2.8301,2.8301,2.8301,2.8301,2.8601,2.9313,2.9911,2.9911,2.9911,2.924,2.7975,2.7726,2.7394,2.6943,2.6273,2.5654,2.5434,2.4488,2.4939,2.6842,2.7072,2.6949,2.6795,2.6689,2.6023,2.5209,2.5413,2.4722,2.334,2.163,1.9864,1.8381,1.7769,1.7589,1.7589,1.7589,1.7371,1.7041,1.6988,1.6982,1.6499,1.6174,1.5743,1.5743,1.6387,1.634,1.6068,1.6015,1.5476,1.537,1.5423,1.5417,1.5139,1.5476,1.5523,1.5483,1.5114,1.435,1.4057,1.4046,1.3644,1.3011,1.3108,1.3301,1.2624,1.1853,1.1848,1.175,1.1112,1.0981,1.109,1.1264,1.0622,1.0283,1.0469,1.0091,0.9319,0.9192,0.9017,4.1932,4.1218,3.9485,3.8683,3.8287,3.6504,3.5642,3.5354,3.4024,3.335,3.3304,3.215,3.1556,3.1265,3.0871,3.0738,3.037,2.9678,2.9189,2.9131,2.8613,2.8301,2.8301,2.8301,2.8301,2.8301,2.8301,2.8301,2.8301,2.8301,2.8301,2.8301,2.8301,2.8301,2.8301,2.8301,2.8301,2.8301,2.8301,2.8301,2.8291,2.8495,2.8475,2.8538,2.8315,2.7751,2.6545,2.6273,2.5891,2.4718,2.4331,2.4044,2.4044,2.3989,2.3877,2.4211,2.4288,2.4263,2.4497,2.47,2.4526,2.4069,2.4011,2.3263,2.1838,2.0116,1.8582,1.8198,1.7602,1.7378,1.7259,1.7417,1.6876,1.6174,1.5689,1.5037,1.4502,1.4936,1.4502,1.3906,1.4234,1.3911,1.3647,1.3696,1.3696,1.3696,1.3696,1.3745,1.3869,1.421,1.4356,1.4322,1.4037,1.3303,1.2878,1.2877,1.2231,1.1507,1.1697,1.1891,1.1165,1.0485,1.0342,1.0096,0.941,0.9262,0.9821,0.9888,0.938,0.9222,0.9259,0.8544,0.7627,0.7816,0.8364,4.0379,3.9533,3.8683,3.7625,3.6418,3.4758,3.4069,3.3744,3.2483,3.1872,3.1767,3.1276,3.0898,3.083,3.0644,3.04,3.0088,2.9512,2.9062,2.8896,2.8496,2.8301,2.8301,2.8301,2.8301,2.8301,2.8291,2.8301,2.8291,2.8237,2.8291,2.8237,2.8237,2.8301,2.8014,2.8237,2.8301,2.8301,2.8301,2.8301,2.8067,2.7555,2.7051,2.6997,2.6273,2.5544,2.5041,2.4765,2.4544,2.3654,2.3151,2.254,2.2315,2.182,2.1266,2.1323,2.1316,2.2089,2.3535,2.3654,2.3207,2.2645,2.242,2.1877,2.0345,1.8572,1.7655,1.8262,1.6259,1.5725,1.5962,1.5583,1.499,1.4395,1.4234,1.3804,1.3264,1.3372,1.3318,1.267,1.1969,1.1697,1.1638,1.2118,1.2281,1.2181,1.238,1.2626,1.2793,1.3088,1.3105,1.3013,1.2652,1.2197,1.183,1.1556,1.0623,1.0038,1.0284,1.0235,0.96,0.9114,0.8761,0.8718,0.8528,0.8577,0.8821,0.8818,0.8635,0.8332,0.802,0.7647,0.7289,0.7241,0.7621,3.8463,3.737,3.7176,3.6293,3.479,3.3254,3.253,3.2416,3.1441,3.0957,3.0898,3.0898,3.0898,3.084,3.0713,3.0322,2.9766,2.9512,2.9053,2.8603,2.834,2.8301,2.8301,2.8301,2.8301,2.8237,2.7691,2.7574,2.7511,2.7286,2.706,2.7672,2.6888,2.6952,2.7168,2.7447,2.7672,2.8301,2.8301,2.8067,2.7555,2.6662,2.6045,2.5316,2.448,2.359,2.3311,2.3263,2.3207,2.2322,2.1593,2.1038,2.0866,1.9832,1.9094,1.8855,1.8616,1.8874,2.0516,2.1371,2.1677,2.088,1.9878,1.8937,1.8071,1.6559,1.5899,1.6845,1.5138,1.4331,1.4341,1.3965,1.3426,1.3102,1.2724,1.2512,1.2299,1.2028,1.1647,1.1,1.0288,0.968,0.9841,1.0647,1.0866,1.0769,1.1017,1.1292,1.1188,1.1084,1.0418,0.9895,0.9377,0.9019,0.8928,0.8735,0.8255,0.8358,0.8605,0.8255,0.7462,0.7068,0.6716,0.6874,0.7232,0.6877,0.6564,0.7251,0.7921,0.7901,0.7827,0.7564,0.7319,0.7169,0.7095,3.6414,3.4651,3.4217,3.4016,3.3644,3.1822,3.1112,3.1276,3.1005,3.0898,3.0889,3.0869,3.084,3.0801,3.0498,3.0234,3.0068,2.9316,2.8984,2.874,2.8516,2.8359,2.832,2.8301,2.8184,2.7906,2.7187,2.6563,2.5882,2.4931,2.527,2.5936,2.527,2.4497,2.4884,2.6045,2.7276,2.7897,2.8121,2.7394,2.6662,2.5818,2.5096,2.398,2.3599,2.3151,2.1798,2.1336,2.0773,1.9659,1.9319,1.9152,1.8797,1.7852,1.7214,1.6973,1.6267,1.6245,1.6985,1.8403,1.8726,1.7489,1.644,1.5923,1.5566,1.4651,1.4245,1.4325,1.3307,1.3078,1.321,1.3156,1.2132,1.1647,1.116,1.0836,1.0511,1.008,0.9699,0.921,0.8709,0.8202,0.7531,0.8118,0.8501,0.84,0.841,0.8686,0.8006,0.7648,0.6651,0.5975,0.5385,0.5031,0.492,0.5014,0.5862,0.6011,0.6059,0.561,0.4914,0.4718,0.5218,0.5068,0.537,0.4818,0.4668,0.581,0.6816,0.7489,0.7577,0.7161,0.7148,0.7207,0.7109,3.5813,3.477,3.3403,3.2613,3.2263,3.1348,3.0898,3.0898,3.0898,3.0898,3.0859,3.0615,3.0625,3.0684,3.041,3.0039,2.9853,2.9824,2.9248,2.8799,2.8564,2.8506,2.8418,2.814,2.7833,2.7079,2.6245,2.5452,2.4544,2.3151,2.2814,2.3087,2.3487,2.3877,2.4322,2.5261,2.6834,2.7618,2.7447,2.6545,2.5982,2.4028,2.2558,2.1106,1.9878,1.8841,1.7511,1.7283,1.6944,1.6727,1.6621,1.6744,1.6744,1.5908,1.5607,1.5478,1.4653,1.4346,1.4346,1.5644,1.5965,1.5693,1.4844,1.4301,1.3787,1.3121,1.3104,1.2834,1.1817,1.1223,1.181,1.116,1.0186,0.986,0.9644,0.9427,0.9154,0.8878,0.8322,0.8152,0.7537,0.6869,0.6142,0.5528,0.5806,0.6024,0.6048,0.5962,0.5445,0.4994,0.4364,0.3856,0.3401,0.3425,0.3416,0.3665,0.3915,0.3765,0.3715,0.3516,0.3316,0.4016,0.4316,0.4016,0.3765,0.3717,0.4017,0.4868,0.5626,0.6238,0.6581,0.6554,0.6745,0.7025,0.7074,3.4831,3.4338,3.2872,3.1924,3.1484,3.1064,3.0898,3.0898,3.0898,3.0791,3.0674,3.0351,3.0361,3.0518,3.0361,3.0088,2.9951,2.9922,2.9385,2.8994,2.874,2.8721,2.8417,2.7822,2.7071,2.6154,2.491,2.3941,2.3095,2.1643,2.1202,2.1479,2.2315,2.2927,2.3543,2.516,2.6834,2.7618,2.6943,2.5763,2.5151,2.2494,2.0236,1.8712,1.7348,1.6304,1.5424,1.5306,1.5128,1.4955,1.4842,1.4723,1.448,1.4242,1.3944,1.3751,1.342,1.3214,1.3205,1.3596,1.3692,1.363,1.2896,1.2671,1.2379,1.1556,1.1328,1.1607,1.0078,0.932,1.0457,0.9754,0.9372,0.9261,0.9265,0.9044,0.8764,0.8432,0.7706,0.7146,0.6366,0.5472,0.3851,0.3068,0.3441,0.4044,0.5049,0.4708,0.3846,0.3473,0.3113,0.2672,0.229,0.2477,0.2716,0.2363,0.2011,0.2013,0.1963,0.2213,0.2364,0.0,0.0,0.2264,0.2213,0.2665,0.0,0.0,0.0,0.4993,0.5255,0.5442,0.6028,0.6329,0.6723,3.3289,3.2825,3.2385,3.1894,3.1356,3.1064,3.0898,3.0879,3.084,3.0441,2.9882,2.9938,3.0062,3.013,3.0043,3.0146,3.0089,2.9995,2.9436,2.8723,2.8206,2.8571,2.7958,2.7012,2.6004,2.5737,2.4093,2.2371,2.1586,2.0479,1.9809,2.0256,2.1422,2.242,2.2145,2.4654,2.678,2.7789,2.6662,2.527,2.3471,2.0844,1.8667,1.7061,1.5478,1.4421,1.3765,1.3651,1.3586,1.3586,1.371,1.371,1.3765,1.2749,1.2324,1.2183,1.0871,1.0161,0.9954,1.1295,1.1828,1.1816,1.1097,1.0391,0.9702,0.9409,0.9535,1.0094,0.9168,0.8937,0.9047,0.894,0.8937,0.8826,0.8826,0.8432,0.8097,0.7315,0.6533,0.5526,0.4803,0.3855,0.1842,0.0613,0.1051,0.1978,0.3604,0.3408,0.1927,0.1214,0.0625,0.0463,0.0051,0.0456,0.0454,0.0353,0.0151,0.0,0.0,0.0,0.0,0.0,0.0,0.0,0.0,0.0,0.0,0.0,0.0,0.3129,0.3964,0.4381,0.4988,0.5626,0.6106,3.293,3.2734,3.2031,3.1022,3.0092,3.0643,3.0898,3.083,3.0451,2.9208,2.7902,2.8861,2.9317,2.9174,2.9671,2.9976,2.9958,2.9145,2.8494,2.7502,2.7005,2.6246,2.5735,2.5423,2.4526,2.3487,2.1937,2.0923,2.0148,1.9591,1.9475,1.9866,2.1764,2.3535,2.4544,2.5882,2.649,2.649,2.5325,2.3822,2.2186,1.9425,1.6997,1.5494,1.3944,1.2633,1.1856,1.1856,1.1856,1.1796,1.1856,1.1796,1.1736,1.0838,1.0737,1.061,0.9668,0.9562,0.9442,0.9978,1.0074,0.9806,0.9671,0.9164,0.9039,0.9015,0.8974,0.8843,0.8716,0.8716,0.8937,0.8881,0.8826,0.8602,0.8322,0.7593,0.6924,0.5864,0.486,0.3798,0.2905,0.1395,-0.0391,-0.1897,-0.1774,-0.1985,-0.0822,-0.0709,-0.1786,-0.229,-0.2729,-0.2643,-0.2669,-0.2087,-0.1721,-0.1161,0.0,0.0,0.0,0.0,0.0,0.0,0.0,0.0,0.0,0.0,0.0,0.0,0.0,0.1197,0.228,0.3268,0.3946,0.4736,0.5602,3.2599,3.1817,3.1294,2.9947,2.8542,2.9521,2.9785,2.9238,2.8852,2.7408,2.6149,2.7346,2.7643,2.7401,2.7933,2.8667,2.8624,2.8,2.7188,2.6191,2.5704,2.5336,2.4829,2.3825,2.3257,2.2079,2.1148,2.0263,1.9591,1.9482,1.9758,2.0759,2.254,2.4258,2.5599,2.6436,2.6662,2.6155,2.4765,2.3263,2.1101,1.8506,1.572,1.4356,1.2753,1.0959,1.0119,0.9819,0.9758,0.9758,0.9819,0.9819,0.9819,0.9805,0.9774,0.9703,0.8953,0.8687,0.8366,0.7553,0.7491,0.737,0.8336,0.8976,0.8732,0.8337,0.8112,0.8045,0.81,0.7762,0.7593,0.7703,0.7875,0.7595,0.6869,0.6086,0.547,0.4413,0.3015,0.1899,0.0503,-0.1061,-0.2513,-0.3852,-0.4736,-0.5163,-0.5475,-0.5343,-0.4881,-0.4864,-0.4835,-0.4659,-0.4183,-0.3219,-0.2484,-0.1865,0.0,0.0,0.0,0.0,0.0,0.0,0.0,0.0,0.0,0.0,0.0,0.0,0.0,0.0,0.1169,0.2048,0.2848,0.3611,0.4474,3.2046,3.0366,3.0122,2.8618,2.6785,2.7444,2.7134,2.6037,2.6056,2.5607,2.4735,2.513,2.546,2.5076,2.5375,2.5937,2.6231,2.6142,2.5627,2.5182,2.4583,2.4607,2.3984,2.2881,2.229,2.1692,2.0909,1.9983,1.9491,1.9511,2.0174,2.1487,2.2934,2.4599,2.5991,2.7114,2.7114,2.6045,2.4599,2.3095,2.1165,1.7277,1.5306,1.3706,1.1667,1.0172,0.9576,0.9511,0.9636,0.9697,0.9819,0.9819,0.9819,0.9815,0.9812,0.9223,0.7878,0.7086,0.6603,0.5611,0.5268,0.5667,0.7168,0.8214,0.8156,0.7146,0.6758,0.6647,0.6589,0.5753,0.5194,0.5697,0.6144,0.553,0.4804,0.4246,0.3852,0.2735,0.1227,-0.0167,-0.1674,-0.3126,-0.43,-0.5641,-0.6647,-0.6916,-0.7061,-0.6782,-0.6361,-0.5829,-0.5726,-0.5497,-0.4898,-0.3951,-0.3204,-0.262,0.0,0.0,0.0,0.0,0.0,0.0,0.0,0.0,0.0,0.0,0.0,0.0,0.0,0.0,0.0,0.0911,0.1694,0.2145,0.2904,3.091,3.0409,2.8613,2.6789,2.508,2.3783,2.3559,2.4324,2.5065,2.4296,2.2044,2.4316,2.4428,2.3789,2.5129,2.5618,2.5396,2.4907,2.4177,2.3665,2.3091,2.2432,2.1921,2.1547,2.1256,2.1024,2.0469,1.9893,1.9893,1.9793,2.0287,2.1623,2.2878,2.4425,2.5936,2.7511,2.6943,2.61,2.4599,2.2983,2.0701,1.6938,1.5306,1.3581,1.0389,0.9134,0.9265,0.8465,0.859,0.9511,0.9697,0.9758,0.9819,0.963,0.9387,0.7644,0.6298,0.5184,0.5037,0.4693,0.4303,0.4136,0.525,0.5475,0.5586,0.5417,0.5029,0.5139,0.5081,0.4468,0.4078,0.4357,0.4524,0.4023,0.3129,0.2177,0.1619,0.039,-0.1116,-0.2621,-0.4075,-0.5023,-0.6255,-0.7035,-0.7875,-0.8266,-0.8325,-0.7986,-0.768,-0.713,-0.6756,-0.6553,-0.6182,-0.5411,-0.4213,-0.3466,-0.1962,0.0,0.0,0.0,0.0,0.0,0.0,0.0,0.0,0.0,0.0,0.0,0.0,0.0,0.0,0.0,0.052,0.1054,0.1568,2.9318,2.8224,2.6697,2.4978,2.3321,2.1749,2.1727,2.2673,2.3335,2.2418,2.106,2.2725,2.3063,2.2454,2.331,2.3846,2.3792,2.3062,2.2477,2.2137,2.1498,2.1339,2.0931,2.0722,2.0772,2.0568,2.0394,2.0087,2.0054,1.9852,2.0106,2.0666,2.2202,2.3702,2.4931,2.5772,2.6273,2.5599,2.4488,2.2758,2.0007,1.6944,1.5246,1.3636,0.9838,0.852,0.8465,0.7299,0.7423,0.8343,0.8468,0.8282,0.8262,0.8142,0.7482,0.5828,0.4674,0.3836,0.3471,0.2852,0.274,0.274,0.2739,0.274,0.3018,0.313,0.3353,0.3575,0.3519,0.3409,0.3242,0.313,0.2907,0.2683,0.1396,0.0112,-0.1005,-0.2177,-0.3629,-0.5081,-0.62,-0.7093,-0.7931,-0.8602,-0.8881,-0.8771,-0.8716,-0.8602,-0.8449,-0.8221,-0.7933,-0.7768,-0.7504,-0.7032,-0.565,-0.4016,-0.2564,0.0,0.0,0.0,0.0,0.0,0.0,0.0,0.0,0.0,0.0,0.0,0.0,0.0,0.0,0.0,-0.0234,0.0229,0.0675,2.7453,2.4747,2.4444,2.3379,2.1723,2.1236,2.1166,2.1102,2.1328,2.1025,2.0864,2.1052,2.1256,2.1272,2.1742,2.1769,2.1839,2.1594,2.1531,2.1145,2.1115,2.0962,2.0895,2.0815,2.0695,2.0588,2.0474,2.0321,1.9893,1.9725,1.9636,1.9488,2.1031,2.2533,2.3535,2.4267,2.4654,2.4599,2.371,2.2258,1.9696,1.6903,1.448,1.3696,1.0379,0.7238,0.6933,0.6259,0.5466,0.6077,0.6318,0.6071,0.6192,0.5757,0.492,0.3918,0.2727,0.1862,0.1176,0.0335,-0.0224,-0.0336,-0.0336,-0.0336,-0.0056,0.1343,0.1901,0.2069,0.2013,0.179,0.1623,0.1678,0.1566,0.0783,-0.0391,-0.1787,-0.318,-0.4409,-0.5693,-0.6927,-0.7485,-0.8266,-0.838,-0.8881,-0.8881,-0.8881,-0.8937,-0.8937,-0.8845,-0.8774,-0.8752,-0.8591,-0.817,-0.7536,-0.5888,-0.4318,-0.3116,0.0,0.0,0.0,0.0,0.0,0.0,0.0,0.0,0.0,0.0,0.0,0.0,0.0,0.0,0.0,-0.0973,-0.0952,-0.0856,2.5352,2.4451,2.2949,2.1991,2.1581,2.1236,2.1102,2.1102,2.1102,2.1062,2.1022,2.1062,2.1076,2.1015,2.1049,2.1102,2.1102,2.1102,2.1102,2.1029,2.0942,2.0915,2.0815,2.0788,2.0695,2.0735,2.0702,2.0488,2.0074,1.9786,1.9611,1.9618,2.0759,2.1756,2.2315,2.2991,2.3319,2.3255,2.2428,2.1813,2.0393,1.7132,1.4421,1.2722,0.9647,0.6747,0.5892,0.4608,0.4548,0.4976,0.5138,0.5148,0.5247,0.3808,0.3046,0.2429,0.0394,-0.0561,-0.1232,-0.2067,-0.2739,-0.313,-0.3186,-0.3353,-0.2626,-0.0671,0.0392,0.0448,0.0336,0.0056,-0.0056,0.0056,-0.0056,-0.1119,-0.2236,-0.3741,-0.5246,-0.6475,-0.7709,-0.8211,-0.866,-0.8826,-0.8881,-0.8937,-0.8937,-0.8937,-0.8937,-0.8899,-0.8804,-0.8755,-0.8881,-0.8741,-0.8395,-0.7556,-0.5969,-0.4972,-0.3969,-0.3416,0.0,0.0,-0.2864,-0.2213,-0.1511,-0.1511,0.0,-0.1511,-0.1811,0.0,0.0,-0.2374,-0.261,-0.2752,-0.3063,-0.3133,-0.2952,2.373,2.295,2.1865,2.1356,2.1329,2.1176,2.1102,2.1102,2.1102,2.1102,2.1102,2.1102,2.1102,2.1102,2.1102,2.1102,2.1102,2.1102,2.1102,2.1029,2.0949,2.0929,2.0869,2.0822,2.0755,2.0768,2.0501,2.0254,2.0047,1.9753,1.9524,1.9553,2.0429,2.0981,2.1365,2.1926,2.1934,2.1643,2.1038,2.0702,2.0343,1.7009,1.4723,1.2722,0.9459,0.6501,0.4669,0.3382,0.2892,0.3001,0.3041,0.1978,0.1355,-0.0058,-0.0682,-0.1235,-0.2235,-0.3185,-0.3521,-0.4023,-0.4693,-0.4749,-0.4582,-0.4191,-0.4078,-0.2403,-0.2291,-0.2291,-0.2291,-0.2517,-0.2517,-0.2404,-0.2459,-0.313,-0.43,-0.5637,-0.6808,-0.7873,-0.8436,-0.8602,-0.8826,-0.8881,-0.8937,-0.8937,-0.8933,-0.8854,-0.8861,-0.8879,-0.8786,-0.9046,-0.9112,-0.9175,-0.8969,-0.7823,-0.6158,-0.5525,-0.5072,-0.462,-0.4366,-0.3966,-0.3715,-0.3265,-0.2864,-0.2865,-0.2865,-0.2916,-0.3364,-0.4098,-0.3834,-0.3263,-0.3809,-0.4522,-0.4883,-0.5461,-0.5813,2.2425,2.1166,2.1109,2.1109,2.1102,2.1102,2.1102,2.1102,2.1102,2.1102,2.1102,2.1102,2.1102,2.1102,2.1102,2.1102,2.1102,2.1102,2.1102,2.1082,2.1022,2.0922,2.0929,2.0982,2.0828,2.0561,2.0274,2.0054,1.9846,1.9579,1.947,1.943,1.9642,2.0033,2.0529,2.0429,2.004,2.0537,2.0256,1.9468,1.7987,1.6326,1.5079,1.2419,0.8854,0.5343,0.3936,0.2524,0.1356,0.0977,0.0845,-0.0475,-0.1635,-0.2812,-0.3288,-0.3808,-0.4188,-0.4693,-0.4916,-0.5306,-0.5419,-0.5308,-0.5029,-0.5029,-0.5083,-0.5081,-0.5027,-0.4916,-0.4916,-0.447,-0.4414,-0.4414,-0.4414,-0.5027,-0.6253,-0.7254,-0.8205,-0.8933,-0.8937,-0.8992,-0.8937,-0.8937,-0.893,-0.893,-0.8896,-0.8876,-0.8862,-0.8881,-0.8973,-0.9528,-0.9843,-0.9999,-0.9996,-0.8556,-0.6974,-0.6722,-0.6766,-0.6171,-0.5914,-0.5214,-0.4714,-0.4616,-0.4468,-0.4268,-0.4268,-0.4416,-0.4833,-0.5494,-0.4999,-0.4987,-0.6056,-0.718,-0.7361,-0.7964,-0.8926,2.1418,2.1102,2.1102,2.1102,2.1102,2.1102,2.1102,2.1102,2.1102,2.1102,2.0976,2.1039,2.1102,2.1039,2.1102,2.1102,2.1102,2.1102,2.1102,2.1089,2.0955,2.0842,2.0802,2.0875,2.0748,2.0501,2.0241,2.0034,1.974,1.9544,1.9424,1.9424,1.9424,1.9591,1.9649,1.9482,1.9591,1.9866,1.9686,1.9004,1.7267,1.5843,1.496,1.2055,0.8372,0.601,0.4059,0.1663,0.0678,-0.0061,-0.102,-0.2644,-0.3755,-0.4669,-0.5006,-0.5431,-0.5864,-0.62,-0.6422,-0.698,-0.7149,-0.7371,-0.7371,-0.7482,-0.7593,-0.7756,-0.7642,-0.7418,-0.6972,-0.5468,-0.5192,-0.5027,-0.5139,-0.6528,-0.7864,-0.853,-0.9313,-0.932,-0.9154,-0.9103,-0.8992,-0.8978,-0.8903,-0.8914,-0.9038,-0.9043,-0.9147,-0.926,-0.9967,-1.0332,-1.0697,-1.0956,-1.1203,-1.0502,-0.9497,-0.9049,-0.8848,-0.8159,-0.7809,-0.7796,-0.735,-0.6371,-0.6121,-0.6116,-0.6066,-0.6166,-0.6613,-0.7222,-0.8189,-0.8497,-0.9303,-1.0044,-1.0042,-1.0365,-1.1225]},{"header":{"parameterUnit":"m.s-1","parameterCategory":1,"la1":31.0,"la2":29.5877,"lo1":-88.7671,"lo2":-86.6584,"dy":0.0162,"dx":0.0185,"nx":115,"ny":88,"refTime":"2026-04-30T12:00:00:Z","depth":0,"parameterNumber":3,"parameterNumberName":"V-component_of_WINDS"},"data":[0.0,0.0,0.0,0.0,0.0,0.0,0.0,0.0,0.0,0.0,0.0,0.0,0.0,0.0,0.0,0.0,0.0,0.0,0.0,0.0,0.0,0.0,0.0,0.0,0.0,0.0,0.0,0.0,0.0,0.0,0.0,0.0,0.0,0.0,0.0,0.0,0.0,0.0,0.0,0.0,0.0,0.0,0.0,0.0,0.0,0.0,0.0,0.0,0.0,0.0,0.0,0.0,0.0,0.0,0.0,0.0,0.0,0.0,0.0,0.0,0.0,0.0,0.0,0.0,0.0,0.0,0.0,0.0,0.0,0.0,0.0,0.0,0.0,0.0,0.0,0.0,0.0,0.0,0.0,0.0,0.0,0.0,0.0,0.0,0.0,0.0,0.0,0.0,0.0,0.0,0.0,0.0,0.0,0.0,0.0,0.0,0.0,0.0,0.0,0.0,0.0,0.0,0.0,0.0,0.0,0.0,0.0,0.0,0.0,0.0,0.0,0.0,0.0,0.0,0.0,0.0,0.0,0.0,0.0,0.0,0.0,0.0,0.0,0.0,0.0,0.0,0.0,0.0,0.0,0.0,0.0,0.0,0.0,0.0,0.0,0.0,0.0,0.0,0.0,0.0,0.0,0.0,0.0,0.0,0.0,0.0,0.0,0.0,0.0,0.0,0.0,0.0,0.0,0.0,0.0,0.0,0.0,0.0,0.0,0.0,0.0,0.0,0.0,0.0,0.0,0.0,0.0,0.0,0.0,0.0,0.0,0.0,0.0,0.0,0.0,0.0,0.0,0.0,0.0,0.0,0.0,0.0,0.0,0.0,0.0,0.0,0.0,0.0,0.0,0.0,0.0,0.0,0.0,0.0,0.0,0.0,0.0,0.0,0.0,0.0,0.0,0.0,0.0,0.0,0.0,0.0,0.0,0.0,0.0,0.0,0.0,0.0,0.0,0.0,0.0,0.0,0.0,0.0,0.0,0.0,0.0,0.0,0.0,0.0,0.0,0.0,0.0,0.0,0.0,0.0,0.0,0.0,0.0,0.0,0.0,0.0,0.0,0.0,0.0,0.0,0.0,0.0,0.0,0.0,0.0,0.0,0.0,0.0,0.0,0.0,0.0,0.0,0.0,0.0,0.0,0.0,0.0,0.0,0.0,0.0,0.0,0.0,0.0,0.0,0.0,0.0,0.0,0.0,0.0,0.0,0.0,0.0,0.0,0.0,0.0,0.0,0.0,0.0,0.0,0.0,0.0,0.0,0.0,0.0,0.0,0.0,0.0,0.0,0.0,0.0,0.0,0.0,0.0,0.0,0.0,0.0,0.0,0.0,0.0,0.0,0.0,0.0,0.0,0.0,0.0,0.0,0.0,0.0,0.0,0.0,0.0,0.0,0.0,0.0,0.0,0.0,0.0,0.0,0.0,0.0,0.0,0.0,0.0,0.0,0.0,0.0,0.0,0.0,0.0,0.0,0.0,0.0,0.0,0.0,0.0,0.0,0.0,0.0,0.0,0.0,0.0,0.0,0.0,0.0,0.0,0.0,0.0,0.0,0.0,0.0,0.0,0.0,0.0,0.0,0.0,0.0,0.0,0.0,0.0,0.0,0.0,0.0,0.0,0.0,0.0,0.0,0.0,0.0,0.0,0.0,0.0,0.0,0.0,0.0,0.0,0.0,0.0,0.0,0.0,0.0,0.0,0.0,0.0,0.0,0.0,0.0,0.0,0.0,0.0,0.0,0.0,0.0,0.0,0.0,0.0,0.0,0.0,0.0,0.0,0.0,0.0,0.0,0.0,0.0,0.0,0.0,0.0,0.0,0.0,0.0,0.0,0.0,0.0,0.0,0.0,0.0,0.0,0.0,0.0,0.0,0.0,0.0,0.0,0.0,0.0,0.0,0.0,0.0,0.0,0.0,0.0,0.0,0.0,0.0,0.0,0.0,0.0,0.0,0.0,0.0,0.0,0.0,0.0,0.0,0.0,0.0,0.0,0.0,0.0,0.0,0.0,0.0,0.0,0.0,0.0,0.0,0.0,0.0,0.0,0.0,0.0,0.0,0.0,0.0,0.0,0.0,0.0,0.0,0.0,0.0,0.0,0.0,0.0,0.0,0.0,0.0,0.0,0.0,0.0,0.0,0.0,0.0,0.0,0.0,0.0,0.0,0.0,0.0,0.0,0.0,0.0,0.0,0.0,0.0,0.0,0.0,0.0,0.0,0.0,0.0,0.0,0.0,0.0,0.0,0.0,0.0,0.0,0.0,0.0,0.0,0.0,0.0,0.0,0.0,0.0,0.0,0.0,0.0,0.0,0.0,0.0,0.0,0.0,0.0,0.0,0.0,0.0,0.0,0.0,0.0,0.0,0.0,0.0,0.0,0.0,0.0,0.0,0.0,0.0,0.0,0.0,0.0,0.0,0.0,0.0,0.0,0.0,0.0,0.0,0.0,0.0,0.0,0.0,0.0,0.0,0.0,0.0,0.0,0.0,0.0,0.0,0.0,0.0,0.0,0.0,0.0,0.0,0.0,0.0,0.0,0.0,0.0,0.0,0.0,0.0,0.0,0.0,0.0,0.0,0.0,0.0,0.0,0.0,0.0,0.0,0.0,0.0,0.0,0.0,0.0,0.0,0.0,0.0,0.0,0.0,0.0,0.0,0.0,0.0,0.0,0.0,0.0,0.0,0.0,0.0,0.0,0.0,0.0,0.0,0.0,0.0,0.0,0.0,0.0,0.0,0.0,0.0,0.0,0.0,0.0,0.0,0.0,0.0,0.0,0.0,0.0,0.0,0.0,0.0,0.0,0.0,0.0,0.0,0.0,0.0,0.0,0.0,0.0,0.0,0.0,0.0,0.0,0.0,0.0,0.0,0.0,0.0,0.0,0.0,0.0,0.0,0.0,0.0,0.0,0.0,0.0,0.0,0.0,0.0,0.0,0.0,0.0,0.0,0.0,0.0,0.0,0.0,0.0,0.0,0.0,0.0,0.0,0.0,0.0,0.0,0.0,0.0,0.0,0.0,0.0,0.0,0.0,0.0,0.0,0.0,0.0,0.0,0.0,0.0,0.0,0.0,0.0,0.0,0.0,0.0,0.0,0.0,0.0,0.0,0.0,0.0,0.0,0.0,0.0,0.0,0.0,0.0,0.0,0.0,0.0,0.0,0.0,0.0,0.0,0.0,0.0,0.0,0.0,0.0,0.0,0.0,0.0,0.0,0.0,0.0,0.0,0.0,0.0,0.0,0.0,0.0,0.0,0.0,0.0,0.0,0.0,0.0,0.0,0.0,0.0,0.0,0.0,0.0,0.0,0.0,0.0,0.0,0.0,0.0,0.0,0.0,0.0,0.0,0.0,0.0,0.0,0.0,0.0,0.0,0.0,0.0,0.0,0.0,0.0,0.0,0.0,0.0,0.0,0.0,0.0,0.0,0.0,0.0,0.0,0.0,0.0,0.0,0.0,0.0,0.0,0.0,0.0,0.0,0.0,0.0,0.0,0.0,0.0,0.0,0.0,0.0,0.0,0.0,0.0,0.0,0.0,0.0,0.0,0.0,0.0,0.0,0.0,0.0,0.0,0.0,0.0,0.0,0.0,0.0,0.0,0.0,0.0,0.0,0.0,0.0,0.0,0.0,0.0,0.0,0.0,0.0,0.0,0.0,0.0,0.0,0.0,0.0,0.0,0.0,0.0,0.0,0.0,0.0,0.0,0.0,0.0,0.0,0.0,0.0,0.0,0.0,0.0,0.0,0.0,0.0,0.0,0.0,0.0,0.0,0.0,0.0,0.0,0.0,0.0,0.0,0.0,0.0,0.0,0.0,0.0,0.0,0.0,0.0,0.0,0.0,0.0,0.0,0.0,0.0,0.0,0.0,0.0,0.0,0.0,0.0,0.0,0.0,0.0,0.0,0.0,0.0,0.0,0.0,0.0,0.0,0.0,0.0,0.0,0.0,0.0,0.0,0.0,0.0,0.0,0.0,0.0,0.0,0.0,0.0,0.0,0.0,0.0,0.0,0.0,0.0,0.0,0.0,0.0,0.0,0.0,0.0,0.0,0.0,0.0,0.0,0.0,0.0,0.0,0.0,0.0,0.0,0.0,0.0,0.0,0.0,0.0,0.0,0.0,0.0,0.0,0.0,0.0,0.0,0.0,0.0,0.0,0.0,0.0,0.0,0.0,0.0,0.0,0.0,0.0,0.0,0.0,0.0,0.0,0.0,0.0,0.0,0.0,0.0,0.0,0.0,0.0,0.0,0.0,0.0,0.0,0.0,0.0,0.0,0.0,0.0,0.0,1.6787,0.0,0.0,0.0,0.0,0.0,0.0,0.0,0.0,0.0,0.0,0.0,0.0,0.0,0.0,0.0,0.0,0.0,0.0,0.0,0.0,0.0,0.0,0.0,0.0,0.0,0.0,0.0,0.0,0.0,0.0,0.0,0.0,0.0,0.0,0.0,0.0,0.0,0.0,0.0,0.0,0.0,0.0,0.0,0.0,0.0,0.0,0.0,0.0,0.0,0.0,0.0,0.0,0.0,0.0,0.0,0.0,0.0,0.0,0.0,0.0,0.0,0.0,0.0,0.0,0.0,0.0,0.0,0.0,0.0,0.0,0.0,0.0,0.0,0.0,0.0,0.0,0.0,0.0,0.0,0.0,0.0,0.0,0.0,0.0,0.0,0.0,0.0,0.0,0.0,0.0,0.0,0.0,0.0,0.0,0.0,0.0,0.0,0.0,0.0,0.0,0.0,0.0,0.0,0.0,0.0,0.0,0.0,0.0,0.0,0.0,1.9824,1.9629,1.9209,1.8389,1.7171,0.0,0.0,0.0,0.0,0.0,0.0,0.0,0.0,0.0,0.0,0.0,0.0,0.0,0.0,0.0,0.0,0.0,0.0,0.0,0.0,0.0,0.0,0.0,0.0,0.0,0.0,0.0,0.0,0.0,0.0,0.0,0.0,0.0,0.0,0.0,0.0,0.0,0.0,0.0,0.0,0.0,0.0,0.0,0.0,0.0,0.0,0.0,0.0,0.0,0.0,0.0,0.0,0.0,0.0,0.0,0.0,0.0,0.0,0.0,0.0,0.0,0.0,0.0,0.0,0.0,0.0,0.0,0.0,0.0,0.0,0.0,0.0,0.0,0.0,0.0,0.0,0.0,0.0,0.0,0.0,0.0,0.0,0.0,0.0,0.0,0.0,0.0,0.0,0.0,0.0,0.0,0.0,0.0,0.0,0.0,0.0,0.0,0.0,0.0,0.0,0.0,0.0,0.0,0.0,0.0,0.0,0.0,0.0,0.0,0.0,0.0,0.0,1.9404,1.8809,1.7807,0.0,0.0,0.0,0.0,0.0,0.0,0.0,0.0,0.0,0.0,0.0,0.0,0.0,0.0,0.0,0.0,0.0,0.0,0.0,0.0,0.0,0.0,0.0,0.0,0.0,0.0,0.0,0.0,0.0,0.0,0.0,0.0,0.0,0.0,0.0,0.0,0.0,0.0,0.0,0.0,0.0,0.0,0.0,0.0,0.0,0.0,0.0,0.0,0.0,0.0,0.0,0.0,0.0,0.0,0.0,0.0,0.0,0.0,0.0,0.0,0.0,0.0,0.0,0.0,0.0,0.0,0.0,0.0,0.0,0.0,0.0,0.0,0.0,0.0,0.0,0.0,0.0,0.0,0.0,0.0,0.0,0.0,0.0,0.0,0.0,0.0,0.0,0.0,0.0,0.0,0.0,0.0,0.0,0.0,0.0,0.0,0.0,0.0,0.0,0.0,0.0,0.0,0.0,0.0,0.0,0.0,0.0,0.0,0.0,0.0,1.9541,1.8754,1.9102,0.0,1.8788,0.0,0.0,0.0,0.0,0.0,0.0,0.0,0.0,0.0,0.0,0.0,0.0,0.0,0.0,0.0,0.0,0.0,0.0,0.0,0.0,0.0,0.0,0.0,0.0,0.0,0.0,0.0,0.0,0.0,0.0,0.0,0.0,0.0,0.0,0.0,0.0,0.0,0.0,0.0,0.0,0.0,0.0,0.0,0.0,0.0,0.0,0.0,0.0,0.0,0.0,0.0,0.0,0.0,0.0,0.0,0.0,0.0,0.0,0.0,0.0,0.0,0.0,0.0,0.0,0.0,0.0,0.0,0.0,0.0,0.0,0.0,0.0,0.0,0.0,0.0,0.0,0.0,0.0,0.0,0.0,0.0,0.0,0.0,0.0,0.0,0.0,0.0,0.0,0.0,0.0,0.0,0.0,0.0,0.0,0.0,0.0,0.0,0.0,0.0,0.0,0.0,0.0,0.0,0.0,0.0,0.0,0.0,0.0,0.0,0.0,1.9492,1.9358,1.8594,1.8395,0.0,0.0,0.0,0.0,0.0,0.0,0.0,0.0,0.0,0.0,0.0,0.0,0.0,0.0,0.0,0.0,0.0,0.0,0.0,0.0,0.0,0.0,0.0,0.0,0.0,0.0,0.0,0.0,0.0,0.0,0.0,0.0,0.0,0.0,0.0,0.0,0.0,0.0,0.0,0.0,0.0,0.0,0.0,0.0,0.0,0.0,0.0,0.0,0.0,0.0,0.0,0.0,0.0,0.0,0.0,0.0,0.0,0.0,0.0,0.0,0.0,0.0,0.0,0.0,0.0,0.0,0.0,0.0,0.0,0.0,0.0,0.0,0.0,0.0,0.0,0.0,0.0,0.0,0.0,0.0,0.0,0.0,0.0,0.0,0.0,0.0,0.0,0.0,0.0,0.0,0.0,0.0,0.0,0.0,0.0,0.0,0.0,0.0,0.0,0.0,0.0,0.0,0.0,0.0,0.0,0.0,0.0,0.0,0.0,0.0,1.9424,1.9258,1.9446,1.8262,1.7968,1.8873,0.0,0.0,0.0,0.0,0.0,0.0,0.0,0.0,0.0,0.0,0.0,0.0,0.0,0.0,0.0,0.0,0.0,0.0,0.0,0.0,0.0,0.0,0.0,0.0,0.0,0.0,0.0,0.0,0.0,0.0,0.0,0.0,0.0,0.0,0.0,0.0,0.0,0.0,0.0,0.0,0.0,0.0,0.0,0.0,0.0,0.0,0.0,0.0,0.0,0.0,0.0,0.0,0.0,0.0,0.0,0.0,0.0,0.0,0.0,0.0,0.0,0.0,0.0,0.0,0.0,0.0,0.0,0.0,0.0,0.0,0.0,0.0,0.0,0.0,0.0,0.0,0.0,0.0,0.0,0.0,0.0,0.0,0.0,0.0,0.0,0.0,0.0,0.0,0.0,0.0,0.0,0.0,0.0,0.0,0.0,0.0,0.0,0.0,0.0,0.0,0.0,0.0,0.0,0.0,0.0,0.0,0.0,0.0,1.8734,1.8666,1.8637,1.8656,1.8232,1.8273,0.0,0.0,0.0,0.0,0.0,0.0,0.0,0.0,0.0,0.0,0.0,0.0,0.0,0.0,0.0,0.0,0.0,0.0,0.0,0.0,0.0,0.0,0.0,0.0,0.0,0.0,0.0,0.0,0.0,0.0,0.0,0.0,0.0,0.0,0.0,0.0,0.0,0.0,0.0,0.0,0.0,0.0,0.0,0.0,0.0,0.0,0.0,0.0,0.0,0.0,0.0,0.0,0.0,0.0,0.0,0.0,0.0,0.0,0.0,0.0,0.0,0.0,0.0,0.0,0.0,0.0,0.0,0.0,0.0,0.0,0.0,0.0,0.0,0.0,0.0,0.0,0.0,0.0,0.0,0.0,0.0,0.0,0.0,0.0,0.0,0.0,0.0,0.0,0.0,0.0,0.0,0.0,0.0,0.0,0.0,0.0,0.0,0.0,0.0,0.0,0.0,0.0,0.0,0.0,0.0,0.0,0.0,0.0,0.0,1.9062,1.8744,1.8471,1.8232,1.7525,1.755,0.0,0.0,0.0,0.0,0.0,0.0,0.0,0.0,0.0,0.0,0.0,0.0,0.0,0.0,0.0,0.0,0.0,0.0,0.0,0.0,0.0,0.0,0.0,0.0,0.0,0.0,0.0,0.0,0.0,0.0,0.0,0.0,0.0,0.0,0.0,0.0,0.0,0.0,0.0,0.0,0.0,0.0,0.0,0.0,0.0,0.0,0.0,0.0,0.0,0.0,0.0,0.0,0.0,0.0,0.0,0.0,0.0,0.0,0.0,0.0,0.0,0.0,0.0,0.0,0.0,0.0,0.0,0.0,0.0,0.0,0.0,0.0,0.0,0.0,0.0,0.0,0.0,0.0,0.0,0.0,0.0,0.0,0.0,0.0,0.0,0.0,0.0,0.0,0.0,0.0,0.0,0.0,0.0,0.0,0.0,0.0,0.0,0.0,0.0,0.0,0.0,0.0,0.0,0.0,0.0,0.0,0.0,0.0,0.0,1.8896,0.0,1.8266,1.7998,1.7533,1.7626,0.0,0.0,0.0,0.0,0.0,0.0,0.0,0.0,0.0,0.0,0.0,0.0,0.0,0.0,0.0,0.0,0.0,0.0,0.0,0.0,0.0,0.0,0.0,0.0,0.0,0.0,0.0,0.0,0.0,0.0,0.0,0.0,0.0,0.0,0.0,0.0,0.0,0.0,0.0,0.0,0.0,0.0,0.0,0.0,0.0,0.0,0.0,0.0,0.0,0.0,0.0,0.0,0.0,0.0,0.0,0.0,0.0,0.0,0.0,0.0,0.0,0.0,0.0,0.0,0.0,0.0,0.0,0.0,0.0,0.0,0.0,0.0,0.0,0.0,0.0,0.0,0.0,0.0,0.0,0.0,0.0,0.0,0.0,0.0,0.0,0.0,0.0,0.0,0.0,0.0,0.0,0.0,0.0,0.0,0.0,0.0,0.0,0.0,0.0,0.0,0.0,0.0,0.0,0.0,0.0,0.0,0.0,0.0,1.8867,1.8066,1.8027,1.8027,1.7998,1.8253,1.8574,0.0,0.0,0.0,0.0,0.0,0.0,0.0,0.0,0.0,0.0,0.0,0.0,0.0,0.0,0.0,0.0,0.0,0.0,0.0,0.0,0.0,0.0,0.0,0.0,0.0,0.0,0.0,0.0,0.0,0.0,0.0,0.0,0.0,0.0,0.0,0.0,0.0,0.0,0.0,0.0,0.0,0.0,0.0,0.0,0.0,0.0,0.0,0.0,0.0,0.0,0.0,0.0,0.0,0.0,0.0,0.0,0.0,0.0,0.0,0.0,0.0,0.0,0.0,0.0,0.0,0.0,0.0,0.0,0.0,0.0,0.0,0.0,0.0,0.0,0.0,0.0,0.0,0.0,0.0,0.0,0.0,0.0,0.0,0.0,0.0,0.0,0.0,0.0,0.0,0.0,0.0,0.0,0.0,0.0,0.0,0.0,0.0,0.0,0.0,0.0,0.0,0.0,0.0,0.0,0.0,0.0,0.0,0.0,0.0,1.8018,1.8008,1.8008,1.7988,1.801,1.8117,0.0,0.0,0.0,0.0,0.0,0.0,0.0,0.0,0.0,0.0,0.0,0.0,0.0,0.0,0.0,0.0,0.0,0.0,0.0,0.0,0.0,0.0,0.0,0.0,0.0,0.0,0.0,0.0,0.0,0.0,0.0,0.0,0.0,0.0,0.0,0.0,0.0,0.0,0.0,0.0,0.0,0.0,0.0,0.0,0.0,0.0,0.0,0.0,0.0,0.0,0.0,0.0,0.0,0.0,0.0,0.0,0.0,0.0,0.0,0.0,0.0,0.0,0.0,0.0,0.0,0.0,0.0,0.0,0.0,0.0,0.0,0.0,0.0,0.0,0.0,0.0,0.0,0.0,0.0,0.0,0.0,0.0,0.0,0.0,0.0,0.0,0.0,0.0,0.0,0.0,0.0,0.0,0.0,0.0,0.0,0.0,0.0,0.0,0.0,0.0,0.0,0.0,0.0,0.0,0.0,0.0,0.0,0.0,0.0,1.8008,1.8008,1.8134,1.8496,1.8302,1.8431,1.8861,0.0,0.0,0.0,0.0,0.0,0.0,0.0,0.0,0.0,0.0,0.0,0.0,0.0,0.0,0.0,0.0,0.0,0.0,0.0,0.0,0.0,0.0,0.0,0.0,0.0,0.0,0.0,0.0,0.0,0.0,0.0,0.0,0.0,0.0,0.0,0.0,0.0,0.0,0.0,0.0,0.0,0.0,0.0,0.0,0.0,0.0,0.0,0.0,0.0,0.0,0.0,0.0,0.0,0.0,0.0,0.0,0.0,0.0,0.0,0.0,0.0,0.0,0.0,0.0,0.0,0.0,0.0,0.0,0.0,0.0,0.0,0.0,0.0,0.0,0.0,0.0,0.0,0.0,0.0,0.0,0.0,0.0,0.0,0.0,0.0,0.0,0.0,0.0,0.0,0.0,0.0,0.0,0.0,0.0,0.0,0.0,0.0,0.0,0.0,0.0,0.0,0.0,0.0,0.0,0.0,0.0,0.0,0.0,1.8037,1.8052,1.8452,1.9255,1.9031,1.932,0.0,0.0,0.0,0.0,0.0,0.0,0.0,0.0,0.0,0.0,0.0,0.0,0.0,0.0,0.0,0.0,0.0,0.0,0.0,0.0,0.0,0.0,0.0,0.0,0.0,0.0,0.0,0.0,0.0,0.0,0.0,0.0,0.0,0.0,0.0,0.0,0.0,0.0,0.0,0.0,0.0,0.0,0.0,0.0,0.0,0.0,0.0,0.0,0.0,0.0,0.0,0.0,0.0,0.0,0.0,0.0,0.0,0.0,0.0,0.0,0.0,0.0,0.0,0.0,0.0,0.0,0.0,0.0,0.0,0.0,0.0,0.0,0.0,0.0,0.0,0.0,0.0,0.0,0.0,0.0,0.0,0.0,0.0,0.0,0.0,0.0,0.0,0.0,0.0,0.0,0.0,0.0,0.0,0.0,0.0,0.0,0.0,0.0,0.0,0.0,0.0,0.0,0.0,0.0,0.0,0.0,0.0,0.0,0.0,1.8437,1.8782,1.9077,1.9278,1.9031,1.9508,0.0,0.0,0.0,0.0,0.0,0.0,0.0,0.0,0.0,0.0,0.0,0.0,0.0,0.0,0.0,0.0,0.0,0.0,0.0,0.0,0.0,0.0,0.0,0.0,0.0,0.0,0.0,0.0,0.0,0.0,0.0,0.0,0.0,0.0,0.0,0.0,0.0,0.0,0.0,0.0,0.0,0.0,0.0,0.0,0.0,0.0,0.0,0.0,0.0,0.0,0.0,0.0,0.0,0.0,0.0,0.0,0.0,0.0,0.0,0.0,0.0,0.0,0.0,0.0,0.0,0.0,0.0,0.0,0.0,0.0,0.0,0.0,0.0,0.0,0.0,0.0,0.0,0.0,0.0,0.0,0.0,0.0,0.0,0.0,0.0,0.0,0.0,0.0,0.0,0.0,0.0,0.0,0.0,0.0,0.0,0.0,0.0,0.0,0.0,0.0,0.0,0.0,0.0,0.0,0.0,0.0,0.0,0.0,1.8286,1.8891,1.9135,1.9661,2.0398,2.0002,2.0332,0.0,0.0,0.0,0.0,0.0,0.0,0.0,0.0,0.0,0.0,0.0,0.0,0.0,0.0,0.0,0.0,0.0,0.0,0.0,0.0,0.0,0.0,0.0,0.0,0.0,0.0,0.0,0.0,0.0,0.0,0.0,0.0,0.0,0.0,0.0,0.0,0.0,0.0,0.0,0.0,0.0,0.0,0.0,0.0,0.0,0.0,0.0,0.0,0.0,0.0,0.0,0.0,0.0,0.0,0.0,0.0,0.0,0.0,0.0,0.0,0.0,0.0,0.0,0.0,0.0,0.0,0.0,0.0,0.0,0.0,0.0,0.0,0.0,0.0,0.0,0.0,0.0,0.0,0.0,0.0,0.0,0.0,0.0,0.0,0.0,0.0,0.0,0.0,0.0,0.0,0.0,0.0,0.0,0.0,0.0,0.0,0.0,0.0,0.0,0.0,0.0,0.0,0.0,0.0,0.0,0.0,0.0,0.0,1.8528,1.9423,1.9545,2.0357,2.1874,2.1348,2.1433,0.0,0.0,0.0,0.0,0.0,0.0,0.0,0.0,0.0,0.0,0.0,0.0,0.0,0.0,0.0,0.0,0.0,0.0,0.0,0.0,0.0,0.0,0.0,0.0,0.0,0.0,0.0,0.0,0.0,0.0,0.0,0.0,0.0,0.0,0.0,0.0,0.0,0.0,0.0,0.0,0.0,0.0,0.0,0.0,0.0,0.0,0.0,0.0,0.0,0.0,0.0,0.0,0.0,0.0,0.0,0.0,0.0,0.0,0.0,0.0,0.0,0.0,0.0,0.0,0.0,0.0,0.0,0.0,0.0,0.0,0.0,0.0,0.0,0.0,0.0,0.0,0.0,0.0,0.0,0.0,0.0,0.0,0.0,0.0,0.0,0.0,0.0,0.0,0.0,0.0,0.0,0.0,0.0,0.0,0.0,0.0,0.0,0.0,0.0,0.0,0.0,0.0,0.0,0.0,0.0,0.0,0.0,0.0,1.9109,2.0449,2.1096,2.1788,2.2496,2.1538,2.1614,0.0,0.0,0.0,0.0,0.0,0.0,0.0,0.0,0.0,0.0,0.0,0.0,0.0,0.0,0.0,0.0,0.0,0.0,0.0,0.0,0.0,0.0,0.0,0.0,0.0,0.0,0.0,0.0,0.0,0.0,0.0,0.0,0.0,0.0,0.0,0.0,0.0,0.0,0.0,0.0,0.0,0.0,0.0,0.0,0.0,0.0,0.0,0.0,1.4296,0.0,0.0,0.0,0.0,0.0,0.0,0.0,0.0,0.0,0.0,0.0,0.0,0.0,0.0,0.0,0.0,0.0,0.0,0.0,0.0,0.0,0.0,0.0,0.0,0.0,0.0,0.0,0.0,0.0,0.0,0.0,0.0,0.0,0.0,0.0,0.0,0.0,0.0,0.0,0.0,0.0,0.0,0.0,0.0,0.0,0.0,0.0,0.0,0.0,0.0,0.0,0.0,0.0,0.0,0.0,0.0,0.0,0.0,0.0,1.9499,2.0709,2.1563,2.2332,2.2941,2.2592,2.2622,0.0,0.0,0.0,0.0,0.0,0.0,0.0,0.0,0.0,0.0,0.0,0.0,0.0,0.0,0.0,0.0,0.0,0.0,0.0,0.0,0.0,0.0,0.0,0.0,0.0,0.0,0.0,0.0,0.0,0.0,0.0,0.0,0.0,0.0,0.0,0.0,0.0,0.0,0.0,0.0,0.0,0.0,0.0,0.0,0.0,0.0,0.0,0.0,0.0,0.0,0.0,0.0,0.0,0.0,0.0,0.0,0.0,0.0,0.0,0.0,0.0,0.0,0.0,0.0,0.0,0.0,0.0,0.0,0.0,0.0,0.0,0.0,0.0,0.0,0.0,0.0,0.0,0.0,0.0,0.0,0.0,0.0,0.0,0.0,0.0,0.0,0.0,0.0,0.0,0.0,0.0,0.0,0.0,0.0,0.0,0.0,0.0,0.0,0.0,0.0,0.0,0.0,0.0,0.0,0.0,0.0,0.0,1.9199,1.9839,2.0707,2.1715,2.2617,2.3408,2.387,2.3853,2.3271,0.0,0.0,0.0,0.0,0.0,0.0,0.0,0.0,0.0,0.0,0.0,0.0,0.0,0.0,0.0,0.0,0.0,0.0,0.0,0.0,0.0,0.0,0.0,0.0,0.0,0.0,0.0,0.0,0.0,0.0,0.0,0.0,0.0,0.0,0.0,0.0,0.0,0.0,1.0368,1.0585,0.0,0.0,0.0,0.0,0.0,0.0,0.0,0.0,1.6361,0.0,0.0,0.0,0.0,0.0,0.0,0.0,0.0,0.0,0.0,0.0,0.0,0.0,0.0,0.0,0.0,0.0,0.0,0.0,0.0,0.0,0.0,0.0,0.0,0.0,0.0,0.0,0.0,0.0,0.0,0.0,0.0,0.0,0.0,0.0,0.0,0.0,0.0,0.0,0.0,0.0,0.0,0.0,0.0,0.0,0.0,0.0,0.0,0.0,0.0,0.0,0.0,0.0,0.0,0.0,0.0,1.965,1.9775,2.0279,2.1251,2.256,2.3518,2.4032,2.4456,2.4418,2.3879,0.0,0.0,0.0,0.0,0.0,0.0,0.0,0.0,0.0,0.0,0.0,0.0,0.0,0.0,0.0,0.0,0.0,0.0,0.0,0.0,0.0,0.0,0.0,0.0,0.0,0.0,0.0,0.0,0.0,0.0,0.0,0.0,0.0,0.0,0.0,0.0,0.0,0.0,0.0,1.1418,1.1514,0.0,0.0,0.0,0.0,0.0,0.0,0.0,0.0,1.6729,0.0,0.0,0.0,0.0,0.0,0.0,0.0,0.0,0.0,0.0,0.0,0.0,0.0,0.0,0.0,0.0,0.0,0.0,0.0,0.0,0.0,0.0,0.0,0.0,0.0,0.0,0.0,0.0,0.0,0.0,0.0,0.0,0.0,0.0,0.0,0.0,0.0,0.0,0.0,0.0,0.0,0.0,0.0,0.0,0.0,0.0,0.0,0.0,0.0,0.0,0.0,0.0,0.0,0.0,0.0,1.958,2.0029,2.0511,2.1032,2.2631,2.3596,2.3812,2.4448,2.4695,0.0,0.0,0.0,0.0,0.0,0.0,0.0,0.0,0.0,0.0,0.0,0.0,0.0,0.0,0.0,0.0,0.0,0.0,0.0,0.0,0.0,0.0,0.0,0.0,0.0,0.0,0.0,0.0,0.0,0.0,0.0,0.0,0.0,0.0,0.0,0.0,0.0,0.0,0.0,0.0,1.1698,1.1866,1.204,0.0,0.0,0.0,0.0,0.0,0.0,1.6115,1.6583,0.0,0.0,0.0,0.0,0.0,0.0,0.0,0.0,0.0,0.0,0.0,0.0,0.0,0.0,0.0,0.0,0.0,0.0,0.0,0.0,0.0,0.0,0.0,0.0,0.0,0.0,0.0,0.0,0.0,0.0,0.0,0.0,0.0,0.0,0.0,0.0,0.0,0.0,0.0,0.0,0.0,0.0,0.0,0.0,0.0,0.0,0.0,0.0,0.0,0.0,0.0,0.0,0.0,0.0,0.0,1.9434,2.0214,2.0615,2.0683,2.2489,2.3478,2.3503,2.4321,2.48,0.0,0.0,0.0,0.0,0.0,0.0,0.0,0.0,0.0,0.0,0.0,0.0,0.0,0.0,0.0,0.0,0.0,0.0,0.0,0.0,0.0,0.0,0.0,0.0,0.0,0.0,0.0,0.0,0.0,0.0,0.0,0.0,0.0,0.0,0.0,0.0,0.0,0.0,0.0,0.0,0.0,1.2598,1.3069,1.3597,0.0,0.0,0.0,0.0,1.6015,1.6144,0.0,0.0,0.0,0.0,0.0,0.0,0.0,0.0,0.0,0.0,0.0,0.0,0.0,0.0,0.0,0.0,0.0,0.0,0.0,0.0,0.0,0.0,0.0,0.0,0.0,0.0,0.0,0.0,0.0,0.0,0.0,0.0,0.0,0.0,0.0,0.0,0.0,0.0,0.0,0.0,0.0,0.0,0.0,0.0,0.0,0.0,0.0,0.0,0.0,0.0,0.0,0.0,0.0,0.0,0.0,0.0,1.9844,2.0312,2.0615,2.0683,2.2489,2.3478,2.3503,2.4333,2.48,0.0,0.0,0.0,0.0,0.0,0.0,0.0,0.0,0.0,0.0,0.0,0.0,0.0,0.0,0.0,0.0,0.0,0.0,0.0,0.0,0.0,0.0,0.0,0.0,0.0,0.0,0.0,0.0,0.0,0.0,0.0,0.0,0.0,0.0,0.0,0.0,0.0,0.0,0.0,0.0,0.0,1.4301,1.3616,1.4484,1.4964,0.0,0.0,1.5462,1.5879,1.6367,0.0,0.0,0.0,0.0,0.0,0.0,0.0,0.0,0.0,0.0,0.0,0.0,0.0,0.0,0.0,0.0,0.0,0.0,0.0,0.0,0.0,0.0,0.0,0.0,0.0,0.0,0.0,0.0,0.0,0.0,0.0,0.0,0.0,0.0,0.0,0.0,0.0,0.0,0.0,0.0,0.0,0.0,0.0,0.0,0.0,0.0,0.0,0.0,0.0,0.0,0.0,0.0,0.0,0.0,0.0,1.9375,1.957,2.0263,2.0867,2.1413,2.2776,2.3781,2.4337,2.4661,2.465,0.0,0.0,0.0,0.0,0.0,0.0,0.0,0.0,0.0,0.0,0.0,0.0,0.0,0.0,0.0,0.0,0.0,0.0,0.0,0.0,0.0,0.0,0.0,0.0,0.0,0.0,0.0,0.0,0.0,0.0,0.0,0.0,0.0,0.0,0.0,0.0,0.0,0.0,0.0,0.0,0.0,0.0,1.3976,1.4601,0.0,0.0,0.0,1.5365,1.6262,0.0,0.0,0.0,0.0,0.0,0.0,0.0,0.0,0.0,0.0,0.0,0.0,0.0,0.0,0.0,0.0,0.0,0.0,0.0,0.0,0.0,0.0,0.0,0.0,0.0,0.0,0.0,0.0,0.0,0.0,0.0,0.0,0.0,0.0,0.0,0.0,0.0,0.0,0.0,0.0,0.0,0.0,0.0,0.0,0.0,0.0,0.0,0.0,0.0,0.0,0.0,0.0,0.0,0.0,0.0,0.0,0.0,1.9297,2.0165,2.1078,2.1989,2.2988,2.3975,2.4957,2.4874,0.0,0.0,0.0,0.0,0.0,0.0,0.0,0.0,0.0,0.0,0.0,0.0,0.0,0.0,0.0,0.0,0.0,0.0,0.0,0.0,0.0,0.0,0.0,0.0,0.0,0.0,0.0,1.266,0.0,0.0,0.0,0.0,0.0,0.0,0.0,0.0,0.0,0.0,0.0,0.0,0.0,0.0,1.4621,1.4529,1.4754,1.5134,0.0,0.0,1.5611,1.6817,1.7153,1.7482,0.0,0.0,0.0,0.0,0.0,0.0,0.0,0.0,0.0,0.0,0.0,0.0,0.0,0.0,0.0,0.0,0.0,0.0,0.0,0.0,0.0,0.0,0.0,0.0,0.0,0.0,0.0,0.0,0.0,0.0,0.0,0.0,0.0,0.0,0.0,0.0,0.0,0.0,0.0,0.0,0.0,0.0,0.0,0.0,0.0,0.0,0.0,0.0,0.0,0.0,0.0,0.0,0.0,0.0,1.9277,1.9316,2.0165,2.1088,2.2,2.2999,2.3963,2.4957,2.4874,2.4525,0.0,0.0,0.0,0.0,0.0,0.0,0.0,0.0,0.0,0.0,0.0,0.0,0.0,0.0,0.0,0.0,0.0,0.0,0.0,0.0,0.0,0.0,0.0,0.0,0.0,0.0,0.0,0.0,0.0,0.0,0.0,0.0,0.0,0.0,0.0,0.0,0.0,0.0,0.0,0.0,0.0,1.5809,1.5371,1.5323,1.5613,0.0,1.6415,1.6655,1.7423,1.812,1.8402,1.8004,0.0,0.0,0.0,0.0,0.0,0.0,0.0,0.0,0.0,0.0,0.0,0.0,0.0,0.0,0.0,0.0,0.0,0.0,0.0,0.0,0.0,0.0,0.0,0.0,0.0,0.0,0.0,0.0,0.0,0.0,0.0,0.0,0.0,0.0,0.0,0.0,0.0,0.0,0.0,0.0,0.0,0.0,0.0,0.0,0.0,0.0,0.0,0.0,0.0,0.0,0.0,0.0,0.0,1.9414,1.9678,2.0264,2.1468,2.3275,2.3449,2.4241,2.5873,2.5186,2.4362,0.0,0.0,0.0,0.0,0.0,0.0,0.0,0.0,0.0,0.0,0.0,0.0,0.0,0.0,0.0,0.0,0.0,0.0,0.0,0.0,0.0,0.0,0.0,0.0,0.0,0.0,0.0,0.0,1.3176,1.3218,1.3325,0.0,0.0,0.0,0.0,0.0,0.0,0.0,0.0,0.0,0.0,1.6557,1.592,1.6507,0.0,0.0,1.7727,1.8364,1.8765,1.9369,1.9654,1.9278,1.994,0.0,0.0,0.0,0.0,0.0,0.0,0.0,0.0,0.0,0.0,0.0,0.0,0.0,0.0,0.0,0.0,0.0,0.0,0.0,0.0,0.0,0.0,0.0,0.0,0.0,0.0,0.0,0.0,0.0,0.0,0.0,0.0,0.0,0.0,0.0,0.0,0.0,0.0,0.0,0.0,0.0,0.0,0.0,0.0,0.0,0.0,0.0,0.0,0.0,0.0,0.0,0.0,1.9687,2.0107,2.0995,2.2358,2.4151,2.4215,2.492,2.6393,2.5398,2.4336,0.0,0.0,0.0,0.0,0.0,0.0,0.0,0.0,0.0,0.0,0.0,0.0,0.0,0.0,0.0,0.0,0.0,0.0,0.0,0.0,0.0,0.0,0.0,0.0,0.0,0.0,0.0,0.0,1.3987,1.4192,1.4808,0.0,0.0,0.0,0.0,0.0,0.0,0.0,0.0,0.0,0.0,1.7242,1.6739,1.743,1.8052,1.8262,1.9046,1.9848,2.041,2.0869,2.1095,2.1045,0.0,0.0,0.0,0.0,0.0,0.0,0.0,0.0,0.0,0.0,0.0,0.0,0.0,0.0,0.0,0.0,0.0,0.0,0.0,0.0,0.0,0.0,0.0,0.0,0.0,0.0,0.0,2.0595,0.0,0.0,2.0527,0.0,0.0,0.0,0.0,0.0,0.0,0.0,0.0,0.0,0.0,0.0,0.0,0.0,0.0,0.0,0.0,0.0,0.0,0.0,0.0,0.0,0.0,2.0155,2.0595,2.2446,2.3674,2.4249,2.5203,2.5972,2.6452,2.541,2.4556,2.3941,0.0,0.0,0.0,0.0,0.0,0.0,0.0,0.0,0.0,0.0,0.0,0.0,0.0,0.0,0.0,0.0,0.0,0.0,0.0,0.0,0.0,0.0,0.0,0.0,0.0,0.0,1.4823,1.4785,1.5223,0.0,0.0,0.0,0.0,0.0,0.0,0.0,0.0,0.0,1.8075,1.7975,1.7985,1.7975,1.7996,1.8646,2.0093,2.0377,2.0896,2.2283,2.2551,2.2762,0.0,0.0,0.0,0.0,0.0,0.0,0.0,0.0,0.0,0.0,0.0,0.0,0.0,0.0,0.0,0.0,0.0,0.0,0.0,0.0,0.0,0.0,0.0,0.0,0.0,0.0,0.0,2.1709,2.1496,0.0,0.0,0.0,0.0,0.0,0.0,0.0,0.0,0.0,0.0,0.0,2.6716,2.654,0.0,0.0,0.0,0.0,0.0,0.0,0.0,0.0,0.0,0.0,0.0,0.0,2.1555,2.2133,2.3029,2.42,2.5649,2.5796,2.602,2.6465,2.5737,2.4556,2.2924,0.0,0.0,0.0,0.0,0.0,0.0,0.0,0.0,0.0,0.0,0.0,0.0,0.0,0.0,0.0,0.0,0.0,0.0,0.0,0.0,0.0,0.0,0.0,0.0,0.0,1.6112,0.0,0.0,0.0,0.0,0.0,0.0,0.0,0.0,0.0,0.0,2.0265,2.038,2.004,1.9988,1.9807,1.9318,2.0008,2.0695,0.0,0.0,0.0,0.0,0.0,0.0,0.0,0.0,0.0,0.0,0.0,0.0,0.0,0.0,2.6651,2.5174,2.5075,2.5227,2.5227,0.0,0.0,0.0,0.0,0.0,0.0,0.0,0.0,0.0,0.0,0.0,0.0,0.0,0.0,2.2363,2.2119,2.2109,0.0,0.0,0.0,0.0,0.0,0.0,0.0,0.0,2.7543,2.8247,2.8411,2.8047,2.767,0.0,2.7354,2.6854,0.0,0.0,0.0,0.0,0.0,0.0,0.0,0.0,2.3074,2.3647,2.4598,2.5656,2.6697,2.6636,2.6649,2.6753,2.5812,2.4469,2.2619,2.1719,2.0918,0.0,0.0,0.0,0.0,0.0,0.0,0.0,0.0,0.0,0.0,0.0,0.0,0.0,0.0,0.0,0.0,0.0,0.0,0.0,0.0,0.0,0.0,0.0,1.7407,0.0,0.0,0.0,0.0,0.0,0.0,0.0,0.0,0.0,2.1267,2.1584,2.1745,2.1624,2.1597,2.14,2.0965,0.0,0.0,0.0,0.0,0.0,0.0,0.0,2.5516,2.639,2.6103,2.6249,2.7711,2.8178,2.8606,2.9417,0.0,0.0,2.7904,2.7646,2.7742,2.7929,2.8467,2.857,2.7576,2.757,2.7407,0.0,0.0,0.0,0.0,0.0,0.0,0.0,0.0,2.3037,2.2685,0.0,2.2637,0.0,0.0,0.0,0.0,2.3659,2.5183,0.0,0.0,2.9363,3.0131,3.0507,2.9477,2.8976,2.8963,2.895,2.865,2.8072,2.6515,0.0,0.0,0.0,0.0,0.0,0.0,2.461,2.5116,2.6986,2.7834,2.7389,2.7829,2.7821,2.7218,2.5699,2.4299,2.3183,2.2594,2.1873,2.095,2.0783,0.0,0.0,0.0,0.0,0.0,0.0,0.0,0.0,0.0,0.0,0.0,0.0,0.0,0.0,0.0,0.0,0.0,0.0,0.0,0.0,1.8566,0.0,0.0,0.0,0.0,0.0,0.0,0.0,0.0,0.0,2.2895,2.2393,2.241,2.2476,2.2735,0.0,0.0,0.0,0.0,2.2889,2.3105,2.3852,2.4622,2.5315,2.5999,2.6889,2.811,0.0,0.0,2.896,2.9651,3.0104,3.0142,3.0661,3.1332,3.1628,3.101,3.0767,3.115,3.0427,2.9726,2.9605,2.8999,2.8403,2.8391,0.0,0.0,0.0,0.0,2.4707,2.4951,2.5625,2.5391,2.4912,2.4336,2.4336,0.0,0.0,0.0,0.0,0.0,0.0,2.8603,2.9391,3.0465,3.1009,3.1148,3.0834,3.0696,3.067,3.0319,2.9842,2.9289,2.8411,2.7507,2.6615,0.0,0.0,0.0,0.0,2.6558,2.6811,2.7632,2.8213,2.8447,2.8225,2.7657,2.6751,2.5837,2.487,2.3778,2.317,2.2385,2.1385,2.0918,0.0,0.0,0.0,0.0,0.0,0.0,0.0,0.0,0.0,0.0,0.0,0.0,0.0,0.0,0.0,0.0,0.0,0.0,0.0,1.9158,2.0158,2.0686,0.0,0.0,0.0,0.0,0.0,0.0,0.0,0.0,0.0,2.3489,2.3866,2.4123,0.0,0.0,2.4216,2.4204,2.4171,2.426,2.4481,2.5181,0.0,2.6139,2.6407,2.7152,2.8815,2.9812,3.0249,2.9848,3.0395,3.0886,3.0869,3.1055,3.1332,3.1697,3.1652,3.1549,3.1638,3.1653,3.1454,3.091,3.0381,2.9816,3.1434,2.884,2.6924,2.6353,2.6746,2.6484,2.6786,2.7392,2.6695,2.6094,2.5644,2.5644,2.4873,2.3633,2.3977,0.0,0.0,0.0,2.9875,3.0772,3.1411,3.1851,3.2039,3.1825,3.1712,3.17,3.1173,3.0758,3.0419,3.0068,2.9465,2.8612,0.0,2.763,2.6749,2.7527,2.7952,2.8078,2.8526,2.8946,2.9239,2.8511,2.7682,2.6851,2.6025,2.5285,2.4657,2.4073,2.3258,2.2196,2.1832,2.1703,0.0,0.0,0.0,0.0,0.0,0.0,0.0,0.0,0.0,0.0,0.0,1.7611,1.7302,0.0,0.0,0.0,1.9891,2.0767,2.1841,2.2683,0.0,0.0,0.0,0.0,0.0,0.0,0.0,2.5318,2.4653,2.4243,2.4594,2.5109,2.5385,2.5159,2.5134,2.5134,2.5134,0.0,2.5613,2.5524,2.62,2.675,2.6888,2.6964,2.7546,2.9146,3.0414,3.1035,3.0666,3.092,3.1173,3.119,3.119,3.1271,3.1526,3.1564,3.1696,3.2004,3.2144,3.2038,3.1582,3.0959,3.0259,3.5332,3.3869,3.0003,2.8508,2.868,2.861,2.8733,2.888,2.7292,2.6553,2.6484,2.6494,2.584,2.4822,2.564,0.0,3.0066,3.0139,3.0967,3.2353,3.2353,3.2604,3.3043,3.2528,3.229,3.2265,3.1712,3.1449,3.1449,3.1399,3.1122,3.0543,2.9063,2.8285,2.8273,2.875,2.9001,2.8976,2.9528,2.9767,2.9704,2.8662,2.7846,2.7281,2.6226,2.5649,2.5586,2.5134,2.4349,2.3308,2.3195,2.3324,2.3554,0.0,0.0,0.0,0.0,0.0,0.0,0.0,0.0,0.0,0.0,0.0,0.0,0.0,0.0,2.1576,2.3528,0.0,2.5536,2.5619,0.0,0.0,0.0,2.5799,2.5744,2.5447,2.5508,2.614,0.0,0.0,2.5598,2.6135,2.6332,2.5824,2.5728,2.5695,2.5761,2.646,2.6829,2.6493,2.7097,2.7618,2.7608,2.7636,2.8055,2.921,3.0356,3.1075,3.1137,3.1173,3.119,3.119,3.119,3.119,3.119,3.123,3.1447,3.2196,3.2022,3.1735,3.1665,3.0939,3.0131,3.607,3.6008,3.4626,3.2875,3.0958,3.06,2.991,2.892,2.8457,2.7959,2.7373,2.7363,2.7592,2.7942,2.9113,3.0535,3.2203,3.3097,3.3495,3.3508,3.3508,3.3345,3.3081,3.2943,3.2867,3.283,3.229,3.2014,3.2001,3.1599,3.1122,3.0633,3.0206,2.9804,2.9428,2.993,3.0005,2.9591,2.9716,2.9591,2.9139,2.8461,2.7846,2.7293,2.665,2.6084,2.5624,2.5473,2.5109,2.4412,2.4029,2.4093,2.4728,2.2585,0.0,0.0,0.0,0.0,0.0,0.0,0.0,0.0,0.0,1.9719,2.0158,0.0,2.1977,0.0,2.5258,2.6162,2.6246,2.6706,0.0,0.0,2.6898,2.7129,2.7654,2.664,2.6142,2.6851,2.6147,2.5586,2.5586,2.6135,2.6676,2.7102,2.6667,2.6511,2.7109,2.7361,2.7766,2.8358,2.8682,2.8739,2.8367,2.8309,2.8535,2.9293,3.0038,3.0642,3.1114,3.119,3.119,3.119,3.119,3.119,3.119,3.119,3.1269,3.1466,3.1428,3.1351,3.1332,3.1099,3.0746,3.7797,3.8093,3.7748,3.6336,3.4242,3.2853,3.1827,3.0982,2.953,2.8652,2.8247,2.8473,2.9165,3.0171,3.1264,3.2477,3.372,3.4396,3.455,3.4274,3.4261,3.4098,3.3809,3.3558,3.3445,3.342,3.2867,3.2591,3.2579,3.229,3.1989,3.1712,3.1712,3.1424,3.0871,3.0457,3.0105,2.9792,2.9779,2.9641,2.9315,2.8762,2.821,2.7657,2.7153,2.66,2.6047,2.6021,2.5737,2.5184,2.4657,2.4882,2.5977,2.3992,2.3436,0.0,0.0,0.0,0.0,0.0,0.0,0.0,0.0,0.0,0.0,0.0,2.4296,2.5843,2.7157,2.8027,2.8265,2.8604,2.8805,2.8713,2.8987,2.9204,2.9327,2.819,2.7546,2.7947,2.6824,2.6144,2.6486,2.6835,2.7351,2.8136,2.7901,2.7769,2.8201,2.8588,2.9098,2.9644,2.9799,2.9514,2.8734,2.8765,2.9012,2.9384,3.0123,3.0818,3.1131,3.119,3.119,3.119,3.119,3.119,3.119,3.119,3.119,3.119,3.119,3.119,3.119,3.0995,3.0621,3.9697,3.9697,3.9697,3.8973,3.7606,3.5205,3.3963,3.3389,3.0506,2.9228,2.9184,2.9746,3.0719,3.1916,3.2723,3.3788,3.4881,3.4881,3.4901,3.4839,3.4826,3.4879,3.49,3.4433,3.4337,3.443,3.3842,3.3477,3.3439,3.3268,3.3106,3.2968,3.2968,3.2679,3.2064,3.0708,2.993,2.9792,2.9867,2.9854,2.9792,2.9227,2.8699,2.8255,2.7736,2.7249,2.6841,2.6816,2.6574,2.6065,2.5574,2.6026,2.746,2.5792,2.5643,0.0,2.6464,0.0,0.0,0.0,0.0,0.0,0.0,0.0,0.0,2.5993,2.6647,2.7879,2.9129,3.0088,3.0702,3.0687,3.0672,3.0761,3.1182,3.1256,3.0675,2.9668,2.8989,2.8989,2.7604,2.6939,2.7557,2.7769,2.8214,2.9002,2.9129,2.9146,2.938,2.9827,3.0224,3.0434,3.0468,3.0035,2.9225,2.9212,2.9437,2.9619,3.0347,3.111,3.12,3.1216,3.119,3.119,3.119,3.119,3.119,3.119,3.119,3.119,3.119,3.119,3.1151,3.074,3.0123,3.9697,3.9697,3.9697,3.953,3.9144,3.7032,3.4831,3.2591,3.1537,3.0936,3.067,3.1446,3.2558,3.3817,3.4027,3.4823,3.6056,3.6091,3.5805,3.5357,3.5345,3.5659,3.6144,3.6083,3.6478,3.7286,3.6359,3.5624,3.5123,3.4188,3.3282,3.2403,3.2378,3.2102,3.1562,0.0,0.0,0.0,3.0231,3.0244,2.9792,2.9189,2.897,2.9138,2.8573,0.0,2.8532,2.8524,2.847,2.8361,2.8239,0.0,0.0,0.0,0.0,0.0,0.0,0.0,0.0,0.0,0.0,0.0,2.7669,2.7384,2.7261,2.864,2.9665,2.9952,3.069,3.1391,3.2048,3.163,3.1511,3.2063,3.175,3.1451,3.1259,2.9954,2.8989,2.8957,2.8084,2.755,2.7796,2.8312,2.9079,2.9889,3.0042,3.0329,3.0911,3.0584,3.0554,3.1102,3.0812,3.0447,3.0178,2.9818,2.9766,3.0167,3.0355,3.078,3.1198,3.1264,3.1207,3.1224,3.119,3.119,3.1207,3.119,3.119,3.119,3.1207,3.119,3.1171,3.072,3.0123,3.9697,3.9697,3.9697,3.9697,0.0,3.8329,3.6666,3.4851,3.3321,3.2435,3.2147,3.3271,3.3983,3.4446,3.5078,3.5763,3.6417,3.6417,3.6523,3.6772,3.6772,3.7271,3.8187,3.789,3.8039,3.8518,3.7187,3.6363,3.5986,3.4612,3.3608,3.3043,3.278,3.2491,3.224,3.2227,3.1562,3.0206,3.047,3.0555,3.0457,3.0198,3.0226,3.0543,3.0302,0.0,0.0,0.0,0.0,0.0,0.0,0.0,0.0,0.0,0.0,2.9926,2.9112,2.8536,2.848,2.877,2.926,2.9883,3.0543,3.0528,2.9613,3.1023,3.1973,3.1988,3.2302,3.2632,3.2931,3.2706,3.2602,3.2931,3.2378,3.2108,3.2273,3.1071,3.027,3.0443,2.9867,2.9364,2.9426,2.9768,3.028,3.0791,3.0911,3.1058,3.138,3.1161,3.1087,3.1423,3.0941,3.0507,3.0475,3.028,3.0094,3.0453,3.0998,3.1449,3.1773,3.1796,3.1732,3.1698,3.1481,3.1292,3.165,3.1481,3.1309,3.165,3.1752,3.1599,3.1272,3.072,3.023,3.9697,3.9697,3.9697,3.9697,3.9659,3.9158,3.8419,3.746,3.5172,0.0,0.0,3.4913,3.5172,3.4836,3.5918,3.6417,3.6417,3.6628,3.7196,3.8121,3.832,3.905,4.0161,3.9688,3.9578,3.9676,3.7935,3.7063,3.6857,3.5071,3.4085,3.3884,3.3445,3.3224,3.3124,3.3124,3.2491,3.124,3.105,3.1099,3.1352,3.1405,3.1654,3.1999,3.2053,3.1828,3.1458,3.0918,3.0618,3.059,2.9648,2.9659,3.077,3.0395,3.0646,3.1736,3.1854,3.1629,3.1091,3.154,3.1854,3.1854,3.2991,3.317,3.1944,3.2871,3.3499,3.3499,3.3499,3.3544,3.3649,3.3544,3.3544,3.3649,3.308,3.2916,3.3319,3.2273,3.1536,3.1993,3.1537,3.1246,3.128,3.1505,3.1595,3.1663,3.1811,3.1795,3.1675,3.1571,3.1438,3.1451,3.1062,3.0688,3.0683,3.0697,3.0735,3.098,3.1749,3.242,3.255,3.2548,3.2435,3.2242,3.185,3.1867,3.2175,3.1989,3.1819,3.2378,3.2479,3.2327,3.1729,3.1202,3.0803,3.9697,3.9697,3.9697,3.9697,3.9647,3.9107,3.8529,3.7804,3.6195,3.5514,3.5486,3.5966,3.6171,3.6108,3.631,3.6417,3.6452,3.7415,3.7926,3.8153,3.9183,4.0275,4.1322,4.1278,4.1775,4.2456,4.0478,3.9145,3.8437,3.6366,3.4806,3.401,3.3809,3.3545,3.3162,3.3124,3.3186,3.3342,3.2777,3.228,3.1894,3.2218,3.2577,3.2897,3.2935,3.2995,3.3145,3.3041,3.3013,3.3013,3.285,3.2867,3.3033,3.2929,3.3019,3.3215,3.32,3.317,3.308,3.317,3.3215,3.3245,3.3918,3.4023,3.3305,3.338,3.3499,3.3514,3.3574,3.3724,3.4249,3.3873,3.3799,3.4218,3.3754,3.341,3.3559,3.2715,3.2165,3.2323,3.2123,3.2058,3.2182,3.2704,3.2898,3.2572,3.2721,3.2976,3.2392,3.1854,3.154,3.1496,3.1436,3.1361,3.1285,3.1344,3.1528,3.2226,3.2376,3.2741,3.3257,3.3283,3.3064,3.2462,3.2679,3.2797,3.2547,3.278,3.2983,3.3203,3.3237,3.3152,3.2991,3.2878,3.232,3.9961,3.971,3.9697,3.9697,3.9672,3.9421,3.9157,3.8843,3.7912,3.7129,3.6603,3.6769,3.6694,3.6417,3.6417,3.6756,3.7368,3.7834,3.8801,3.9988,4.0575,4.1435,4.2467,4.2508,4.2805,4.3115,4.0972,3.9747,3.9241,3.6819,3.5245,3.4808,3.4791,3.4521,3.4034,3.4485,3.4887,3.5087,3.3927,3.3614,3.415,3.3986,3.4229,3.4894,3.4618,3.4472,3.456,3.4233,3.4023,3.4054,3.3725,3.3499,3.353,3.3925,3.4148,3.4148,3.4163,3.4163,3.4163,3.4091,3.4188,3.4562,3.4861,3.4921,3.4622,3.4592,3.4592,3.4592,3.4592,3.4696,3.4996,3.4771,3.4711,3.4996,3.4427,3.4188,3.4425,3.3904,3.3591,3.39,3.3989,3.3856,3.3488,3.3789,3.3769,3.3215,3.335,3.335,3.308,3.2467,3.1884,3.1585,3.1496,3.1496,3.1496,3.1496,3.1824,3.2492,3.2893,3.3335,3.393,3.4041,3.3871,3.3541,3.3491,3.344,3.3355,3.3389,3.3575,3.3947,3.3998,3.3982,3.3861,3.3699,3.3035,4.0262,3.9873,3.9735,3.9697,3.9697,3.9697,3.9622,3.9471,3.9032,3.8304,3.7437,3.7236,3.692,3.6443,3.6675,3.7289,3.8075,3.868,3.9858,4.1504,4.185,4.2467,4.325,4.3305,4.3305,4.3076,4.1225,4.0275,4.0003,3.7717,3.6443,3.629,3.6016,3.566,3.5274,3.5896,3.633,3.6459,3.5324,3.5193,3.6129,3.5758,3.5918,3.6574,3.6058,3.5714,3.5699,3.5085,3.4743,3.4681,3.4218,3.4026,3.4227,3.4801,3.511,3.511,3.514,3.5067,3.4906,3.4803,3.4936,3.5444,3.5489,3.5489,3.5504,3.5654,3.5654,3.5534,3.5444,3.5459,3.5459,3.5474,3.5489,3.5459,3.504,3.4906,3.534,3.5011,3.4891,3.5415,3.5489,3.5265,3.4861,3.4743,3.4517,3.4113,3.3709,3.3544,3.3604,3.317,3.2467,3.1914,3.163,3.1626,3.1668,3.1768,3.216,3.2868,3.3479,3.4071,3.4587,3.4779,3.4614,3.4455,3.4201,3.41,3.4387,3.4252,3.4283,3.4819,3.5023,3.4983,3.5027,3.4828,3.4163,4.0501,4.0362,3.9923,3.9697,3.9697,3.9697,3.9433,3.9007,3.8894,3.853,3.7914,3.7412,3.6958,3.6584,3.75,3.8082,3.8419,4.0333,4.1393,4.174,4.267,4.3195,4.329,4.3305,4.3305,4.317,4.1988,4.1337,4.1295,4.0033,3.9166,3.8635,3.7579,3.7015,3.6918,3.6488,3.6696,3.7639,3.7506,3.7186,3.6763,3.7007,3.7231,3.7315,3.6716,3.6402,3.6357,3.5759,3.5415,3.5415,3.531,3.5617,3.6199,3.6383,3.6414,3.6413,3.6398,3.6153,3.552,3.5417,3.5459,3.5489,3.5564,3.5564,3.5594,3.6058,3.6133,3.5714,3.5534,3.5594,3.5504,3.5564,3.5624,3.5669,3.5504,3.5444,3.5504,3.5444,3.5444,3.5474,3.5489,3.5474,3.534,3.5325,3.5325,3.513,3.4292,3.3903,3.4264,3.3829,3.3276,3.2587,3.1988,3.1915,3.2274,3.2492,3.2986,3.4021,3.4406,3.4736,3.5157,3.5369,3.5334,3.4844,3.4979,3.5042,3.4844,3.4895,3.5499,3.5799,3.607,3.6328,3.677,3.6734,3.6076,4.1291,4.0899,4.0413,3.9986,3.9722,3.9697,3.9572,3.9358,3.9358,3.9032,3.868,3.9102,3.9003,3.8506,3.8997,3.9941,4.1351,4.1924,4.254,4.3119,4.3309,4.3305,4.3305,4.3305,4.3305,4.321,4.2167,4.1587,4.142,4.0447,3.9581,3.9101,3.91,3.8861,3.826,3.8505,3.871,3.876,3.873,3.8613,3.8325,3.8106,3.7988,3.7928,3.7375,3.6836,3.6507,3.6222,3.5908,3.5549,3.5489,3.5846,3.6554,3.707,3.7308,3.7279,3.6843,3.6459,3.6124,3.6073,3.6252,3.6596,3.6626,3.6626,3.6641,3.6881,3.6896,3.6686,3.6626,3.6641,3.6626,3.6626,3.6641,3.6582,3.6312,3.6088,3.6088,3.5744,3.5489,3.5489,3.5489,3.5489,3.5489,3.5489,3.5489,3.5474,3.4936,3.4786,3.4996,3.4502,3.4241,3.4211,3.381,3.313,3.2862,3.296,3.3582,3.4309,3.4616,3.483,3.5407,3.56,3.5464,3.5165,3.5397,3.5498,3.5228,3.5608,3.6182,3.6501,3.7022,3.736,3.7578,3.7482,3.7002,4.1932,4.1492,4.0814,4.0287,3.991,3.976,3.9697,3.9697,3.9697,3.9459,3.9259,4.047,4.0962,4.0917,4.091,4.1952,4.3372,4.3238,4.3505,4.4161,4.3589,4.3305,4.3305,4.3305,4.3305,4.317,4.2508,4.207,4.1988,4.1267,4.059,4.0361,4.0778,4.0658,3.9916,4.0307,4.0172,3.9723,3.9493,3.9388,3.9313,3.8931,3.8676,3.8616,3.8033,3.7464,3.703,3.6836,3.6447,3.5833,3.5938,3.6398,3.717,3.7736,3.8013,3.7937,3.7266,3.6785,3.6735,3.6746,3.6941,3.7345,3.7404,3.7404,3.7434,3.7569,3.7674,3.7674,3.7838,3.7853,3.7419,3.7404,3.7404,3.7375,3.6971,3.6731,3.6716,3.6163,3.5804,3.5774,3.5639,3.5489,3.5489,3.5489,3.5489,3.5489,3.5489,3.5604,3.572,3.5424,3.5324,3.5831,3.5666,3.5031,3.3799,3.3908,3.4422,3.4616,3.4918,3.5098,3.5515,3.5577,3.5616,3.5397,3.5549,3.57,3.5761,3.6172,3.6641,3.6923,3.7452,3.8048,3.8133,3.7935,3.7729,4.22,4.2011,4.0978,4.0526,4.0438,3.9936,3.971,3.9697,3.9697,3.9659,3.9905,4.1054,4.2247,4.3269,4.3367,4.3502,4.369,4.401,4.4195,4.4257,4.3643,4.3305,4.3305,4.3305,4.3305,4.3305,4.323,4.316,4.3115,4.3115,4.3155,4.3041,4.249,4.2264,4.1936,4.1017,4.0412,4.0307,3.9798,3.9418,3.9403,3.9358,3.9284,3.926,3.8706,3.8317,3.8182,3.7674,3.7075,3.6462,3.6941,3.7707,3.8612,3.8607,3.8538,3.8456,3.778,3.7353,3.7345,3.7389,3.7419,3.7479,3.7535,3.7464,3.7629,3.8063,3.8332,3.8347,3.8841,3.8721,3.7764,3.7659,3.7584,3.7554,3.7449,3.7389,3.7375,3.6821,3.6492,3.639,3.6097,3.5817,3.5599,3.5489,3.5714,3.5699,3.5587,3.5814,3.6415,3.6492,3.659,3.6848,3.7112,3.7154,3.5917,3.5572,3.5586,3.5586,3.5614,3.5594,3.5577,3.5616,3.5644,3.5711,3.581,3.6011,3.6266,3.662,3.7039,3.747,3.805,3.8515,3.8465,3.8593,3.8395,4.2527,4.2187,4.1731,4.1178,4.0513,4.03,4.0023,3.971,3.9697,4.0173,4.1019,4.2266,4.3504,4.4766,4.5595,4.5708,4.5293,4.4646,4.4317,4.4227,4.3604,4.3305,4.3334,4.3693,4.3718,4.3394,4.3723,4.3693,4.3319,4.3305,4.3305,4.3275,4.3105,4.2791,4.2381,4.1946,4.1459,4.0995,4.0382,4.0038,4.0014,3.9634,3.9388,3.9373,3.9185,3.8841,3.8392,3.8153,3.7734,3.7105,3.73,3.7795,3.8574,3.8633,3.8627,3.8529,3.7849,3.7599,3.7958,3.8048,3.8242,3.8611,3.8691,3.8661,3.8721,3.8916,3.905,3.9095,3.923,3.911,3.8886,3.8671,3.8656,3.8611,3.8302,3.8048,3.7928,3.7479,3.7075,3.7098,3.7258,3.7238,3.6659,3.7049,3.7465,3.7059,3.6951,3.7071,3.7249,3.7368,3.7517,3.8022,3.8318,3.8348,3.8019,3.7366,3.7009,3.6588,3.6372,3.628,3.6215,3.6127,3.6161,3.644,3.646,3.6542,3.6882,3.7229,3.7614,3.8066,3.8661,3.8676,3.8692,3.8707,3.8579,4.2773,4.2476,4.2288,4.1743,4.104,4.0651,4.0312,3.9987,4.021,4.0794,4.1789,4.3361,4.4581,4.5496,4.6504,4.6756,4.6234,4.5323,4.4855,4.4571,4.3958,4.3499,4.3379,4.3753,4.3738,4.3409,4.3723,4.3693,4.3349,4.3305,4.3305,4.3305,4.3305,4.312,4.2716,4.2515,4.2156,4.1692,4.1055,4.0718,4.0755,4.0368,4.0056,3.9859,3.9829,3.947,3.8756,3.8721,3.8407,3.7853,3.7928,3.829,3.8806,3.9144,3.9144,3.8825,3.8359,3.8242,3.8631,3.8721,3.8931,3.9313,3.9388,3.9388,3.9388,3.9388,3.9388,3.9388,3.9388,3.9388,3.9388,3.9373,3.9388,3.9343,3.899,3.8736,3.8676,3.8123,3.7831,3.7916,3.8551,3.8545,3.8041,3.8686,3.8722,3.8267,3.8158,3.8152,3.8141,3.8161,3.843,3.9129,3.9239,3.9429,3.9399,3.9139,3.8395,3.7889,3.7221,3.7064,3.7068,3.6917,3.6888,3.7148,3.7283,3.7322,3.7524,3.7878,3.8234,3.8611,3.8692,3.8692,3.8707,3.8707,3.8597,4.303,4.2861,4.2451,4.2213,4.1936,4.12,4.0669,4.0729,4.1393,4.1855,4.2425,4.4317,4.5358,4.5632,4.6267,4.6396,4.6381,4.6262,4.5783,4.508,4.4511,4.3898,4.3334,4.3439,4.3484,4.3394,4.3334,4.3334,4.3305,4.3305,4.3305,4.3305,4.3305,4.326,4.3275,4.2848,4.2572,4.2415,4.1964,4.1702,4.1692,4.1755,4.1415,4.0792,4.0665,4.025,3.9415,3.9364,3.9035,3.8571,3.8975,3.9343,3.9424,3.9982,4.0182,3.948,3.932,3.9313,3.9328,3.9298,3.9284,3.9388,3.9388,3.9388,3.9388,3.9388,3.9388,3.9388,3.9481,3.9517,3.9517,3.961,3.9589,3.9424,3.9376,3.9454,3.9307,3.8902,3.8504,3.8876,3.966,3.9993,3.9989,4.0183,4.0014,3.9353,3.9053,3.9012,3.8947,3.8908,3.9262,3.9817,4.007,4.0158,4.0545,4.0782,3.9943,3.9172,3.8443,3.7993,3.8197,3.8167,3.8105,3.8258,3.8098,3.8097,3.7912,3.8251,3.8417,3.8707,3.8707,3.8707,3.8707,3.8707,3.8707,4.2986,4.2961,4.2798,4.2552,4.2297,4.278,4.2593,4.1993,4.3071,4.3794,4.4326,4.507,4.5883,4.6594,4.6925,4.6995,4.6995,4.695,4.6157,4.4825,4.4436,4.3947,4.3484,4.3793,4.4003,4.3888,4.3499,4.3305,4.3305,4.3305,4.3305,4.3305,4.3305,4.3305,4.3369,4.3753,4.4051,4.4035,4.4029,4.4062,4.4069,4.3625,4.2816,4.1619,4.1457,4.085,3.9526,3.9388,3.9305,3.9095,3.9269,3.9388,3.9445,3.9631,3.9681,3.946,3.9388,3.9388,3.9388,3.9388,3.9388,3.9388,3.9388,3.9388,3.9388,3.9424,3.9445,3.9517,3.9935,4.0309,4.0378,4.086,4.0653,3.9553,3.9935,4.0309,4.0347,4.059,4.0666,4.0499,4.1457,4.1798,4.132,4.1519,4.1737,4.0707,4.0441,4.0321,3.9871,3.9731,3.9935,4.0528,4.0648,4.0868,4.1268,4.1578,4.1244,4.0615,3.9944,3.9348,3.9453,3.9354,3.9319,3.912,3.8953,3.8729,3.8549,3.8512,3.8643,3.8707,3.8707,3.8707,3.8707,3.8707,3.8707,4.2986,4.2986,4.2986,4.3093,4.3259,4.3992,4.396,4.365,4.4678,4.5302,4.5444,4.5928,4.655,4.7164,4.7309,4.7309,4.7309,4.7309,4.6486,4.517,4.4751,4.4317,4.3748,4.3783,4.3917,4.3858,4.3484,4.3305,4.3305,4.3305,4.3305,4.3329,4.3654,4.3888,4.3966,4.4781,4.5322,4.5353,4.546,4.5612,4.5546,4.4998,4.4056,4.2886,4.2201,4.1243,3.9985,3.9574,3.9388,3.9388,3.9388,3.9388,3.9388,3.9424,3.9388,3.9388,3.9388,3.9388,3.9388,3.9388,3.9388,3.9388,3.9388,3.9574,3.9773,3.99,3.9955,4.0413,4.086,4.1164,4.128,4.1609,4.1428,4.0535,4.086,4.118,4.1313,4.1949,4.2249,4.2189,4.2963,4.3132,4.3024,4.3043,4.3369,4.2303,4.1779,4.1477,4.0924,4.0563,4.0813,4.1036,4.1201,4.1534,4.2,4.2244,4.2402,4.2011,4.1529,4.1085,4.0908,4.0507,4.0285,3.9843,3.9579,3.9071,3.8834,3.8682,3.8707,3.8707,3.8707,3.8707,3.8707,3.8707,3.8707,4.2986,4.303,4.3085,4.3839,4.4782,4.4797,4.5047,4.5441,4.6248,4.6249,4.5999,4.6682,4.7207,4.7309,4.7309,4.7309,4.7309,4.7309,4.6995,4.6232,4.5589,4.484,4.4227,4.3663,4.3424,4.3364,4.3319,4.3305,4.329,4.3488,4.3369,4.3591,4.4434,4.4871,4.5026,4.5798,4.6244,4.6279,4.637,4.6562,4.6682,4.6072,4.5189,4.4358,4.2993,4.1745,4.0582,3.9798,3.9388,3.9388,3.9388,3.9388,3.9388,3.9388,3.9388,3.9388,3.9388,3.9481,3.9481,3.961,3.9681,3.9793,3.9864,3.9864,4.0622,4.0792,4.1013,4.1609,4.1933,4.2062,4.2062,4.2284,4.2269,4.2205,4.2125,4.2093,4.2221,4.2909,4.324,4.3436,4.4064,4.4519,4.4266,4.4406,4.4073,4.3532,4.2828,4.2467,4.1995,4.1632,4.1426,4.1552,4.1832,4.2165,4.2599,4.2752,4.2884,4.2794,4.2486,4.2286,4.2083,4.1695,4.1271,4.0785,4.0194,3.9643,3.9129,3.8964,3.8781,3.8707,3.8707,3.8707,3.8707,3.8707,3.8704,4.2986,4.3085,4.4071,4.4684,4.5289,4.6952,4.7363,4.6938,4.7999,4.7747,4.7065,4.7121,4.7309,4.7309,4.7309,4.7309,4.7309,4.7309,4.7264,4.6875,4.5813,4.496,4.4287,4.3618,4.3344,4.3344,4.3409,4.3305,4.3369,4.4066,4.4396,4.445,4.5342,4.5834,4.5977,4.6747,4.7189,4.734,4.7933,4.8222,4.8212,4.8056,4.7005,4.5061,4.4069,4.2538,4.0699,3.9793,3.9388,3.9388,3.9388,3.9388,3.9454,3.9484,3.9463,3.9388,3.9475,3.9702,4.022,4.0343,4.0638,4.1262,4.1129,4.1412,4.1609,4.1674,4.1756,4.2125,4.252,4.3,4.3061,4.3515,4.381,4.3827,4.3393,4.3213,4.3693,4.4093,4.4253,4.4281,4.4485,4.457,4.4637,4.4631,4.4524,4.4242,4.388,4.3536,4.2992,4.2502,4.22,4.2292,4.2519,4.2827,4.3087,4.3232,4.3339,4.3356,4.3228,4.312,4.3006,4.2877,4.2436,4.1974,4.1167,4.0543,3.9753,3.9239,3.9019,3.8799,3.8707,3.8707,3.8707,3.8707,3.8719,4.4372,4.3962,4.5302,4.6226,4.6888,4.8539,4.8745,4.8336,4.8878,4.858,4.7519,4.7309,4.7309,4.7309,4.7309,4.7309,4.7309,4.7309,4.7309,4.707,4.5903,4.4811,4.4003,4.3409,4.3527,4.3927,4.3927,4.4205,4.4593,4.5138,4.5342,4.5577,4.633,4.6781,4.685,4.7688,4.8193,4.8289,4.875,4.9018,4.9001,4.8697,4.7891,4.6176,4.5014,4.3066,4.1111,4.0801,4.0561,4.0052,3.9841,3.982,3.9854,4.0104,3.9993,3.9529,3.9943,4.0521,4.0684,4.1013,4.1478,4.1869,4.1981,4.2221,4.2458,4.2552,4.2629,4.3531,4.3958,4.4283,4.4589,4.4875,4.5089,4.5197,4.465,4.4322,4.4626,4.4525,4.4598,4.4598,4.4598,4.472,4.4906,4.4988,4.5087,4.5045,4.4544,4.423,4.3875,4.3393,4.3007,4.3058,4.3013,4.3178,4.3268,4.3375,4.341,4.3479,4.3479,4.3479,4.3479,4.3461,4.302,4.2451,4.1937,4.126,4.0322,3.9533,3.9221,3.9001,3.8836,3.8707,3.8707,3.8762,3.8777,4.637,4.5342,4.6747,4.8024,4.8999,4.9285,4.9307,4.9253,4.9134,4.8431,4.7489,4.7309,4.7309,4.7309,4.7309,4.7309,4.7309,4.7538,4.7498,4.7144,4.6165,4.5022,4.4133,4.3793,4.4028,4.4586,4.4849,4.5322,4.5798,4.6154,4.6349,4.6574,4.7273,4.7688,4.7868,4.8545,4.894,4.8909,4.894,4.9018,4.8934,4.8514,4.7917,4.699,4.5074,4.3357,4.223,4.2201,4.2317,4.1021,4.0828,4.0994,4.099,4.147,4.1124,4.0471,4.1117,4.1563,4.1254,4.1836,4.2252,4.2458,4.2539,4.2696,4.3457,4.379,4.4296,4.5243,4.5589,4.5689,4.593,4.5858,4.5833,4.6039,4.5765,4.5329,4.4917,4.472,4.472,4.4776,4.4786,4.4998,4.5355,4.563,4.5798,4.6141,4.5688,4.5422,4.5006,4.4487,4.4029,4.3688,4.3594,4.3427,4.3462,4.3479,4.3479,4.3479,4.3479,4.3479,4.3479,4.3387,4.3075,4.2671,4.2268,4.1515,4.0506,3.9918,3.9515,3.9038,3.8744,3.8707,3.8704,3.8833,3.8869,4.694,4.6799,4.8175,4.8901,4.9285,4.9743,4.9743,4.9269,4.8716,4.8087,4.7429,4.7309,4.7309,4.7352,4.7381,4.7309,4.7566,4.8107,4.8354,4.7939,4.6949,4.6181,4.543,4.484,4.4662,4.5042,4.5634,4.6048,4.6349,4.7036,4.7323,4.7456,4.808,4.8688,4.8719,4.8798,4.9018,4.9018,4.9018,4.9018,4.897,4.874,4.7957,4.6712,4.4929,4.3622,4.2951,4.3409,4.396,4.4013,4.3713,4.3427,4.3263,4.3434,4.3063,4.2482,4.2479,4.2798,4.2778,4.2927,4.3336,4.3914,4.441,4.4964,4.5127,4.5535,4.5915,4.6335,4.6257,4.6323,4.6501,4.6336,4.6359,4.6454,4.6359,4.6185,4.5989,4.5579,4.5494,4.5707,4.5571,4.5545,4.6112,4.6192,4.6483,4.6968,4.6924,4.6695,4.6119,4.5459,4.4821,4.4213,4.3736,4.3497,4.3479,4.3479,4.3479,4.3479,4.3479,4.3479,4.3479,4.3479,4.324,4.2965,4.2671,4.1827,4.1001,4.023,3.9827,3.9258,3.8744,3.8707,3.8735,3.8859,3.9045,4.8653,4.8239,4.9567,4.9967,4.9769,5.0022,4.9688,4.888,4.8461,4.7908,4.7414,4.7309,4.7566,4.7988,4.803,4.8225,4.8681,4.8856,4.8753,4.819,4.7334,4.6687,4.6378,4.6224,4.6119,4.6189,4.6574,4.7036,4.7556,4.7933,4.8257,4.8274,4.8781,4.894,4.9018,4.9018,4.9018,4.9018,4.9018,4.9018,4.897,4.8513,4.7754,4.6437,4.5362,4.4717,4.4555,4.5325,4.5928,4.6225,4.6339,4.5783,4.4948,4.4937,4.4627,4.3842,4.4043,4.3974,4.3937,4.4195,4.4599,4.5054,4.5788,4.6109,4.6231,4.6498,4.6752,4.6963,4.6968,4.6937,4.7219,4.6977,4.6999,4.7176,4.7021,4.6999,4.7048,4.6501,4.6014,4.6288,4.607,4.6312,4.6594,4.6801,4.7154,4.7599,4.7157,4.6916,4.6461,4.5791,4.5095,4.4452,4.3846,4.3534,4.3497,4.3479,4.3479,4.3479,4.3479,4.3479,4.3479,4.3479,4.3461,4.3204,4.2965,4.2598,4.1809,4.1001,4.0223,3.9638,3.9197,3.8906,3.8777,3.8937,3.9144,5.0555,4.9553,5.0594,5.0704,5.0211,4.9941,4.9284,4.8446,4.8367,4.8119,4.7699,4.7651,4.846,4.8907,4.9029,4.9655,5.0128,4.9601,4.9026,4.8972,4.797,4.7367,4.708,4.7406,4.7688,4.7803,4.7803,4.8242,4.8656,4.9001,4.8829,4.894,4.897,4.9018,4.9018,4.9018,4.9018,4.9018,4.9018,4.9018,4.894,4.8321,4.7539,4.6714,4.644,4.6306,4.6366,4.706,4.7736,4.7868,4.8576,4.7753,4.6617,4.6171,4.6094,4.4934,4.55,4.5469,4.5139,4.5395,4.5814,4.5906,4.6549,4.7005,4.7118,4.7202,4.7463,4.7684,4.781,4.7697,4.8172,4.7818,4.7797,4.8015,4.7777,4.7818,4.7957,4.7306,4.6914,4.6761,4.6756,4.6869,4.7219,4.7533,4.7879,4.8042,4.7588,4.7186,4.6801,4.6269,4.5627,4.4966,4.4397,4.3699,4.3571,4.3515,4.3496,4.3546,4.3548,4.3548,4.3546,4.3629,4.3646,4.3513,4.324,4.2906,4.2546,4.1905,4.1092,4.0246,3.97,3.9416,3.9239,3.9096,3.9295,5.1073,5.0857,5.0476,5.0285,5.0031,4.909,4.861,4.8383,4.8622,4.8692,4.8708,4.9472,4.9829,5.0126,5.0126,5.0703,5.1059,5.0241,4.9828,5.0007,4.9041,4.8198,4.8342,4.8401,4.8639,4.8767,4.8688,4.8798,4.894,4.9018,4.9018,4.9018,4.9018,4.9018,4.9018,4.9018,4.9018,4.9018,4.9018,4.9018,4.8923,4.8608,4.8112,4.7306,4.7205,4.7306,4.7539,4.8208,4.875,4.8781,4.8892,4.8709,4.8349,4.8344,4.7994,4.7333,4.7108,4.6864,4.6434,4.6482,4.6616,4.6769,4.7382,4.8058,4.8366,4.8461,4.8611,4.8726,4.8511,4.8172,4.8267,4.8132,4.8172,4.8248,4.821,4.8152,4.8191,4.8035,4.7802,4.7763,4.7578,4.7367,4.7697,4.7977,4.8154,4.8269,4.805,4.7905,4.7776,4.7151,4.6452,4.5755,4.5039,4.4287,4.3644,4.357,4.3532,4.3647,4.3646,4.3664,4.3712,4.3818,4.3818,4.3788,4.3634,4.3354,4.2986,4.2612,4.1874,4.0994,4.0471,3.9946,3.9618,3.9371,3.9595,5.102,5.0644,5.0315,4.9838,4.9254,4.9166,4.8849,4.8684,4.9291,4.9599,4.9758,5.0204,5.0703,5.1059,5.1155,5.1543,5.1597,5.0951,5.0509,5.0382,4.9417,4.8867,4.8987,4.9018,4.9001,4.9001,4.9001,4.9018,4.9018,4.9018,4.9018,4.9018,4.9018,4.9018,4.9018,4.9018,4.9018,4.9018,4.9018,4.9018,4.894,4.8625,4.8015,4.777,4.7671,4.7836,4.837,4.8639,4.9001,4.9046,4.9329,4.9462,4.9593,4.9746,4.9584,4.8685,4.8182,4.7831,4.7445,4.7378,4.7522,4.7929,4.8557,4.9292,4.9792,4.9955,4.9754,4.9422,4.8871,4.8324,4.8324,4.8324,4.8324,4.8324,4.8306,4.8325,4.8325,4.8325,4.8439,4.8532,4.8195,4.8,4.8055,4.8288,4.8402,4.8421,4.8402,4.8477,4.8586,4.796,4.7186,4.6303,4.5489,4.4578,4.3913,4.3769,4.3777,4.3871,4.3852,4.3871,4.3992,4.418,4.4237,4.4209,4.4005,4.3922,4.3712,4.3431,4.2592,4.1756,4.1124,4.0522,3.9953,3.9712,3.9901,5.0646,5.0032,5.011,4.9523,4.8823,4.9542,4.9609,4.9414,5.0242,5.0703,5.0703,5.1021,5.1557,5.1996,5.2096,5.2128,5.2384,5.1508,5.0696,5.0325,4.9429,4.8987,4.9018,4.9018,4.9018,4.9018,4.9018,4.9018,4.9018,4.9018,4.9018,4.9018,4.9018,4.9018,4.9018,4.9018,4.9018,4.9018,4.9018,4.9018,4.8798,4.8306,4.7868,4.7868,4.7868,4.8304,4.907,4.9256,4.9419,4.9622,4.9936,5.0213,5.0324,5.077,5.0572,4.9566,4.8839,4.8616,4.859,4.8648,4.8941,4.9343,4.9875,5.0548,5.0921,5.0802,5.0428,4.9656,4.882,4.8324,4.8324,4.8324,4.8382,4.8458,4.8477,4.8458,4.8604,4.8692,4.8813,4.8813,4.8621,4.8658,4.8728,4.8745,4.8898,4.8932,4.8915,4.8897,4.8943,4.8529,4.7776,4.6782,4.5834,4.4829,4.4246,4.4045,4.411,4.428,4.4252,4.4194,4.4392,4.4624,4.4606,4.4631,4.4775,4.4666,4.4478,4.4152,4.3407,4.2625,4.1795,4.1043,4.0364,4.0012,4.0052,4.9972,4.9449,4.9751,4.9735,4.9672,5.0129,5.0315,5.0374,5.1283,5.1724,5.1776,5.2592,5.3041,5.3078,5.2539,5.2707,5.247,5.1403,5.0557,5.0456,4.956,4.9018,4.9018,4.9018,4.9018,4.9018,4.9018,4.9018,4.9018,4.9018,4.9018,4.9018,4.9018,4.9018,4.9018,4.9018,4.9018,4.9018,4.9018,4.9018,4.9001,4.8861,4.8827,4.8813,4.892,4.9175,4.9792,4.9936,5.0135,5.068,5.0867,5.0981,5.0981,5.1008,5.106,5.0903,5.0779,5.0726,5.0505,5.0363,5.0426,5.0603,5.0911,5.1343,5.1604,5.1231,5.054,4.9661,4.8859,4.8401,4.8402,4.8345,4.8495,4.8692,4.883,4.8994,4.9155,4.9046,4.9155,4.9307,4.9234,4.9326,4.942,4.9386,4.9386,4.9386,4.9386,4.9352,4.9175,4.8752,4.8078,4.7028,4.6093,4.509,4.4543,4.436,4.4482,4.4695,4.4625,4.4574,4.4781,4.4966,4.5019,4.5074,4.5243,4.5273,4.4995,4.4601,4.4131,4.3386,4.2419,4.1532,4.0658,4.0443,4.0213,5.0537,4.9588,4.9735,4.993,5.024,5.093,5.1229,5.1467,5.2364,5.2784,5.287,5.323,5.3518,5.3399,5.3078,5.2655,5.2114,5.1116,5.0338,5.005,4.9357,4.9018,4.9018,4.9018,4.9018,4.9018,4.9001,4.9018,4.9001,4.9032,4.9001,4.9032,4.9032,4.9018,4.9138,4.9032,4.9018,4.9018,4.9018,4.9018,4.9107,4.9329,4.9563,4.9593,4.9936,5.0269,5.05,5.0635,5.0743,5.1164,5.1393,5.1685,5.1783,5.2036,5.2307,5.2284,5.2266,5.188,5.1197,5.1164,5.1368,5.1618,5.1716,5.2012,5.2316,5.1728,5.0912,5.0345,4.9487,4.8942,4.8763,4.8864,4.9029,4.9187,4.9234,4.9356,4.9504,4.9475,4.9489,4.9659,4.9853,4.9917,4.9911,4.9756,4.9717,4.9781,4.9652,4.9489,4.9244,4.8843,4.807,4.7123,4.6209,4.5321,4.4934,4.4682,4.4893,4.5047,4.4992,4.5003,4.5163,4.5303,4.5333,4.5381,4.5457,4.5448,4.5381,4.5103,4.4681,4.3884,4.3009,4.2025,4.1077,4.055,4.0381,5.1743,5.085,5.0702,5.0763,5.1097,5.1948,5.2312,5.2383,5.311,5.3484,5.3518,5.3518,5.3518,5.3416,5.3196,5.252,5.1555,5.1116,5.0321,4.9543,4.9086,4.9018,4.9018,4.9018,4.9018,4.9032,4.932,4.9364,4.9376,4.9479,4.958,4.9286,4.9652,4.9639,4.9521,4.9389,4.9286,4.9018,4.9018,4.9107,4.9329,4.9751,5.0033,5.0362,5.0752,5.1172,5.13,5.1343,5.1368,5.1801,5.2131,5.2399,5.2468,5.2867,5.318,5.3244,5.3308,5.3113,5.2417,5.2074,5.2011,5.2336,5.2641,5.2925,5.2856,5.212,5.1202,5.0713,4.9903,4.9368,4.9202,4.9311,4.946,4.9547,4.9645,4.9719,4.9792,4.9859,4.9949,5.0135,5.0286,5.0387,5.0336,5.0092,5.0045,5.0126,4.9952,4.965,4.9193,4.8736,4.7983,4.7057,4.6346,4.5601,4.54,4.5199,4.5368,4.5369,4.5323,4.5368,4.5505,4.5588,4.5621,4.5657,4.5661,4.5676,4.5624,4.546,4.521,4.4241,4.3282,4.2357,4.1508,4.092,4.0496,5.3607,5.3743,5.307,5.2758,5.2811,5.3224,5.3348,5.323,5.3433,5.3518,5.3501,5.3467,5.3416,5.3348,5.2824,5.2367,5.208,5.0777,5.0202,4.9779,4.939,4.912,4.9052,4.9018,4.9063,4.9199,4.9555,4.9826,5.0118,5.0554,5.0407,5.009,5.0407,5.0787,5.0599,5.0033,4.9462,4.9182,4.9077,4.9419,4.9751,5.0129,5.0472,5.099,5.1189,5.1393,5.1982,5.2152,5.24,5.2932,5.3078,5.3159,5.3265,5.3548,5.3777,5.3833,5.405,5.3975,5.3665,5.3258,5.3249,5.3626,5.3773,5.3542,5.2975,5.2384,5.1585,5.0792,5.0099,4.9674,4.9518,4.9532,4.9813,4.9949,5.008,5.0171,5.026,5.0388,5.0483,5.0614,5.0683,5.0708,5.0772,5.0543,5.0461,5.0537,4.9921,4.9577,4.8821,4.8285,4.7703,4.6965,4.6368,4.5936,4.585,4.5781,4.568,4.5661,4.5635,4.5692,4.5792,4.5852,4.5797,4.5814,4.5799,4.5841,4.5857,4.5667,4.5271,4.4452,4.3525,4.2506,4.1597,4.0873,4.0573,5.5015,5.471,5.4642,5.4412,5.3961,5.3618,5.3518,5.3518,5.3518,5.3518,5.345,5.3027,5.3044,5.3145,5.2672,5.2029,5.1708,5.1657,5.0659,4.9881,4.9475,4.9373,4.9221,4.9111,4.9195,4.9615,5.0017,5.0359,5.0743,5.1393,5.1544,5.1401,5.1241,5.106,5.085,5.039,4.9681,4.9316,4.9389,4.9792,5.0044,5.0946,5.1571,5.2077,5.2641,5.3021,5.3496,5.359,5.374,5.3869,5.3943,5.3925,5.3925,5.4137,5.4204,5.42,5.4449,5.4491,5.4491,5.4112,5.3896,5.3406,5.3527,5.3371,5.2598,5.1902,5.1362,5.0766,5.0431,5.0106,4.9911,5.008,5.0347,5.0432,5.0493,5.0554,5.0624,5.0673,5.0748,5.0756,5.0811,5.0886,5.094,5.099,5.0959,5.0895,5.0164,4.9446,4.874,4.8022,4.7495,4.703,4.6458,4.6084,4.5967,4.5928,4.5907,4.592,4.5924,4.5959,4.5974,4.5899,4.5872,4.5899,4.592,4.5944,4.5918,4.5836,4.5414,4.4743,4.3706,4.2584,4.1704,4.0885,4.0639,5.6286,5.5626,5.5667,5.5294,5.4532,5.3805,5.3518,5.3518,5.3518,5.3331,5.3129,5.257,5.2587,5.2858,5.2587,5.2114,5.1877,5.1826,5.0896,5.0219,4.9779,4.9746,4.9469,4.9426,4.973,5.0241,5.0651,5.1051,5.1419,5.2089,5.2312,5.2177,5.1783,5.1494,5.1215,5.0462,4.9681,4.9316,4.9622,5.0157,5.0445,5.1578,5.2546,5.3025,5.359,5.3958,5.4236,5.427,5.4319,5.4387,5.4439,5.4471,5.4516,5.4579,5.4655,5.4644,5.4585,5.4515,5.4477,5.428,5.3913,5.3183,5.3205,5.2778,5.2064,5.1593,5.1363,5.078,5.0667,5.0594,5.0272,5.0472,5.0565,5.0585,5.0604,5.0644,5.0673,5.073,5.0805,5.0848,5.0932,5.0996,5.1066,5.108,5.0801,5.0679,5.0137,4.9464,4.8872,4.8156,4.7496,4.7053,4.6604,4.6301,4.6053,4.6053,4.6069,4.6108,4.611,4.608,4.6072,4.5996,4.5996,4.6077,4.608,4.6036,4.6035,4.6035,4.5644,4.5135,4.3984,4.278,4.1893,4.1117,4.0718,5.7369,5.6712,5.5952,5.5243,5.4584,5.3805,5.3518,5.3484,5.3416,5.3127,5.2682,5.238,5.2332,5.245,5.2432,5.2215,5.2248,5.2347,5.1632,5.051,5.0755,5.0371,5.0178,5.0273,5.0626,5.12,5.152,5.1759,5.2112,5.2662,5.298,5.2769,5.2201,5.1716,5.1856,5.0689,4.971,4.9243,4.9751,5.0407,5.1205,5.2245,5.3083,5.3702,5.42,5.4532,5.4701,5.475,5.4745,5.4745,5.4735,5.4735,5.4701,5.4947,5.5023,5.4955,5.4652,5.449,5.437,5.4007,5.3353,5.2755,5.2772,5.2537,5.2033,5.1709,5.1448,5.0744,5.0701,5.0683,5.0663,5.0702,5.0683,5.0702,5.0702,5.073,5.0764,5.0844,5.0911,5.0971,5.1044,5.1124,5.1158,5.109,5.0692,5.0352,4.9968,4.9512,4.9044,4.8383,4.7711,4.7185,4.6777,4.6443,4.6228,4.6229,4.625,4.6269,4.625,4.6211,4.6211,4.6191,4.6211,4.625,4.6211,4.6172,4.6211,4.6269,4.5898,4.5459,4.4197,4.3039,4.2147,4.1338,4.0855,5.7036,5.6697,5.548,5.5111,5.5135,5.4024,5.3518,5.3399,5.3009,5.3102,5.3316,5.2335,5.2215,5.2631,5.2577,5.2448,5.2548,5.3538,5.2891,5.1184,5.2153,5.2212,5.1899,5.1553,5.1856,5.2292,5.2474,5.2445,5.2831,5.3103,5.3146,5.2959,5.206,5.1197,5.0743,5.0118,4.9821,4.9821,5.038,5.1086,5.1796,5.2831,5.3702,5.4257,5.4655,5.4993,5.5186,5.5186,5.5186,5.5199,5.5186,5.5199,5.5212,5.5435,5.5236,5.4902,5.4481,5.3885,5.3212,5.2557,5.2439,5.2272,5.2178,5.1972,5.126,5.1125,5.0894,5.0798,5.0721,5.0721,5.0683,5.0693,5.0702,5.0721,5.0748,5.0803,5.0879,5.0972,5.1058,5.1109,5.1167,5.1153,5.119,5.1137,5.0789,5.0527,5.0208,4.9995,4.9597,4.8794,4.8067,4.7465,4.6995,4.6633,4.6394,4.6274,4.625,4.6289,4.6289,4.6269,4.6289,4.6289,4.6289,4.6269,4.6289,4.6289,4.6289,4.6289,4.6269,4.5726,4.4434,4.3334,4.2434,4.1567,4.0828,5.7181,5.7105,5.6167,5.588,5.5866,5.4512,5.4011,5.4132,5.3696,5.3791,5.3763,5.2813,5.268,5.3202,5.3233,5.3352,5.3552,5.4365,5.4383,5.2676,5.3739,5.372,5.3245,5.2889,5.3013,5.3303,5.3007,5.2787,5.3103,5.3164,5.302,5.2531,5.1685,5.0858,5.0241,4.985,4.9751,4.9976,5.0635,5.1343,5.2226,5.318,5.4151,5.4528,5.4966,5.5411,5.561,5.5684,5.5695,5.5695,5.5684,5.5684,5.5684,5.5607,5.5434,5.503,5.4227,5.334,5.2086,5.1697,5.1667,5.1625,5.1537,5.1231,5.0818,5.0844,5.0861,5.0793,5.0784,5.0797,5.0803,5.0786,5.0799,5.0822,5.0886,5.0946,5.0977,5.1079,5.1122,5.1176,5.1189,5.118,5.1149,5.1085,5.0933,5.0714,5.0505,5.0303,5.0114,4.939,4.8549,4.784,4.7217,4.6764,4.6437,4.6193,4.6191,4.6289,4.6289,4.6289,4.6289,4.6289,4.6289,4.6289,4.6289,4.6289,4.6289,4.6289,4.625,4.5703,4.4633,4.3624,4.2737,4.1797,4.0849,5.7961,5.8023,5.8018,5.7555,5.6793,5.5499,5.5173,5.5678,5.5561,5.4758,5.3655,5.4355,5.4136,5.3776,5.4262,5.484,5.5305,5.5585,5.5114,5.4782,5.5053,5.4786,5.4507,5.4069,5.4315,5.4199,5.3941,5.3624,5.3369,5.3424,5.3072,5.2196,5.1512,5.0716,5.0061,4.9551,4.9551,5.0033,5.0716,5.1419,5.2221,5.3572,5.427,5.4716,5.5186,5.5561,5.5726,5.5717,5.5716,5.5705,5.5684,5.5684,5.5684,5.5665,5.5645,5.5112,5.392,5.2493,5.1453,5.1236,5.1194,5.123,5.1003,5.0785,5.0775,5.0848,5.0901,5.0916,5.0903,5.0985,5.1025,5.0991,5.0959,5.101,5.1063,5.1093,5.1085,5.1118,5.1137,5.1152,5.1144,5.1115,5.1069,5.0997,5.0916,5.082,5.0643,5.0661,5.044,5.019,4.9297,4.8242,4.76,4.6924,4.655,4.6137,4.6172,4.625,4.6289,4.6289,4.6289,4.6289,4.6289,4.6289,4.6289,4.6289,4.6289,4.6269,4.623,4.5488,4.4531,4.3955,4.3111,4.18,4.0893,5.8287,5.8727,5.8342,5.8278,5.8375,5.7418,5.6876,5.6447,5.548,5.5053,5.5783,5.4937,5.4866,5.504,5.53,5.557,5.5887,5.6107,5.5936,5.5921,5.6266,5.6406,5.6188,5.5767,5.592,5.5674,5.5298,5.4656,5.4656,5.4381,5.3196,5.2203,5.1537,5.0779,5.009,4.9376,4.9622,5.0004,5.0716,5.1469,5.2386,5.3721,5.427,5.4727,5.5381,5.5701,5.5739,5.5807,5.5808,5.5717,5.5705,5.5695,5.5684,5.4963,5.4272,5.3125,5.2239,5.1478,5.1139,5.1074,5.1108,5.1122,5.102,5.1016,5.1004,5.1002,5.1061,5.1031,5.1017,5.1074,5.1107,5.1084,5.1069,5.1111,5.1154,5.1145,5.1146,5.1131,5.114,5.1085,5.1068,5.1003,5.0945,5.0863,5.0799,5.0757,5.0767,5.0782,5.0632,5.0337,4.964,4.8544,4.7766,4.7033,4.6411,4.5963,4.6091,4.6211,4.6269,4.6289,4.6289,4.6289,4.6289,4.6289,4.6289,4.6289,4.6289,4.625,4.6211,4.5312,4.4414,4.4004,4.3376,4.1998,4.1044,5.8166,5.9007,5.875,5.8844,5.9016,5.8364,5.7726,5.7193,5.6335,5.637,5.6704,5.6247,5.6024,5.6103,5.6451,5.6693,5.6737,5.708,5.7061,5.711,5.7499,5.7454,5.7313,5.6932,5.6685,5.651,5.6033,5.5188,5.5097,5.4359,5.3244,5.2631,5.1832,5.112,5.0554,5.0174,4.9936,5.0241,5.077,5.1569,5.2634,5.374,5.4286,5.4693,5.5442,5.5759,5.5807,5.5912,5.5915,5.5825,5.5826,5.5834,5.5699,5.4888,5.366,5.2686,5.2115,5.1615,5.125,5.121,5.1216,5.1216,5.1196,5.1216,5.118,5.1174,5.116,5.1125,5.1129,5.1156,5.1167,5.1174,5.1187,5.1199,5.1192,5.1172,5.1162,5.1145,5.1102,5.1017,5.0952,5.0875,5.0791,5.0721,5.0693,5.0712,5.0721,5.0721,5.0489,5.0131,4.9386,4.8364,4.7714,4.7055,4.6435,4.5899,4.6042,4.6172,4.6269,4.6289,4.6289,4.6289,4.6289,4.6289,4.6289,4.6289,4.6269,4.625,4.6074,4.5098,4.4199,4.3633,4.2968,4.1972,4.1264,5.7882,5.9195,5.9195,5.9161,5.9082,5.8345,5.7955,5.7978,5.7812,5.757,5.713,5.7643,5.7423,5.7083,5.7386,5.7648,5.7642,5.7755,5.7779,5.79,5.762,5.7593,5.7409,5.7189,5.6859,5.6565,5.6253,5.5831,5.4656,5.4011,5.3586,5.3182,5.2381,5.1667,5.1197,5.0876,5.0689,5.0716,5.1138,5.1808,5.2856,5.3814,5.4516,5.4678,5.5324,5.592,5.5959,5.6019,5.6121,5.6058,5.5992,5.6,5.5417,5.4776,5.3544,5.2726,5.2038,5.1705,5.1334,5.1249,5.1288,5.1307,5.1366,5.1307,5.123,5.1271,5.1234,5.1228,5.123,5.1258,5.1283,5.1261,5.1265,5.1244,5.1209,5.116,5.1073,5.104,5.0952,5.0898,5.0839,5.0757,5.0758,5.0693,5.0693,5.0693,5.0683,5.0683,5.0164,4.976,4.901,4.8106,4.7545,4.6918,4.6287,4.5891,4.6008,4.6133,4.6211,4.6211,4.6152,4.6191,4.6269,4.625,4.623,4.625,4.623,4.6172,4.5762,4.4746,4.3906,4.3223,4.245,4.1571,4.128,5.8832,5.9213,5.9204,5.9212,5.9093,5.8345,5.7978,5.7978,5.7978,5.7868,5.7758,5.7868,5.7905,5.774,5.7831,5.7978,5.7978,5.7978,5.7978,5.7776,5.7538,5.7464,5.7189,5.7116,5.6859,5.6969,5.6877,5.629,5.5152,5.4363,5.3699,5.3176,5.2531,5.2042,5.1783,5.1487,5.1317,5.1325,5.1734,5.2018,5.2611,5.3721,5.4532,5.4832,5.5416,5.5962,5.6058,5.6198,5.6222,5.6167,5.5917,5.5366,5.4494,5.3615,5.2627,5.174,5.16,5.1442,5.1333,5.1189,5.1196,5.1174,5.117,5.116,5.1183,5.1285,5.1327,5.1326,5.1327,5.1367,5.1367,5.1348,5.1308,5.1277,5.1221,5.1094,5.0981,5.0898,5.0825,5.0766,5.0731,5.0702,5.0693,5.0683,5.0683,5.0683,5.0683,5.0471,4.9615,4.9029,4.851,4.7742,4.7308,4.6717,4.6119,4.5864,4.5942,4.5967,4.6035,4.6035,4.6005,4.608,4.6147,4.6147,4.6133,4.6147,4.6097,4.5996,4.541,4.437,4.3457,4.2704,4.1841,4.0954,4.0929,5.8368,5.8637,5.8676,5.8676,5.8602,5.818,5.7978,5.7978,5.7978,5.7978,5.7978,5.7978,5.7978,5.7978,5.7978,5.7978,5.7978,5.7978,5.7978,5.7776,5.7556,5.7501,5.7336,5.7207,5.7024,5.706,5.6326,5.5647,5.5078,5.4271,5.346,5.3179,5.2702,5.2422,5.2224,5.197,5.1988,5.2089,5.2399,5.2554,5.2652,5.374,5.4471,5.4832,5.5409,5.5971,5.6193,5.6305,5.6352,5.6092,5.5698,5.4925,5.4006,5.3086,5.2124,5.1469,5.1201,5.1151,5.1148,5.1111,5.1074,5.1069,5.1084,5.1117,5.1107,5.1194,5.1199,5.1199,5.1199,5.1227,5.1227,5.1213,5.1191,5.1174,5.1069,5.0959,5.0855,5.078,5.0749,5.0721,5.0702,5.0693,5.0683,5.0683,5.0664,5.0539,5.0577,5.0038,4.9202,4.8221,4.7712,4.7202,4.6685,4.6435,4.5996,4.582,4.5853,4.5881,4.5867,4.5903,4.5924,4.5978,4.6005,4.6024,4.6024,4.6021,4.5951,4.5695,4.4954,4.3902,4.2996,4.2141,4.1255,4.0453,4.0404,5.748,5.7955,5.7997,5.7997,5.7978,5.7978,5.7978,5.7978,5.7978,5.7978,5.7978,5.7978,5.7978,5.7978,5.7978,5.7978,5.7978,5.7978,5.7978,5.7923,5.7758,5.7483,5.7501,5.7648,5.7226,5.6492,5.5702,5.5097,5.4528,5.3794,5.3314,5.3203,5.3063,5.2875,5.2621,5.2702,5.2893,5.264,5.2769,5.3127,5.3564,5.4033,5.4373,5.4882,5.5509,5.6133,5.6288,5.6389,5.6488,5.5987,5.5345,5.4373,5.351,5.2561,5.1908,5.1245,5.1078,5.1074,5.1053,5.1014,5.1022,5.1033,5.1061,5.1061,5.1036,5.1017,5.1042,5.1053,5.1053,5.1094,5.1099,5.1099,5.1099,5.1042,5.0926,5.0813,5.0727,5.0664,5.0683,5.0673,5.0683,5.0683,5.0644,5.0644,5.0452,5.0337,4.9942,4.9423,4.8712,4.763,4.6808,4.6296,4.5797,4.5611,4.5642,4.566,4.5614,4.5718,4.5693,4.5759,4.5813,4.5842,4.5877,4.5896,4.5896,4.5862,4.5506,4.5155,4.4309,4.3347,4.2421,4.1512,4.0707,4.0036,3.9852,5.7862,5.7978,5.7978,5.7978,5.7978,5.7978,5.7978,5.7978,5.7978,5.7978,5.8024,5.8001,5.7978,5.8001,5.7978,5.7978,5.7978,5.7978,5.7978,5.7941,5.7574,5.7262,5.7152,5.7354,5.7005,5.6326,5.5611,5.5042,5.4234,5.3515,5.3185,5.3185,5.3185,5.3103,5.3082,5.3164,5.3103,5.2959,5.3005,5.3295,5.3739,5.4135,5.4406,5.4943,5.5604,5.6006,5.6279,5.646,5.6539,5.6074,5.499,5.3822,5.2875,5.2057,5.1397,5.1138,5.0972,5.0952,5.0925,5.0871,5.0867,5.0835,5.0835,5.0819,5.0803,5.0758,5.0756,5.0769,5.0813,5.0957,5.1006,5.1042,5.1031,5.0872,5.0722,5.0634,5.0556,5.0594,5.0624,5.0653,5.0673,5.0596,5.0491,5.0231,4.9673,4.9394,4.8759,4.82,4.7401,4.6603,4.5879,4.5416,4.4933,4.5042,4.5165,4.5236,4.5256,4.5405,4.5447,4.537,4.5444,4.5691,4.5725,4.5686,4.5693,4.5679,4.5262,4.4654,4.3652,4.2718,4.1749,4.0854,4.0089,3.9543,3.9308]}]]